<?xml version="1.0" encoding="UTF-8" standalone="no" ?>
<gpx xmlns="http://www.topografix.com/GPX/1/1" creator="MapSource 6.11.6" version="1.1" xmlns:xsi="http://www.w3.org/2001/XMLSchema-instance" xsi:schemaLocation="http://www.topografix.com/GPX/1/1 http://www.topografix.com/GPX/1/1/gpx.xsd">

  <metadata>
    <link href="http://www.garmin.com">
      <text>Garmin International</text>
    </link>
    <time>2009-08-26T19:26:39Z</time>
    <bounds maxlat="50.690748" maxlon="6.494298" minlat="50.631630" minlon="6.461799"/>
  </metadata>

  <trk>
    <name>Bundsandstein-Route 2 original</name>
    <extensions>
      <gpxx:TrackExtension xmlns:gpxx="http://www.garmin.com/xmlschemas/GpxExtensions/v3" xmlns:xsi="http://www.w3.org/2001/XMLSchema-instance" xsi:schemaLocation="http://www.garmin.com/xmlschemas/GpxExtensions/v3 http://www.garmin.com/xmlschemas/GpxExtensions/v3/GpxExtensionsv3.xsd">
        <gpxx:DisplayColor>White</gpxx:DisplayColor>
      </gpxx:TrackExtension>
    </extensions>
    <trkseg>
      <trkpt lat="50.688636" lon="6.483195">
        <ele>194.800000</ele>
        <time>2009-08-26T07:48:36Z</time>
      </trkpt>
      <trkpt lat="50.688608" lon="6.483233">
        <ele>199.130000</ele>
        <time>2009-08-26T07:48:39Z</time>
      </trkpt>
      <trkpt lat="50.688645" lon="6.483209">
        <ele>203.940000</ele>
        <time>2009-08-26T07:48:40Z</time>
      </trkpt>
      <trkpt lat="50.688642" lon="6.483214">
        <ele>208.260000</ele>
        <time>2009-08-26T07:48:41Z</time>
      </trkpt>
      <trkpt lat="50.688653" lon="6.483211">
        <ele>212.590000</ele>
        <time>2009-08-26T07:48:42Z</time>
      </trkpt>
      <trkpt lat="50.688659" lon="6.483215">
        <ele>216.910000</ele>
        <time>2009-08-26T07:48:43Z</time>
      </trkpt>
      <trkpt lat="50.688661" lon="6.483215">
        <ele>216.910000</ele>
        <time>2009-08-26T07:48:44Z</time>
      </trkpt>
      <trkpt lat="50.688697" lon="6.483226">
        <ele>216.910000</ele>
        <time>2009-08-26T07:48:58Z</time>
      </trkpt>
      <trkpt lat="50.688700" lon="6.483375">
        <ele>220.760000</ele>
        <time>2009-08-26T07:49:01Z</time>
      </trkpt>
      <trkpt lat="50.688666" lon="6.483354">
        <ele>220.760000</ele>
        <time>2009-08-26T07:49:02Z</time>
      </trkpt>
      <trkpt lat="50.688717" lon="6.483162">
        <ele>220.760000</ele>
        <time>2009-08-26T07:49:07Z</time>
      </trkpt>
      <trkpt lat="50.688891" lon="6.482828">
        <ele>221.720000</ele>
        <time>2009-08-26T07:49:29Z</time>
      </trkpt>
      <trkpt lat="50.689001" lon="6.482670">
        <ele>222.680000</ele>
        <time>2009-08-26T07:49:43Z</time>
      </trkpt>
      <trkpt lat="50.689062" lon="6.482643">
        <ele>222.680000</ele>
        <time>2009-08-26T07:49:51Z</time>
      </trkpt>
      <trkpt lat="50.689192" lon="6.482292">
        <ele>223.640000</ele>
        <time>2009-08-26T07:50:11Z</time>
      </trkpt>
      <trkpt lat="50.689272" lon="6.482210">
        <ele>223.640000</ele>
        <time>2009-08-26T07:50:19Z</time>
      </trkpt>
      <trkpt lat="50.689353" lon="6.482081">
        <ele>224.120000</ele>
        <time>2009-08-26T07:50:26Z</time>
      </trkpt>
      <trkpt lat="50.689422" lon="6.482044">
        <ele>224.120000</ele>
        <time>2009-08-26T07:50:29Z</time>
      </trkpt>
      <trkpt lat="50.689510" lon="6.481972">
        <ele>224.610000</ele>
        <time>2009-08-26T07:50:35Z</time>
      </trkpt>
      <trkpt lat="50.689531" lon="6.481924">
        <ele>224.610000</ele>
        <time>2009-08-26T07:50:38Z</time>
      </trkpt>
      <trkpt lat="50.689635" lon="6.481829">
        <ele>224.610000</ele>
        <time>2009-08-26T07:50:45Z</time>
      </trkpt>
      <trkpt lat="50.689668" lon="6.481725">
        <ele>225.090000</ele>
        <time>2009-08-26T07:50:54Z</time>
      </trkpt>
      <trkpt lat="50.689562" lon="6.481586">
        <ele>227.490000</ele>
        <time>2009-08-26T07:51:13Z</time>
      </trkpt>
      <trkpt lat="50.689475" lon="6.481497">
        <ele>229.410000</ele>
        <time>2009-08-26T07:51:25Z</time>
      </trkpt>
      <trkpt lat="50.689324" lon="6.481350">
        <ele>232.300000</ele>
        <time>2009-08-26T07:51:43Z</time>
      </trkpt>
      <trkpt lat="50.689194" lon="6.481385">
        <ele>235.180000</ele>
        <time>2009-08-26T07:52:00Z</time>
      </trkpt>
      <trkpt lat="50.689196" lon="6.481284">
        <ele>236.620000</ele>
        <time>2009-08-26T07:52:08Z</time>
      </trkpt>
      <trkpt lat="50.689255" lon="6.481045">
        <ele>239.020000</ele>
        <time>2009-08-26T07:52:24Z</time>
      </trkpt>
      <trkpt lat="50.689230" lon="6.480936">
        <ele>239.510000</ele>
        <time>2009-08-26T07:52:46Z</time>
      </trkpt>
      <trkpt lat="50.689340" lon="6.480701">
        <ele>240.470000</ele>
        <time>2009-08-26T07:53:00Z</time>
      </trkpt>
      <trkpt lat="50.689359" lon="6.480681">
        <ele>240.950000</ele>
        <time>2009-08-26T07:53:03Z</time>
      </trkpt>
      <trkpt lat="50.689403" lon="6.480547">
        <ele>240.950000</ele>
        <time>2009-08-26T07:53:09Z</time>
      </trkpt>
      <trkpt lat="50.689383" lon="6.480361">
        <ele>241.910000</ele>
        <time>2009-08-26T07:53:15Z</time>
      </trkpt>
      <trkpt lat="50.689290" lon="6.480011">
        <ele>242.870000</ele>
        <time>2009-08-26T07:53:29Z</time>
      </trkpt>
      <trkpt lat="50.689272" lon="6.479860">
        <ele>243.350000</ele>
        <time>2009-08-26T07:53:38Z</time>
      </trkpt>
      <trkpt lat="50.689279" lon="6.479709">
        <ele>243.350000</ele>
        <time>2009-08-26T07:53:44Z</time>
      </trkpt>
      <trkpt lat="50.689263" lon="6.479490">
        <ele>244.310000</ele>
        <time>2009-08-26T07:53:56Z</time>
      </trkpt>
      <trkpt lat="50.689229" lon="6.479176">
        <ele>243.350000</ele>
        <time>2009-08-26T07:54:16Z</time>
      </trkpt>
      <trkpt lat="50.689139" lon="6.478764">
        <ele>243.830000</ele>
        <time>2009-08-26T07:54:35Z</time>
      </trkpt>
      <trkpt lat="50.689068" lon="6.478760">
        <ele>243.830000</ele>
        <time>2009-08-26T07:54:50Z</time>
      </trkpt>
      <trkpt lat="50.689054" lon="6.478785">
        <ele>243.350000</ele>
        <time>2009-08-26T07:54:52Z</time>
      </trkpt>
      <trkpt lat="50.688892" lon="6.478733">
        <ele>241.430000</ele>
        <time>2009-08-26T07:55:08Z</time>
      </trkpt>
      <trkpt lat="50.688851" lon="6.478596">
        <ele>241.910000</ele>
        <time>2009-08-26T07:55:30Z</time>
      </trkpt>
      <trkpt lat="50.688827" lon="6.478604">
        <ele>241.910000</ele>
        <time>2009-08-26T07:55:34Z</time>
      </trkpt>
      <trkpt lat="50.688662" lon="6.478656">
        <ele>239.990000</ele>
        <time>2009-08-26T07:55:50Z</time>
      </trkpt>
      <trkpt lat="50.688589" lon="6.478714">
        <ele>239.020000</ele>
        <time>2009-08-26T07:55:57Z</time>
      </trkpt>
      <trkpt lat="50.688555" lon="6.478692">
        <ele>238.540000</ele>
        <time>2009-08-26T07:56:00Z</time>
      </trkpt>
      <trkpt lat="50.688454" lon="6.478554">
        <ele>238.540000</ele>
        <time>2009-08-26T07:56:21Z</time>
      </trkpt>
      <trkpt lat="50.688349" lon="6.478277">
        <ele>237.580000</ele>
        <time>2009-08-26T07:56:40Z</time>
      </trkpt>
      <trkpt lat="50.688228" lon="6.478186">
        <ele>234.220000</ele>
        <time>2009-08-26T07:57:06Z</time>
      </trkpt>
      <trkpt lat="50.688258" lon="6.478470">
        <ele>235.660000</ele>
        <time>2009-08-26T07:57:27Z</time>
      </trkpt>
      <trkpt lat="50.688289" lon="6.478636">
        <ele>236.140000</ele>
        <time>2009-08-26T07:57:46Z</time>
      </trkpt>
      <trkpt lat="50.688327" lon="6.478858">
        <ele>239.020000</ele>
        <time>2009-08-26T07:58:17Z</time>
      </trkpt>
      <trkpt lat="50.688421" lon="6.479037">
        <ele>241.910000</ele>
        <time>2009-08-26T07:58:32Z</time>
      </trkpt>
      <trkpt lat="50.688514" lon="6.479161">
        <ele>242.390000</ele>
        <time>2009-08-26T07:58:37Z</time>
      </trkpt>
      <trkpt lat="50.688700" lon="6.479357">
        <ele>243.830000</ele>
        <time>2009-08-26T07:58:55Z</time>
      </trkpt>
      <trkpt lat="50.688888" lon="6.479663">
        <ele>244.790000</ele>
        <time>2009-08-26T07:59:17Z</time>
      </trkpt>
      <trkpt lat="50.688892" lon="6.479825">
        <ele>246.230000</ele>
        <time>2009-08-26T07:59:36Z</time>
      </trkpt>
      <trkpt lat="50.688979" lon="6.480109">
        <ele>248.160000</ele>
        <time>2009-08-26T07:59:56Z</time>
      </trkpt>
      <trkpt lat="50.688924" lon="6.480299">
        <ele>249.120000</ele>
        <time>2009-08-26T08:00:14Z</time>
      </trkpt>
      <trkpt lat="50.688943" lon="6.480299">
        <ele>250.560000</ele>
        <time>2009-08-26T08:00:21Z</time>
      </trkpt>
      <trkpt lat="50.689012" lon="6.480410">
        <ele>253.930000</ele>
        <time>2009-08-26T08:00:37Z</time>
      </trkpt>
      <trkpt lat="50.689041" lon="6.480490">
        <ele>256.810000</ele>
        <time>2009-08-26T08:00:49Z</time>
      </trkpt>
      <trkpt lat="50.689068" lon="6.480680">
        <ele>259.690000</ele>
        <time>2009-08-26T08:01:07Z</time>
      </trkpt>
      <trkpt lat="50.689093" lon="6.480875">
        <ele>262.100000</ele>
        <time>2009-08-26T08:01:26Z</time>
      </trkpt>
      <trkpt lat="50.689167" lon="6.480832">
        <ele>263.540000</ele>
        <time>2009-08-26T08:01:52Z</time>
      </trkpt>
      <trkpt lat="50.689181" lon="6.480992">
        <ele>264.020000</ele>
        <time>2009-08-26T08:02:09Z</time>
      </trkpt>
      <trkpt lat="50.689165" lon="6.481041">
        <ele>264.020000</ele>
        <time>2009-08-26T08:02:12Z</time>
      </trkpt>
      <trkpt lat="50.689133" lon="6.481271">
        <ele>263.060000</ele>
        <time>2009-08-26T08:02:26Z</time>
      </trkpt>
      <trkpt lat="50.689134" lon="6.481561">
        <ele>262.580000</ele>
        <time>2009-08-26T08:02:37Z</time>
      </trkpt>
      <trkpt lat="50.689130" lon="6.481608">
        <ele>262.580000</ele>
        <time>2009-08-26T08:02:40Z</time>
      </trkpt>
      <trkpt lat="50.689089" lon="6.481829">
        <ele>263.060000</ele>
        <time>2009-08-26T08:02:53Z</time>
      </trkpt>
      <trkpt lat="50.689097" lon="6.481847">
        <ele>263.060000</ele>
        <time>2009-08-26T08:02:54Z</time>
      </trkpt>
      <trkpt lat="50.689111" lon="6.481923">
        <ele>263.060000</ele>
        <time>2009-08-26T08:02:59Z</time>
      </trkpt>
      <trkpt lat="50.689135" lon="6.481991">
        <ele>262.580000</ele>
        <time>2009-08-26T08:03:03Z</time>
      </trkpt>
      <trkpt lat="50.689193" lon="6.482030">
        <ele>263.060000</ele>
        <time>2009-08-26T08:03:20Z</time>
      </trkpt>
      <trkpt lat="50.689157" lon="6.482000">
        <ele>263.540000</ele>
        <time>2009-08-26T08:03:32Z</time>
      </trkpt>
      <trkpt lat="50.689140" lon="6.481856">
        <ele>264.500000</ele>
        <time>2009-08-26T08:03:39Z</time>
      </trkpt>
      <trkpt lat="50.689134" lon="6.481783">
        <ele>264.980000</ele>
        <time>2009-08-26T08:03:42Z</time>
      </trkpt>
      <trkpt lat="50.689179" lon="6.481495">
        <ele>264.980000</ele>
        <time>2009-08-26T08:03:57Z</time>
      </trkpt>
      <trkpt lat="50.689141" lon="6.481310">
        <ele>266.420000</ele>
        <time>2009-08-26T08:04:06Z</time>
      </trkpt>
      <trkpt lat="50.689120" lon="6.481257">
        <ele>266.900000</ele>
        <time>2009-08-26T08:04:10Z</time>
      </trkpt>
      <trkpt lat="50.689125" lon="6.481126">
        <ele>268.350000</ele>
        <time>2009-08-26T08:04:16Z</time>
      </trkpt>
      <trkpt lat="50.689175" lon="6.480929">
        <ele>268.830000</ele>
        <time>2009-08-26T08:04:24Z</time>
      </trkpt>
      <trkpt lat="50.689167" lon="6.480886">
        <ele>268.830000</ele>
        <time>2009-08-26T08:04:28Z</time>
      </trkpt>
      <trkpt lat="50.689142" lon="6.480707">
        <ele>268.830000</ele>
        <time>2009-08-26T08:04:36Z</time>
      </trkpt>
      <trkpt lat="50.689137" lon="6.480359">
        <ele>267.380000</ele>
        <time>2009-08-26T08:04:52Z</time>
      </trkpt>
      <trkpt lat="50.689110" lon="6.480113">
        <ele>265.460000</ele>
        <time>2009-08-26T08:05:06Z</time>
      </trkpt>
      <trkpt lat="50.689098" lon="6.480063">
        <ele>265.460000</ele>
        <time>2009-08-26T08:05:09Z</time>
      </trkpt>
      <trkpt lat="50.689074" lon="6.479828">
        <ele>264.500000</ele>
        <time>2009-08-26T08:05:21Z</time>
      </trkpt>
      <trkpt lat="50.689031" lon="6.479541">
        <ele>264.980000</ele>
        <time>2009-08-26T08:05:34Z</time>
      </trkpt>
      <trkpt lat="50.688976" lon="6.479286">
        <ele>265.460000</ele>
        <time>2009-08-26T08:05:46Z</time>
      </trkpt>
      <trkpt lat="50.688887" lon="6.479079">
        <ele>265.940000</ele>
        <time>2009-08-26T08:05:57Z</time>
      </trkpt>
      <trkpt lat="50.688895" lon="6.479035">
        <ele>265.940000</ele>
        <time>2009-08-26T08:05:59Z</time>
      </trkpt>
      <trkpt lat="50.688984" lon="6.478860">
        <ele>269.310000</ele>
        <time>2009-08-26T08:06:13Z</time>
      </trkpt>
      <trkpt lat="50.688995" lon="6.478854">
        <ele>269.310000</ele>
        <time>2009-08-26T08:06:14Z</time>
      </trkpt>
      <trkpt lat="50.689112" lon="6.478690">
        <ele>270.750000</ele>
        <time>2009-08-26T08:06:26Z</time>
      </trkpt>
      <trkpt lat="50.689052" lon="6.478390">
        <ele>271.710000</ele>
        <time>2009-08-26T08:06:40Z</time>
      </trkpt>
      <trkpt lat="50.688958" lon="6.478175">
        <ele>271.710000</ele>
        <time>2009-08-26T08:06:51Z</time>
      </trkpt>
      <trkpt lat="50.688903" lon="6.478060">
        <ele>272.190000</ele>
        <time>2009-08-26T08:06:57Z</time>
      </trkpt>
      <trkpt lat="50.688825" lon="6.477959">
        <ele>272.670000</ele>
        <time>2009-08-26T08:07:04Z</time>
      </trkpt>
      <trkpt lat="50.688754" lon="6.477829">
        <ele>273.150000</ele>
        <time>2009-08-26T08:07:12Z</time>
      </trkpt>
      <trkpt lat="50.688743" lon="6.477751">
        <ele>273.630000</ele>
        <time>2009-08-26T08:07:18Z</time>
      </trkpt>
      <trkpt lat="50.688717" lon="6.477734">
        <ele>273.630000</ele>
        <time>2009-08-26T08:07:20Z</time>
      </trkpt>
      <trkpt lat="50.688667" lon="6.477453">
        <ele>274.590000</ele>
        <time>2009-08-26T08:07:31Z</time>
      </trkpt>
      <trkpt lat="50.688650" lon="6.477424">
        <ele>275.560000</ele>
        <time>2009-08-26T08:07:33Z</time>
      </trkpt>
      <trkpt lat="50.688604" lon="6.477123">
        <ele>278.440000</ele>
        <time>2009-08-26T08:07:48Z</time>
      </trkpt>
      <trkpt lat="50.688610" lon="6.477112">
        <ele>278.920000</ele>
        <time>2009-08-26T08:07:50Z</time>
      </trkpt>
      <trkpt lat="50.688641" lon="6.477076">
        <ele>279.400000</ele>
        <time>2009-08-26T08:07:53Z</time>
      </trkpt>
      <trkpt lat="50.688740" lon="6.476968">
        <ele>281.320000</ele>
        <time>2009-08-26T08:08:03Z</time>
      </trkpt>
      <trkpt lat="50.688753" lon="6.476862">
        <ele>281.320000</ele>
        <time>2009-08-26T08:08:08Z</time>
      </trkpt>
      <trkpt lat="50.688730" lon="6.476786">
        <ele>281.800000</ele>
        <time>2009-08-26T08:08:12Z</time>
      </trkpt>
      <trkpt lat="50.688734" lon="6.476677">
        <ele>281.800000</ele>
        <time>2009-08-26T08:08:20Z</time>
      </trkpt>
      <trkpt lat="50.688744" lon="6.476596">
        <ele>282.280000</ele>
        <time>2009-08-26T08:08:38Z</time>
      </trkpt>
      <trkpt lat="50.688690" lon="6.476921">
        <ele>282.770000</ele>
        <time>2009-08-26T08:08:56Z</time>
      </trkpt>
      <trkpt lat="50.688668" lon="6.476890">
        <ele>284.210000</ele>
        <time>2009-08-26T08:09:31Z</time>
      </trkpt>
      <trkpt lat="50.688716" lon="6.476947">
        <ele>284.210000</ele>
        <time>2009-08-26T08:09:53Z</time>
      </trkpt>
      <trkpt lat="50.688797" lon="6.476933">
        <ele>285.650000</ele>
        <time>2009-08-26T08:10:07Z</time>
      </trkpt>
      <trkpt lat="50.688786" lon="6.476975">
        <ele>285.650000</ele>
        <time>2009-08-26T08:10:32Z</time>
      </trkpt>
      <trkpt lat="50.688873" lon="6.476995">
        <ele>286.610000</ele>
        <time>2009-08-26T08:10:39Z</time>
      </trkpt>
      <trkpt lat="50.688939" lon="6.477007">
        <ele>288.050000</ele>
        <time>2009-08-26T08:10:52Z</time>
      </trkpt>
      <trkpt lat="50.688920" lon="6.477026">
        <ele>288.050000</ele>
        <time>2009-08-26T08:10:55Z</time>
      </trkpt>
      <trkpt lat="50.688789" lon="6.477050">
        <ele>287.090000</ele>
        <time>2009-08-26T08:11:09Z</time>
      </trkpt>
      <trkpt lat="50.688623" lon="6.477094">
        <ele>284.690000</ele>
        <time>2009-08-26T08:11:28Z</time>
      </trkpt>
      <trkpt lat="50.688619" lon="6.477356">
        <ele>283.250000</ele>
        <time>2009-08-26T08:11:41Z</time>
      </trkpt>
      <trkpt lat="50.688684" lon="6.477589">
        <ele>281.320000</ele>
        <time>2009-08-26T08:11:55Z</time>
      </trkpt>
      <trkpt lat="50.688770" lon="6.477847">
        <ele>281.320000</ele>
        <time>2009-08-26T08:12:08Z</time>
      </trkpt>
      <trkpt lat="50.688880" lon="6.478058">
        <ele>281.320000</ele>
        <time>2009-08-26T08:12:18Z</time>
      </trkpt>
      <trkpt lat="50.688925" lon="6.478039">
        <ele>281.800000</ele>
        <time>2009-08-26T08:12:20Z</time>
      </trkpt>
      <trkpt lat="50.689050" lon="6.477911">
        <ele>281.800000</ele>
        <time>2009-08-26T08:12:34Z</time>
      </trkpt>
      <trkpt lat="50.689140" lon="6.477500">
        <ele>282.280000</ele>
        <time>2009-08-26T08:12:57Z</time>
      </trkpt>
      <trkpt lat="50.689151" lon="6.477461">
        <ele>282.280000</ele>
        <time>2009-08-26T08:12:59Z</time>
      </trkpt>
      <trkpt lat="50.689116" lon="6.477230">
        <ele>282.770000</ele>
        <time>2009-08-26T08:13:15Z</time>
      </trkpt>
      <trkpt lat="50.689050" lon="6.476930">
        <ele>283.250000</ele>
        <time>2009-08-26T08:13:28Z</time>
      </trkpt>
      <trkpt lat="50.688982" lon="6.476785">
        <ele>284.210000</ele>
        <time>2009-08-26T08:13:35Z</time>
      </trkpt>
      <trkpt lat="50.688918" lon="6.476524">
        <ele>284.210000</ele>
        <time>2009-08-26T08:13:50Z</time>
      </trkpt>
      <trkpt lat="50.688833" lon="6.476221">
        <ele>284.690000</ele>
        <time>2009-08-26T08:14:06Z</time>
      </trkpt>
      <trkpt lat="50.688824" lon="6.476185">
        <ele>285.170000</ele>
        <time>2009-08-26T08:14:08Z</time>
      </trkpt>
      <trkpt lat="50.688783" lon="6.476063">
        <ele>285.170000</ele>
        <time>2009-08-26T08:14:14Z</time>
      </trkpt>
      <trkpt lat="50.688692" lon="6.475938">
        <ele>287.090000</ele>
        <time>2009-08-26T08:14:30Z</time>
      </trkpt>
      <trkpt lat="50.688641" lon="6.475904">
        <ele>287.570000</ele>
        <time>2009-08-26T08:14:48Z</time>
      </trkpt>
      <trkpt lat="50.688562" lon="6.476111">
        <ele>288.050000</ele>
        <time>2009-08-26T08:15:19Z</time>
      </trkpt>
      <trkpt lat="50.688539" lon="6.476102">
        <ele>288.050000</ele>
        <time>2009-08-26T08:15:42Z</time>
      </trkpt>
      <trkpt lat="50.688507" lon="6.476070">
        <ele>287.570000</ele>
        <time>2009-08-26T08:16:01Z</time>
      </trkpt>
      <trkpt lat="50.688460" lon="6.476130">
        <ele>286.610000</ele>
        <time>2009-08-26T08:16:18Z</time>
      </trkpt>
      <trkpt lat="50.688400" lon="6.476162">
        <ele>286.610000</ele>
        <time>2009-08-26T08:16:35Z</time>
      </trkpt>
      <trkpt lat="50.688391" lon="6.476199">
        <ele>286.130000</ele>
        <time>2009-08-26T08:16:51Z</time>
      </trkpt>
      <trkpt lat="50.688444" lon="6.476312">
        <ele>287.090000</ele>
        <time>2009-08-26T08:17:08Z</time>
      </trkpt>
      <trkpt lat="50.688402" lon="6.476261">
        <ele>287.090000</ele>
        <time>2009-08-26T08:17:30Z</time>
      </trkpt>
      <trkpt lat="50.688483" lon="6.476189">
        <ele>289.010000</ele>
        <time>2009-08-26T08:17:48Z</time>
      </trkpt>
      <trkpt lat="50.688528" lon="6.476096">
        <ele>291.420000</ele>
        <time>2009-08-26T08:18:06Z</time>
      </trkpt>
      <trkpt lat="50.688611" lon="6.476112">
        <ele>292.860000</ele>
        <time>2009-08-26T08:18:18Z</time>
      </trkpt>
      <trkpt lat="50.688744" lon="6.475962">
        <ele>292.860000</ele>
        <time>2009-08-26T08:18:32Z</time>
      </trkpt>
      <trkpt lat="50.688764" lon="6.475980">
        <ele>292.860000</ele>
        <time>2009-08-26T08:18:35Z</time>
      </trkpt>
      <trkpt lat="50.688816" lon="6.476075">
        <ele>291.420000</ele>
        <time>2009-08-26T08:18:41Z</time>
      </trkpt>
      <trkpt lat="50.688827" lon="6.476160">
        <ele>291.420000</ele>
        <time>2009-08-26T08:18:45Z</time>
      </trkpt>
      <trkpt lat="50.688836" lon="6.476389">
        <ele>291.420000</ele>
        <time>2009-08-26T08:18:54Z</time>
      </trkpt>
      <trkpt lat="50.688906" lon="6.476665">
        <ele>291.420000</ele>
        <time>2009-08-26T08:19:07Z</time>
      </trkpt>
      <trkpt lat="50.688935" lon="6.476779">
        <ele>291.420000</ele>
        <time>2009-08-26T08:19:12Z</time>
      </trkpt>
      <trkpt lat="50.688951" lon="6.476867">
        <ele>291.420000</ele>
        <time>2009-08-26T08:19:17Z</time>
      </trkpt>
      <trkpt lat="50.689006" lon="6.477002">
        <ele>291.420000</ele>
        <time>2009-08-26T08:19:24Z</time>
      </trkpt>
      <trkpt lat="50.689028" lon="6.477045">
        <ele>290.940000</ele>
        <time>2009-08-26T08:19:26Z</time>
      </trkpt>
      <trkpt lat="50.689114" lon="6.477338">
        <ele>291.420000</ele>
        <time>2009-08-26T08:19:40Z</time>
      </trkpt>
      <trkpt lat="50.689076" lon="6.477521">
        <ele>291.420000</ele>
        <time>2009-08-26T08:19:48Z</time>
      </trkpt>
      <trkpt lat="50.688939" lon="6.477737">
        <ele>291.420000</ele>
        <time>2009-08-26T08:20:02Z</time>
      </trkpt>
      <trkpt lat="50.688974" lon="6.478085">
        <ele>292.380000</ele>
        <time>2009-08-26T08:20:25Z</time>
      </trkpt>
      <trkpt lat="50.688976" lon="6.478242">
        <ele>291.900000</ele>
        <time>2009-08-26T08:20:36Z</time>
      </trkpt>
      <trkpt lat="50.689030" lon="6.478465">
        <ele>291.900000</ele>
        <time>2009-08-26T08:20:46Z</time>
      </trkpt>
      <trkpt lat="50.689100" lon="6.478549">
        <ele>291.900000</ele>
        <time>2009-08-26T08:20:51Z</time>
      </trkpt>
      <trkpt lat="50.689132" lon="6.478745">
        <ele>292.380000</ele>
        <time>2009-08-26T08:21:00Z</time>
      </trkpt>
      <trkpt lat="50.689258" lon="6.478989">
        <ele>293.820000</ele>
        <time>2009-08-26T08:21:17Z</time>
      </trkpt>
      <trkpt lat="50.689323" lon="6.479253">
        <ele>294.780000</ele>
        <time>2009-08-26T08:21:37Z</time>
      </trkpt>
      <trkpt lat="50.689313" lon="6.479425">
        <ele>295.260000</ele>
        <time>2009-08-26T08:21:44Z</time>
      </trkpt>
      <trkpt lat="50.689369" lon="6.479763">
        <ele>295.740000</ele>
        <time>2009-08-26T08:21:59Z</time>
      </trkpt>
      <trkpt lat="50.689378" lon="6.479900">
        <ele>296.220000</ele>
        <time>2009-08-26T08:22:06Z</time>
      </trkpt>
      <trkpt lat="50.689393" lon="6.480152">
        <ele>296.700000</ele>
        <time>2009-08-26T08:22:19Z</time>
      </trkpt>
      <trkpt lat="50.689368" lon="6.480375">
        <ele>296.220000</ele>
        <time>2009-08-26T08:22:34Z</time>
      </trkpt>
      <trkpt lat="50.689286" lon="6.480688">
        <ele>296.220000</ele>
        <time>2009-08-26T08:23:02Z</time>
      </trkpt>
      <trkpt lat="50.689226" lon="6.480881">
        <ele>296.220000</ele>
        <time>2009-08-26T08:23:13Z</time>
      </trkpt>
      <trkpt lat="50.689193" lon="6.480941">
        <ele>296.220000</ele>
        <time>2009-08-26T08:23:17Z</time>
      </trkpt>
      <trkpt lat="50.689175" lon="6.480962">
        <ele>295.740000</ele>
        <time>2009-08-26T08:23:19Z</time>
      </trkpt>
      <trkpt lat="50.689203" lon="6.481233">
        <ele>295.260000</ele>
        <time>2009-08-26T08:23:32Z</time>
      </trkpt>
      <trkpt lat="50.689174" lon="6.481386">
        <ele>293.820000</ele>
        <time>2009-08-26T08:23:40Z</time>
      </trkpt>
      <trkpt lat="50.689245" lon="6.481459">
        <ele>293.820000</ele>
        <time>2009-08-26T08:23:46Z</time>
      </trkpt>
      <trkpt lat="50.689433" lon="6.481508">
        <ele>291.420000</ele>
        <time>2009-08-26T08:24:03Z</time>
      </trkpt>
      <trkpt lat="50.689491" lon="6.481478">
        <ele>290.940000</ele>
        <time>2009-08-26T08:24:07Z</time>
      </trkpt>
      <trkpt lat="50.689496" lon="6.481492">
        <ele>290.460000</ele>
        <time>2009-08-26T08:24:09Z</time>
      </trkpt>
      <trkpt lat="50.689535" lon="6.481580">
        <ele>290.460000</ele>
        <time>2009-08-26T08:24:14Z</time>
      </trkpt>
      <trkpt lat="50.689651" lon="6.481714">
        <ele>289.010000</ele>
        <time>2009-08-26T08:24:25Z</time>
      </trkpt>
      <trkpt lat="50.689650" lon="6.481728">
        <ele>289.970000</ele>
        <time>2009-08-26T08:24:39Z</time>
      </trkpt>
      <trkpt lat="50.689690" lon="6.481810">
        <ele>290.460000</ele>
        <time>2009-08-26T08:24:53Z</time>
      </trkpt>
      <trkpt lat="50.689683" lon="6.481830">
        <ele>290.460000</ele>
        <time>2009-08-26T08:24:56Z</time>
      </trkpt>
      <trkpt lat="50.689587" lon="6.481800">
        <ele>290.460000</ele>
        <time>2009-08-26T08:25:04Z</time>
      </trkpt>
      <trkpt lat="50.689578" lon="6.481865">
        <ele>290.460000</ele>
        <time>2009-08-26T08:25:12Z</time>
      </trkpt>
      <trkpt lat="50.689613" lon="6.481830">
        <ele>290.940000</ele>
        <time>2009-08-26T08:25:27Z</time>
      </trkpt>
      <trkpt lat="50.689754" lon="6.481747">
        <ele>289.970000</ele>
        <time>2009-08-26T08:25:37Z</time>
      </trkpt>
      <trkpt lat="50.689802" lon="6.481684">
        <ele>289.490000</ele>
        <time>2009-08-26T08:25:45Z</time>
      </trkpt>
      <trkpt lat="50.689850" lon="6.481672">
        <ele>289.970000</ele>
        <time>2009-08-26T08:26:03Z</time>
      </trkpt>
      <trkpt lat="50.689922" lon="6.481515">
        <ele>291.420000</ele>
        <time>2009-08-26T08:27:07Z</time>
      </trkpt>
      <trkpt lat="50.690067" lon="6.481332">
        <ele>290.460000</ele>
        <time>2009-08-26T08:27:22Z</time>
      </trkpt>
      <trkpt lat="50.690113" lon="6.481287">
        <ele>289.490000</ele>
        <time>2009-08-26T08:27:32Z</time>
      </trkpt>
      <trkpt lat="50.690127" lon="6.481170">
        <ele>290.940000</ele>
        <time>2009-08-26T08:27:51Z</time>
      </trkpt>
      <trkpt lat="50.690179" lon="6.481061">
        <ele>291.420000</ele>
        <time>2009-08-26T08:27:55Z</time>
      </trkpt>
      <trkpt lat="50.690236" lon="6.480924">
        <ele>290.460000</ele>
        <time>2009-08-26T08:28:02Z</time>
      </trkpt>
      <trkpt lat="50.690387" lon="6.480725">
        <ele>289.490000</ele>
        <time>2009-08-26T08:28:16Z</time>
      </trkpt>
      <trkpt lat="50.690501" lon="6.480669">
        <ele>288.530000</ele>
        <time>2009-08-26T08:28:23Z</time>
      </trkpt>
      <trkpt lat="50.690614" lon="6.480451">
        <ele>287.570000</ele>
        <time>2009-08-26T08:28:36Z</time>
      </trkpt>
      <trkpt lat="50.690707" lon="6.480304">
        <ele>286.130000</ele>
        <time>2009-08-26T08:28:47Z</time>
      </trkpt>
      <trkpt lat="50.690748" lon="6.480159">
        <ele>285.650000</ele>
        <time>2009-08-26T08:28:54Z</time>
      </trkpt>
      <trkpt lat="50.690689" lon="6.480004">
        <ele>284.690000</ele>
        <time>2009-08-26T08:29:01Z</time>
      </trkpt>
      <trkpt lat="50.690632" lon="6.479902">
        <ele>284.210000</ele>
        <time>2009-08-26T08:29:07Z</time>
      </trkpt>
      <trkpt lat="50.690622" lon="6.479720">
        <ele>282.770000</ele>
        <time>2009-08-26T08:29:15Z</time>
      </trkpt>
      <trkpt lat="50.690570" lon="6.479577">
        <ele>284.210000</ele>
        <time>2009-08-26T08:29:28Z</time>
      </trkpt>
      <trkpt lat="50.690499" lon="6.479513">
        <ele>286.610000</ele>
        <time>2009-08-26T08:29:36Z</time>
      </trkpt>
      <trkpt lat="50.690346" lon="6.479373">
        <ele>288.050000</ele>
        <time>2009-08-26T08:29:49Z</time>
      </trkpt>
      <trkpt lat="50.690159" lon="6.479190">
        <ele>290.460000</ele>
        <time>2009-08-26T08:30:03Z</time>
      </trkpt>
      <trkpt lat="50.690004" lon="6.478880">
        <ele>293.340000</ele>
        <time>2009-08-26T08:30:23Z</time>
      </trkpt>
      <trkpt lat="50.689972" lon="6.478857">
        <ele>293.340000</ele>
        <time>2009-08-26T08:30:26Z</time>
      </trkpt>
      <trkpt lat="50.689794" lon="6.478558">
        <ele>294.300000</ele>
        <time>2009-08-26T08:30:47Z</time>
      </trkpt>
      <trkpt lat="50.689634" lon="6.478350">
        <ele>294.780000</ele>
        <time>2009-08-26T08:31:02Z</time>
      </trkpt>
      <trkpt lat="50.689469" lon="6.478060">
        <ele>296.700000</ele>
        <time>2009-08-26T08:31:20Z</time>
      </trkpt>
      <trkpt lat="50.689297" lon="6.477796">
        <ele>299.590000</ele>
        <time>2009-08-26T08:31:41Z</time>
      </trkpt>
      <trkpt lat="50.689243" lon="6.477702">
        <ele>301.510000</ele>
        <time>2009-08-26T08:31:58Z</time>
      </trkpt>
      <trkpt lat="50.689276" lon="6.477563">
        <ele>300.550000</ele>
        <time>2009-08-26T08:32:21Z</time>
      </trkpt>
      <trkpt lat="50.689293" lon="6.477294">
        <ele>299.110000</ele>
        <time>2009-08-26T08:32:47Z</time>
      </trkpt>
      <trkpt lat="50.689270" lon="6.477172">
        <ele>299.110000</ele>
        <time>2009-08-26T08:33:02Z</time>
      </trkpt>
      <trkpt lat="50.689239" lon="6.477008">
        <ele>298.150000</ele>
        <time>2009-08-26T08:33:19Z</time>
      </trkpt>
      <trkpt lat="50.689173" lon="6.476639">
        <ele>298.150000</ele>
        <time>2009-08-26T08:33:40Z</time>
      </trkpt>
      <trkpt lat="50.689183" lon="6.476491">
        <ele>298.630000</ele>
        <time>2009-08-26T08:33:46Z</time>
      </trkpt>
      <trkpt lat="50.689065" lon="6.476323">
        <ele>298.630000</ele>
        <time>2009-08-26T08:33:56Z</time>
      </trkpt>
      <trkpt lat="50.689107" lon="6.475924">
        <ele>298.150000</ele>
        <time>2009-08-26T08:34:13Z</time>
      </trkpt>
      <trkpt lat="50.689118" lon="6.475733">
        <ele>297.180000</ele>
        <time>2009-08-26T08:34:21Z</time>
      </trkpt>
      <trkpt lat="50.689060" lon="6.475616">
        <ele>297.180000</ele>
        <time>2009-08-26T08:34:27Z</time>
      </trkpt>
      <trkpt lat="50.688950" lon="6.475529">
        <ele>296.700000</ele>
        <time>2009-08-26T08:34:36Z</time>
      </trkpt>
      <trkpt lat="50.688744" lon="6.475535">
        <ele>293.340000</ele>
        <time>2009-08-26T08:34:52Z</time>
      </trkpt>
      <trkpt lat="50.688709" lon="6.475534">
        <ele>292.860000</ele>
        <time>2009-08-26T08:34:56Z</time>
      </trkpt>
      <trkpt lat="50.688643" lon="6.475455">
        <ele>293.340000</ele>
        <time>2009-08-26T08:35:00Z</time>
      </trkpt>
      <trkpt lat="50.688544" lon="6.475409">
        <ele>293.820000</ele>
        <time>2009-08-26T08:35:15Z</time>
      </trkpt>
      <trkpt lat="50.688562" lon="6.475462">
        <ele>294.780000</ele>
        <time>2009-08-26T08:35:43Z</time>
      </trkpt>
      <trkpt lat="50.688538" lon="6.475485">
        <ele>294.300000</ele>
        <time>2009-08-26T08:35:52Z</time>
      </trkpt>
      <trkpt lat="50.688433" lon="6.475509">
        <ele>292.860000</ele>
        <time>2009-08-26T08:36:13Z</time>
      </trkpt>
      <trkpt lat="50.688405" lon="6.475546">
        <ele>292.380000</ele>
        <time>2009-08-26T08:36:37Z</time>
      </trkpt>
      <trkpt lat="50.688434" lon="6.475575">
        <ele>292.860000</ele>
        <time>2009-08-26T08:37:02Z</time>
      </trkpt>
      <trkpt lat="50.688459" lon="6.475628">
        <ele>294.300000</ele>
        <time>2009-08-26T08:37:22Z</time>
      </trkpt>
      <trkpt lat="50.688451" lon="6.475750">
        <ele>293.340000</ele>
        <time>2009-08-26T08:37:37Z</time>
      </trkpt>
      <trkpt lat="50.688385" lon="6.475817">
        <ele>294.300000</ele>
        <time>2009-08-26T08:37:54Z</time>
      </trkpt>
      <trkpt lat="50.688345" lon="6.476006">
        <ele>295.260000</ele>
        <time>2009-08-26T08:38:31Z</time>
      </trkpt>
      <trkpt lat="50.688234" lon="6.476292">
        <ele>294.780000</ele>
        <time>2009-08-26T08:38:47Z</time>
      </trkpt>
      <trkpt lat="50.688229" lon="6.476352">
        <ele>294.300000</ele>
        <time>2009-08-26T08:38:55Z</time>
      </trkpt>
      <trkpt lat="50.688231" lon="6.476449">
        <ele>294.300000</ele>
        <time>2009-08-26T08:39:02Z</time>
      </trkpt>
      <trkpt lat="50.688195" lon="6.476553">
        <ele>294.300000</ele>
        <time>2009-08-26T08:39:17Z</time>
      </trkpt>
      <trkpt lat="50.688175" lon="6.476556">
        <ele>293.820000</ele>
        <time>2009-08-26T08:40:08Z</time>
      </trkpt>
      <trkpt lat="50.688119" lon="6.476626">
        <ele>292.860000</ele>
        <time>2009-08-26T08:40:55Z</time>
      </trkpt>
      <trkpt lat="50.688139" lon="6.476706">
        <ele>292.380000</ele>
        <time>2009-08-26T08:41:39Z</time>
      </trkpt>
      <trkpt lat="50.688204" lon="6.476701">
        <ele>292.380000</ele>
        <time>2009-08-26T08:41:57Z</time>
      </trkpt>
      <trkpt lat="50.688230" lon="6.476840">
        <ele>289.970000</ele>
        <time>2009-08-26T08:42:09Z</time>
      </trkpt>
      <trkpt lat="50.688188" lon="6.477024">
        <ele>288.530000</ele>
        <time>2009-08-26T08:42:30Z</time>
      </trkpt>
      <trkpt lat="50.688140" lon="6.477264">
        <ele>288.050000</ele>
        <time>2009-08-26T08:42:53Z</time>
      </trkpt>
      <trkpt lat="50.688157" lon="6.477383">
        <ele>288.050000</ele>
        <time>2009-08-26T08:43:10Z</time>
      </trkpt>
      <trkpt lat="50.688195" lon="6.477595">
        <ele>289.010000</ele>
        <time>2009-08-26T08:43:35Z</time>
      </trkpt>
      <trkpt lat="50.688205" lon="6.477638">
        <ele>289.010000</ele>
        <time>2009-08-26T08:43:37Z</time>
      </trkpt>
      <trkpt lat="50.688123" lon="6.477936">
        <ele>288.050000</ele>
        <time>2009-08-26T08:43:52Z</time>
      </trkpt>
      <trkpt lat="50.688102" lon="6.478128">
        <ele>288.050000</ele>
        <time>2009-08-26T08:44:02Z</time>
      </trkpt>
      <trkpt lat="50.688021" lon="6.478397">
        <ele>288.050000</ele>
        <time>2009-08-26T08:44:14Z</time>
      </trkpt>
      <trkpt lat="50.688103" lon="6.478599">
        <ele>289.490000</ele>
        <time>2009-08-26T08:44:28Z</time>
      </trkpt>
      <trkpt lat="50.688183" lon="6.478685">
        <ele>292.860000</ele>
        <time>2009-08-26T08:44:40Z</time>
      </trkpt>
      <trkpt lat="50.688214" lon="6.478727">
        <ele>293.340000</ele>
        <time>2009-08-26T08:44:43Z</time>
      </trkpt>
      <trkpt lat="50.688329" lon="6.478779">
        <ele>296.700000</ele>
        <time>2009-08-26T08:45:03Z</time>
      </trkpt>
      <trkpt lat="50.688469" lon="6.478889">
        <ele>299.110000</ele>
        <time>2009-08-26T08:45:23Z</time>
      </trkpt>
      <trkpt lat="50.688604" lon="6.479158">
        <ele>300.550000</ele>
        <time>2009-08-26T08:45:43Z</time>
      </trkpt>
      <trkpt lat="50.688722" lon="6.479484">
        <ele>301.030000</ele>
        <time>2009-08-26T08:46:05Z</time>
      </trkpt>
      <trkpt lat="50.688863" lon="6.479803">
        <ele>301.990000</ele>
        <time>2009-08-26T08:46:26Z</time>
      </trkpt>
      <trkpt lat="50.688932" lon="6.480012">
        <ele>302.470000</ele>
        <time>2009-08-26T08:46:43Z</time>
      </trkpt>
      <trkpt lat="50.688805" lon="6.479611">
        <ele>301.510000</ele>
        <time>2009-08-26T08:47:05Z</time>
      </trkpt>
      <trkpt lat="50.688653" lon="6.479296">
        <ele>301.030000</ele>
        <time>2009-08-26T08:47:23Z</time>
      </trkpt>
      <trkpt lat="50.688418" lon="6.478939">
        <ele>299.590000</ele>
        <time>2009-08-26T08:47:44Z</time>
      </trkpt>
      <trkpt lat="50.688311" lon="6.478893">
        <ele>296.700000</ele>
        <time>2009-08-26T08:47:58Z</time>
      </trkpt>
      <trkpt lat="50.688186" lon="6.478770">
        <ele>293.820000</ele>
        <time>2009-08-26T08:48:12Z</time>
      </trkpt>
      <trkpt lat="50.688045" lon="6.478576">
        <ele>290.460000</ele>
        <time>2009-08-26T08:48:24Z</time>
      </trkpt>
      <trkpt lat="50.687990" lon="6.478659">
        <ele>288.050000</ele>
        <time>2009-08-26T08:48:39Z</time>
      </trkpt>
      <trkpt lat="50.688021" lon="6.478807">
        <ele>285.170000</ele>
        <time>2009-08-26T08:48:57Z</time>
      </trkpt>
      <trkpt lat="50.687875" lon="6.478742">
        <ele>281.800000</ele>
        <time>2009-08-26T08:49:12Z</time>
      </trkpt>
      <trkpt lat="50.687857" lon="6.478681">
        <ele>281.320000</ele>
        <time>2009-08-26T08:49:15Z</time>
      </trkpt>
      <trkpt lat="50.687869" lon="6.478802">
        <ele>278.920000</ele>
        <time>2009-08-26T08:49:26Z</time>
      </trkpt>
      <trkpt lat="50.687835" lon="6.478838">
        <ele>277.960000</ele>
        <time>2009-08-26T08:49:30Z</time>
      </trkpt>
      <trkpt lat="50.687805" lon="6.478882">
        <ele>276.040000</ele>
        <time>2009-08-26T08:49:41Z</time>
      </trkpt>
      <trkpt lat="50.687929" lon="6.479251">
        <ele>274.110000</ele>
        <time>2009-08-26T08:50:00Z</time>
      </trkpt>
      <trkpt lat="50.688128" lon="6.479689">
        <ele>273.150000</ele>
        <time>2009-08-26T08:50:20Z</time>
      </trkpt>
      <trkpt lat="50.688222" lon="6.479997">
        <ele>270.270000</ele>
        <time>2009-08-26T08:50:38Z</time>
      </trkpt>
      <trkpt lat="50.688360" lon="6.480244">
        <ele>270.270000</ele>
        <time>2009-08-26T08:50:54Z</time>
      </trkpt>
      <trkpt lat="50.688417" lon="6.480545">
        <ele>268.350000</ele>
        <time>2009-08-26T08:51:17Z</time>
      </trkpt>
      <trkpt lat="50.688300" lon="6.480493">
        <ele>265.460000</ele>
        <time>2009-08-26T08:51:33Z</time>
      </trkpt>
      <trkpt lat="50.688290" lon="6.480583">
        <ele>264.980000</ele>
        <time>2009-08-26T08:51:37Z</time>
      </trkpt>
      <trkpt lat="50.688199" lon="6.480896">
        <ele>262.580000</ele>
        <time>2009-08-26T08:51:58Z</time>
      </trkpt>
      <trkpt lat="50.688085" lon="6.481321">
        <ele>265.460000</ele>
        <time>2009-08-26T08:52:16Z</time>
      </trkpt>
      <trkpt lat="50.688068" lon="6.481705">
        <ele>268.830000</ele>
        <time>2009-08-26T08:52:32Z</time>
      </trkpt>
      <trkpt lat="50.688040" lon="6.481904">
        <ele>271.710000</ele>
        <time>2009-08-26T08:52:44Z</time>
      </trkpt>
      <trkpt lat="50.687973" lon="6.482024">
        <ele>275.070000</ele>
        <time>2009-08-26T08:52:57Z</time>
      </trkpt>
      <trkpt lat="50.687945" lon="6.482047">
        <ele>275.070000</ele>
        <time>2009-08-26T08:52:59Z</time>
      </trkpt>
      <trkpt lat="50.687870" lon="6.482317">
        <ele>278.440000</ele>
        <time>2009-08-26T08:53:15Z</time>
      </trkpt>
      <trkpt lat="50.687742" lon="6.482533">
        <ele>281.320000</ele>
        <time>2009-08-26T08:53:33Z</time>
      </trkpt>
      <trkpt lat="50.687691" lon="6.482761">
        <ele>283.250000</ele>
        <time>2009-08-26T08:53:50Z</time>
      </trkpt>
      <trkpt lat="50.687525" lon="6.482810">
        <ele>284.690000</ele>
        <time>2009-08-26T08:54:12Z</time>
      </trkpt>
      <trkpt lat="50.687280" lon="6.482614">
        <ele>286.610000</ele>
        <time>2009-08-26T08:54:34Z</time>
      </trkpt>
      <trkpt lat="50.687264" lon="6.482525">
        <ele>287.570000</ele>
        <time>2009-08-26T08:54:41Z</time>
      </trkpt>
      <trkpt lat="50.687140" lon="6.482248">
        <ele>288.530000</ele>
        <time>2009-08-26T08:54:52Z</time>
      </trkpt>
      <trkpt lat="50.687155" lon="6.482093">
        <ele>289.490000</ele>
        <time>2009-08-26T08:55:01Z</time>
      </trkpt>
      <trkpt lat="50.687114" lon="6.481947">
        <ele>289.970000</ele>
        <time>2009-08-26T08:55:08Z</time>
      </trkpt>
      <trkpt lat="50.686960" lon="6.481739">
        <ele>292.860000</ele>
        <time>2009-08-26T08:55:23Z</time>
      </trkpt>
      <trkpt lat="50.686935" lon="6.481727">
        <ele>293.340000</ele>
        <time>2009-08-26T08:55:27Z</time>
      </trkpt>
      <trkpt lat="50.686797" lon="6.481769">
        <ele>293.820000</ele>
        <time>2009-08-26T08:55:38Z</time>
      </trkpt>
      <trkpt lat="50.686804" lon="6.481786">
        <ele>293.340000</ele>
        <time>2009-08-26T08:55:39Z</time>
      </trkpt>
      <trkpt lat="50.686720" lon="6.481848">
        <ele>292.380000</ele>
        <time>2009-08-26T08:55:47Z</time>
      </trkpt>
      <trkpt lat="50.686506" lon="6.481796">
        <ele>290.940000</ele>
        <time>2009-08-26T08:56:03Z</time>
      </trkpt>
      <trkpt lat="50.686510" lon="6.481694">
        <ele>290.460000</ele>
        <time>2009-08-26T08:56:07Z</time>
      </trkpt>
      <trkpt lat="50.686506" lon="6.481618">
        <ele>290.460000</ele>
        <time>2009-08-26T08:56:10Z</time>
      </trkpt>
      <trkpt lat="50.686403" lon="6.481481">
        <ele>289.490000</ele>
        <time>2009-08-26T08:56:18Z</time>
      </trkpt>
      <trkpt lat="50.686329" lon="6.481305">
        <ele>288.530000</ele>
        <time>2009-08-26T08:56:30Z</time>
      </trkpt>
      <trkpt lat="50.686211" lon="6.481116">
        <ele>288.050000</ele>
        <time>2009-08-26T08:56:41Z</time>
      </trkpt>
      <trkpt lat="50.686122" lon="6.480914">
        <ele>285.170000</ele>
        <time>2009-08-26T08:56:52Z</time>
      </trkpt>
      <trkpt lat="50.686145" lon="6.480774">
        <ele>284.210000</ele>
        <time>2009-08-26T08:56:58Z</time>
      </trkpt>
      <trkpt lat="50.686099" lon="6.480746">
        <ele>283.730000</ele>
        <time>2009-08-26T08:57:00Z</time>
      </trkpt>
      <trkpt lat="50.686101" lon="6.480600">
        <ele>283.250000</ele>
        <time>2009-08-26T08:57:07Z</time>
      </trkpt>
      <trkpt lat="50.686109" lon="6.480502">
        <ele>282.280000</ele>
        <time>2009-08-26T08:57:11Z</time>
      </trkpt>
      <trkpt lat="50.686105" lon="6.480450">
        <ele>281.800000</ele>
        <time>2009-08-26T08:57:13Z</time>
      </trkpt>
      <trkpt lat="50.686104" lon="6.480376">
        <ele>280.840000</ele>
        <time>2009-08-26T08:57:17Z</time>
      </trkpt>
      <trkpt lat="50.686144" lon="6.480101">
        <ele>279.880000</ele>
        <time>2009-08-26T08:57:28Z</time>
      </trkpt>
      <trkpt lat="50.686182" lon="6.480054">
        <ele>278.920000</ele>
        <time>2009-08-26T08:57:31Z</time>
      </trkpt>
      <trkpt lat="50.686154" lon="6.479951">
        <ele>278.440000</ele>
        <time>2009-08-26T08:57:37Z</time>
      </trkpt>
      <trkpt lat="50.686250" lon="6.479756">
        <ele>277.960000</ele>
        <time>2009-08-26T08:57:44Z</time>
      </trkpt>
      <trkpt lat="50.686222" lon="6.479717">
        <ele>277.960000</ele>
        <time>2009-08-26T08:57:46Z</time>
      </trkpt>
      <trkpt lat="50.686140" lon="6.479550">
        <ele>277.000000</ele>
        <time>2009-08-26T08:57:56Z</time>
      </trkpt>
      <trkpt lat="50.686127" lon="6.479511">
        <ele>276.520000</ele>
        <time>2009-08-26T08:57:59Z</time>
      </trkpt>
      <trkpt lat="50.686072" lon="6.479243">
        <ele>274.590000</ele>
        <time>2009-08-26T08:58:15Z</time>
      </trkpt>
      <trkpt lat="50.685995" lon="6.479167">
        <ele>273.630000</ele>
        <time>2009-08-26T08:58:31Z</time>
      </trkpt>
      <trkpt lat="50.685861" lon="6.479087">
        <ele>274.590000</ele>
        <time>2009-08-26T08:58:47Z</time>
      </trkpt>
      <trkpt lat="50.685605" lon="6.479040">
        <ele>276.520000</ele>
        <time>2009-08-26T08:59:05Z</time>
      </trkpt>
      <trkpt lat="50.685405" lon="6.478699">
        <ele>276.040000</ele>
        <time>2009-08-26T08:59:23Z</time>
      </trkpt>
      <trkpt lat="50.685434" lon="6.478653">
        <ele>275.070000</ele>
        <time>2009-08-26T08:59:31Z</time>
      </trkpt>
      <trkpt lat="50.685281" lon="6.478423">
        <ele>275.560000</ele>
        <time>2009-08-26T08:59:46Z</time>
      </trkpt>
      <trkpt lat="50.685156" lon="6.478309">
        <ele>275.560000</ele>
        <time>2009-08-26T08:59:53Z</time>
      </trkpt>
      <trkpt lat="50.685106" lon="6.478114">
        <ele>276.520000</ele>
        <time>2009-08-26T09:00:07Z</time>
      </trkpt>
      <trkpt lat="50.685049" lon="6.478012">
        <ele>276.520000</ele>
        <time>2009-08-26T09:00:23Z</time>
      </trkpt>
      <trkpt lat="50.685063" lon="6.478010">
        <ele>277.480000</ele>
        <time>2009-08-26T09:00:42Z</time>
      </trkpt>
      <trkpt lat="50.684939" lon="6.477914">
        <ele>276.040000</ele>
        <time>2009-08-26T09:01:02Z</time>
      </trkpt>
      <trkpt lat="50.684944" lon="6.477801">
        <ele>276.040000</ele>
        <time>2009-08-26T09:01:21Z</time>
      </trkpt>
      <trkpt lat="50.684843" lon="6.477726">
        <ele>276.520000</ele>
        <time>2009-08-26T09:01:45Z</time>
      </trkpt>
      <trkpt lat="50.684721" lon="6.477721">
        <ele>277.960000</ele>
        <time>2009-08-26T09:02:01Z</time>
      </trkpt>
      <trkpt lat="50.684621" lon="6.477528">
        <ele>281.320000</ele>
        <time>2009-08-26T09:02:17Z</time>
      </trkpt>
      <trkpt lat="50.684537" lon="6.477434">
        <ele>281.800000</ele>
        <time>2009-08-26T09:02:35Z</time>
      </trkpt>
      <trkpt lat="50.684477" lon="6.477375">
        <ele>279.880000</ele>
        <time>2009-08-26T09:02:56Z</time>
      </trkpt>
      <trkpt lat="50.684549" lon="6.477437">
        <ele>282.280000</ele>
        <time>2009-08-26T09:03:19Z</time>
      </trkpt>
      <trkpt lat="50.684531" lon="6.477622">
        <ele>283.250000</ele>
        <time>2009-08-26T09:03:31Z</time>
      </trkpt>
      <trkpt lat="50.684476" lon="6.477841">
        <ele>284.210000</ele>
        <time>2009-08-26T09:03:42Z</time>
      </trkpt>
      <trkpt lat="50.684487" lon="6.477965">
        <ele>284.690000</ele>
        <time>2009-08-26T09:03:47Z</time>
      </trkpt>
      <trkpt lat="50.684512" lon="6.478166">
        <ele>285.650000</ele>
        <time>2009-08-26T09:03:57Z</time>
      </trkpt>
      <trkpt lat="50.684420" lon="6.478527">
        <ele>286.610000</ele>
        <time>2009-08-26T09:04:15Z</time>
      </trkpt>
      <trkpt lat="50.684402" lon="6.478595">
        <ele>286.610000</ele>
        <time>2009-08-26T09:04:36Z</time>
      </trkpt>
      <trkpt lat="50.684462" lon="6.478863">
        <ele>286.610000</ele>
        <time>2009-08-26T09:04:51Z</time>
      </trkpt>
      <trkpt lat="50.684173" lon="6.478875">
        <ele>285.650000</ele>
        <time>2009-08-26T09:05:21Z</time>
      </trkpt>
      <trkpt lat="50.683817" lon="6.478774">
        <ele>284.210000</ele>
        <time>2009-08-26T09:05:32Z</time>
      </trkpt>
      <trkpt lat="50.683688" lon="6.478647">
        <ele>283.250000</ele>
        <time>2009-08-26T09:05:40Z</time>
      </trkpt>
      <trkpt lat="50.683639" lon="6.478674">
        <ele>283.730000</ele>
        <time>2009-08-26T09:05:44Z</time>
      </trkpt>
      <trkpt lat="50.683513" lon="6.478735">
        <ele>283.730000</ele>
        <time>2009-08-26T09:05:50Z</time>
      </trkpt>
      <trkpt lat="50.683522" lon="6.478812">
        <ele>283.730000</ele>
        <time>2009-08-26T09:05:52Z</time>
      </trkpt>
      <trkpt lat="50.683366" lon="6.478780">
        <ele>283.730000</ele>
        <time>2009-08-26T09:06:06Z</time>
      </trkpt>
      <trkpt lat="50.683106" lon="6.479027">
        <ele>284.210000</ele>
        <time>2009-08-26T09:06:25Z</time>
      </trkpt>
      <trkpt lat="50.683130" lon="6.479134">
        <ele>285.170000</ele>
        <time>2009-08-26T09:06:30Z</time>
      </trkpt>
      <trkpt lat="50.683049" lon="6.479232">
        <ele>285.650000</ele>
        <time>2009-08-26T09:06:36Z</time>
      </trkpt>
      <trkpt lat="50.682955" lon="6.479511">
        <ele>287.570000</ele>
        <time>2009-08-26T09:06:50Z</time>
      </trkpt>
      <trkpt lat="50.682943" lon="6.479555">
        <ele>287.570000</ele>
        <time>2009-08-26T09:06:52Z</time>
      </trkpt>
      <trkpt lat="50.682927" lon="6.479584">
        <ele>287.570000</ele>
        <time>2009-08-26T09:06:54Z</time>
      </trkpt>
      <trkpt lat="50.682958" lon="6.479707">
        <ele>288.050000</ele>
        <time>2009-08-26T09:06:59Z</time>
      </trkpt>
      <trkpt lat="50.683005" lon="6.479761">
        <ele>288.530000</ele>
        <time>2009-08-26T09:07:03Z</time>
      </trkpt>
      <trkpt lat="50.683098" lon="6.479822">
        <ele>288.530000</ele>
        <time>2009-08-26T09:07:16Z</time>
      </trkpt>
      <trkpt lat="50.683160" lon="6.479950">
        <ele>288.530000</ele>
        <time>2009-08-26T09:07:24Z</time>
      </trkpt>
      <trkpt lat="50.683252" lon="6.480090">
        <ele>289.010000</ele>
        <time>2009-08-26T09:07:34Z</time>
      </trkpt>
      <trkpt lat="50.683293" lon="6.480126">
        <ele>289.010000</ele>
        <time>2009-08-26T09:07:38Z</time>
      </trkpt>
      <trkpt lat="50.683293" lon="6.480230">
        <ele>289.490000</ele>
        <time>2009-08-26T09:07:41Z</time>
      </trkpt>
      <trkpt lat="50.683308" lon="6.480284">
        <ele>289.490000</ele>
        <time>2009-08-26T09:07:44Z</time>
      </trkpt>
      <trkpt lat="50.683356" lon="6.480498">
        <ele>289.970000</ele>
        <time>2009-08-26T09:07:53Z</time>
      </trkpt>
      <trkpt lat="50.683402" lon="6.480574">
        <ele>289.970000</ele>
        <time>2009-08-26T09:07:59Z</time>
      </trkpt>
      <trkpt lat="50.683442" lon="6.480665">
        <ele>289.970000</ele>
        <time>2009-08-26T09:08:04Z</time>
      </trkpt>
      <trkpt lat="50.683425" lon="6.480764">
        <ele>289.970000</ele>
        <time>2009-08-26T09:08:08Z</time>
      </trkpt>
      <trkpt lat="50.683400" lon="6.480840">
        <ele>290.460000</ele>
        <time>2009-08-26T09:08:11Z</time>
      </trkpt>
      <trkpt lat="50.683369" lon="6.481038">
        <ele>290.940000</ele>
        <time>2009-08-26T09:08:17Z</time>
      </trkpt>
      <trkpt lat="50.683341" lon="6.481133">
        <ele>291.420000</ele>
        <time>2009-08-26T09:08:24Z</time>
      </trkpt>
      <trkpt lat="50.683248" lon="6.481264">
        <ele>291.420000</ele>
        <time>2009-08-26T09:08:31Z</time>
      </trkpt>
      <trkpt lat="50.683186" lon="6.481390">
        <ele>291.900000</ele>
        <time>2009-08-26T09:08:44Z</time>
      </trkpt>
      <trkpt lat="50.683207" lon="6.481405">
        <ele>291.420000</ele>
        <time>2009-08-26T09:09:03Z</time>
      </trkpt>
      <trkpt lat="50.683206" lon="6.481437">
        <ele>292.380000</ele>
        <time>2009-08-26T09:09:09Z</time>
      </trkpt>
      <trkpt lat="50.683381" lon="6.481749">
        <ele>295.260000</ele>
        <time>2009-08-26T09:09:28Z</time>
      </trkpt>
      <trkpt lat="50.683422" lon="6.481869">
        <ele>298.630000</ele>
        <time>2009-08-26T09:09:39Z</time>
      </trkpt>
      <trkpt lat="50.683522" lon="6.482017">
        <ele>301.990000</ele>
        <time>2009-08-26T09:09:52Z</time>
      </trkpt>
      <trkpt lat="50.683567" lon="6.482023">
        <ele>302.470000</ele>
        <time>2009-08-26T09:09:55Z</time>
      </trkpt>
      <trkpt lat="50.683662" lon="6.482207">
        <ele>305.840000</ele>
        <time>2009-08-26T09:10:09Z</time>
      </trkpt>
      <trkpt lat="50.683702" lon="6.482272">
        <ele>308.720000</ele>
        <time>2009-08-26T09:10:25Z</time>
      </trkpt>
      <trkpt lat="50.683669" lon="6.482144">
        <ele>312.090000</ele>
        <time>2009-08-26T09:10:39Z</time>
      </trkpt>
      <trkpt lat="50.683646" lon="6.481995">
        <ele>314.970000</ele>
        <time>2009-08-26T09:10:57Z</time>
      </trkpt>
      <trkpt lat="50.683761" lon="6.481813">
        <ele>318.330000</ele>
        <time>2009-08-26T09:11:12Z</time>
      </trkpt>
      <trkpt lat="50.683763" lon="6.481564">
        <ele>320.260000</ele>
        <time>2009-08-26T09:11:30Z</time>
      </trkpt>
      <trkpt lat="50.683784" lon="6.481544">
        <ele>320.740000</ele>
        <time>2009-08-26T09:11:32Z</time>
      </trkpt>
      <trkpt lat="50.683902" lon="6.481181">
        <ele>321.220000</ele>
        <time>2009-08-26T09:11:53Z</time>
      </trkpt>
      <trkpt lat="50.683856" lon="6.480840">
        <ele>321.700000</ele>
        <time>2009-08-26T09:12:11Z</time>
      </trkpt>
      <trkpt lat="50.683858" lon="6.480810">
        <ele>321.700000</ele>
        <time>2009-08-26T09:12:12Z</time>
      </trkpt>
      <trkpt lat="50.683872" lon="6.480600">
        <ele>322.180000</ele>
        <time>2009-08-26T09:12:20Z</time>
      </trkpt>
      <trkpt lat="50.683803" lon="6.480389">
        <ele>321.700000</ele>
        <time>2009-08-26T09:12:32Z</time>
      </trkpt>
      <trkpt lat="50.683802" lon="6.480097">
        <ele>321.700000</ele>
        <time>2009-08-26T09:12:46Z</time>
      </trkpt>
      <trkpt lat="50.683819" lon="6.479736">
        <ele>321.700000</ele>
        <time>2009-08-26T09:13:05Z</time>
      </trkpt>
      <trkpt lat="50.683650" lon="6.479632">
        <ele>321.220000</ele>
        <time>2009-08-26T09:13:30Z</time>
      </trkpt>
      <trkpt lat="50.683633" lon="6.479622">
        <ele>321.220000</ele>
        <time>2009-08-26T09:13:31Z</time>
      </trkpt>
      <trkpt lat="50.683530" lon="6.479483">
        <ele>321.220000</ele>
        <time>2009-08-26T09:13:42Z</time>
      </trkpt>
      <trkpt lat="50.683514" lon="6.479182">
        <ele>320.740000</ele>
        <time>2009-08-26T09:14:01Z</time>
      </trkpt>
      <trkpt lat="50.683476" lon="6.479159">
        <ele>319.780000</ele>
        <time>2009-08-26T09:14:16Z</time>
      </trkpt>
      <trkpt lat="50.683478" lon="6.479098">
        <ele>320.740000</ele>
        <time>2009-08-26T09:14:32Z</time>
      </trkpt>
      <trkpt lat="50.683426" lon="6.479035">
        <ele>320.740000</ele>
        <time>2009-08-26T09:14:59Z</time>
      </trkpt>
      <trkpt lat="50.683484" lon="6.479078">
        <ele>319.780000</ele>
        <time>2009-08-26T09:15:53Z</time>
      </trkpt>
      <trkpt lat="50.683449" lon="6.479158">
        <ele>321.220000</ele>
        <time>2009-08-26T09:16:18Z</time>
      </trkpt>
      <trkpt lat="50.683439" lon="6.479056">
        <ele>319.780000</ele>
        <time>2009-08-26T09:19:12Z</time>
      </trkpt>
      <trkpt lat="50.683448" lon="6.479304">
        <ele>320.740000</ele>
        <time>2009-08-26T09:19:38Z</time>
      </trkpt>
      <trkpt lat="50.683424" lon="6.479342">
        <ele>320.260000</ele>
        <time>2009-08-26T09:19:47Z</time>
      </trkpt>
      <trkpt lat="50.683599" lon="6.479580">
        <ele>322.660000</ele>
        <time>2009-08-26T09:20:05Z</time>
      </trkpt>
      <trkpt lat="50.683662" lon="6.479633">
        <ele>321.700000</ele>
        <time>2009-08-26T09:20:13Z</time>
      </trkpt>
      <trkpt lat="50.683802" lon="6.479736">
        <ele>322.660000</ele>
        <time>2009-08-26T09:20:29Z</time>
      </trkpt>
      <trkpt lat="50.683821" lon="6.479886">
        <ele>323.140000</ele>
        <time>2009-08-26T09:20:39Z</time>
      </trkpt>
      <trkpt lat="50.683840" lon="6.480295">
        <ele>323.140000</ele>
        <time>2009-08-26T09:21:00Z</time>
      </trkpt>
      <trkpt lat="50.683890" lon="6.480460">
        <ele>323.620000</ele>
        <time>2009-08-26T09:21:09Z</time>
      </trkpt>
      <trkpt lat="50.683895" lon="6.480996">
        <ele>323.140000</ele>
        <time>2009-08-26T09:21:32Z</time>
      </trkpt>
      <trkpt lat="50.683798" lon="6.481512">
        <ele>322.180000</ele>
        <time>2009-08-26T09:21:53Z</time>
      </trkpt>
      <trkpt lat="50.683802" lon="6.481695">
        <ele>320.740000</ele>
        <time>2009-08-26T09:22:02Z</time>
      </trkpt>
      <trkpt lat="50.683718" lon="6.481959">
        <ele>317.370000</ele>
        <time>2009-08-26T09:22:13Z</time>
      </trkpt>
      <trkpt lat="50.683677" lon="6.482090">
        <ele>314.490000</ele>
        <time>2009-08-26T09:22:22Z</time>
      </trkpt>
      <trkpt lat="50.683608" lon="6.482252">
        <ele>311.120000</ele>
        <time>2009-08-26T09:22:31Z</time>
      </trkpt>
      <trkpt lat="50.683495" lon="6.482231">
        <ele>307.760000</ele>
        <time>2009-08-26T09:22:40Z</time>
      </trkpt>
      <trkpt lat="50.683460" lon="6.482205">
        <ele>306.800000</ele>
        <time>2009-08-26T09:22:42Z</time>
      </trkpt>
      <trkpt lat="50.683350" lon="6.482052">
        <ele>303.430000</ele>
        <time>2009-08-26T09:22:50Z</time>
      </trkpt>
      <trkpt lat="50.683262" lon="6.481971">
        <ele>300.550000</ele>
        <time>2009-08-26T09:22:58Z</time>
      </trkpt>
      <trkpt lat="50.683223" lon="6.481784">
        <ele>297.180000</ele>
        <time>2009-08-26T09:23:06Z</time>
      </trkpt>
      <trkpt lat="50.683227" lon="6.481497">
        <ele>295.260000</ele>
        <time>2009-08-26T09:23:17Z</time>
      </trkpt>
      <trkpt lat="50.683200" lon="6.481435">
        <ele>294.300000</ele>
        <time>2009-08-26T09:23:24Z</time>
      </trkpt>
      <trkpt lat="50.683215" lon="6.481785">
        <ele>292.380000</ele>
        <time>2009-08-26T09:23:42Z</time>
      </trkpt>
      <trkpt lat="50.683208" lon="6.481907">
        <ele>291.900000</ele>
        <time>2009-08-26T09:23:47Z</time>
      </trkpt>
      <trkpt lat="50.683209" lon="6.482280">
        <ele>291.900000</ele>
        <time>2009-08-26T09:24:03Z</time>
      </trkpt>
      <trkpt lat="50.683278" lon="6.482359">
        <ele>289.010000</ele>
        <time>2009-08-26T09:24:24Z</time>
      </trkpt>
      <trkpt lat="50.683165" lon="6.482095">
        <ele>286.130000</ele>
        <time>2009-08-26T09:24:37Z</time>
      </trkpt>
      <trkpt lat="50.683072" lon="6.481757">
        <ele>284.690000</ele>
        <time>2009-08-26T09:24:57Z</time>
      </trkpt>
      <trkpt lat="50.682929" lon="6.481525">
        <ele>283.730000</ele>
        <time>2009-08-26T09:25:25Z</time>
      </trkpt>
      <trkpt lat="50.683011" lon="6.481463">
        <ele>283.250000</ele>
        <time>2009-08-26T09:25:52Z</time>
      </trkpt>
      <trkpt lat="50.683071" lon="6.481329">
        <ele>280.360000</ele>
        <time>2009-08-26T09:26:15Z</time>
      </trkpt>
      <trkpt lat="50.682921" lon="6.481125">
        <ele>278.440000</ele>
        <time>2009-08-26T09:26:42Z</time>
      </trkpt>
      <trkpt lat="50.682966" lon="6.480907">
        <ele>276.040000</ele>
        <time>2009-08-26T09:27:04Z</time>
      </trkpt>
      <trkpt lat="50.682928" lon="6.480655">
        <ele>275.560000</ele>
        <time>2009-08-26T09:27:38Z</time>
      </trkpt>
      <trkpt lat="50.682887" lon="6.480445">
        <ele>272.670000</ele>
        <time>2009-08-26T09:27:55Z</time>
      </trkpt>
      <trkpt lat="50.682720" lon="6.480158">
        <ele>269.790000</ele>
        <time>2009-08-26T09:28:15Z</time>
      </trkpt>
      <trkpt lat="50.682642" lon="6.479908">
        <ele>266.900000</ele>
        <time>2009-08-26T09:28:33Z</time>
      </trkpt>
      <trkpt lat="50.682600" lon="6.479619">
        <ele>263.540000</ele>
        <time>2009-08-26T09:28:49Z</time>
      </trkpt>
      <trkpt lat="50.682546" lon="6.479349">
        <ele>260.650000</ele>
        <time>2009-08-26T09:29:06Z</time>
      </trkpt>
      <trkpt lat="50.682352" lon="6.479110">
        <ele>259.210000</ele>
        <time>2009-08-26T09:29:27Z</time>
      </trkpt>
      <trkpt lat="50.682409" lon="6.478963">
        <ele>258.250000</ele>
        <time>2009-08-26T09:29:51Z</time>
      </trkpt>
      <trkpt lat="50.682325" lon="6.479091">
        <ele>258.730000</ele>
        <time>2009-08-26T09:30:16Z</time>
      </trkpt>
      <trkpt lat="50.682273" lon="6.478938">
        <ele>257.770000</ele>
        <time>2009-08-26T09:30:33Z</time>
      </trkpt>
      <trkpt lat="50.682262" lon="6.478970">
        <ele>258.250000</ele>
        <time>2009-08-26T09:30:35Z</time>
      </trkpt>
      <trkpt lat="50.682291" lon="6.479141">
        <ele>259.210000</ele>
        <time>2009-08-26T09:30:48Z</time>
      </trkpt>
      <trkpt lat="50.682298" lon="6.479154">
        <ele>259.210000</ele>
        <time>2009-08-26T09:30:49Z</time>
      </trkpt>
      <trkpt lat="50.682385" lon="6.478991">
        <ele>257.770000</ele>
        <time>2009-08-26T09:31:00Z</time>
      </trkpt>
      <trkpt lat="50.682397" lon="6.478987">
        <ele>257.770000</ele>
        <time>2009-08-26T09:31:01Z</time>
      </trkpt>
      <trkpt lat="50.682466" lon="6.478814">
        <ele>256.330000</ele>
        <time>2009-08-26T09:31:08Z</time>
      </trkpt>
      <trkpt lat="50.682527" lon="6.478584">
        <ele>253.930000</ele>
        <time>2009-08-26T09:31:18Z</time>
      </trkpt>
      <trkpt lat="50.682547" lon="6.478561">
        <ele>252.960000</ele>
        <time>2009-08-26T09:31:21Z</time>
      </trkpt>
      <trkpt lat="50.682541" lon="6.478489">
        <ele>252.480000</ele>
        <time>2009-08-26T09:31:25Z</time>
      </trkpt>
      <trkpt lat="50.682542" lon="6.478403">
        <ele>251.040000</ele>
        <time>2009-08-26T09:31:30Z</time>
      </trkpt>
      <trkpt lat="50.682620" lon="6.478202">
        <ele>249.120000</ele>
        <time>2009-08-26T09:31:39Z</time>
      </trkpt>
      <trkpt lat="50.682733" lon="6.478042">
        <ele>247.200000</ele>
        <time>2009-08-26T09:31:47Z</time>
      </trkpt>
      <trkpt lat="50.682736" lon="6.477894">
        <ele>244.790000</ele>
        <time>2009-08-26T09:31:54Z</time>
      </trkpt>
      <trkpt lat="50.682753" lon="6.477854">
        <ele>244.310000</ele>
        <time>2009-08-26T09:31:56Z</time>
      </trkpt>
      <trkpt lat="50.682821" lon="6.477670">
        <ele>242.390000</ele>
        <time>2009-08-26T09:32:05Z</time>
      </trkpt>
      <trkpt lat="50.682900" lon="6.477576">
        <ele>241.430000</ele>
        <time>2009-08-26T09:32:11Z</time>
      </trkpt>
      <trkpt lat="50.682918" lon="6.477512">
        <ele>240.470000</ele>
        <time>2009-08-26T09:32:14Z</time>
      </trkpt>
      <trkpt lat="50.683050" lon="6.477400">
        <ele>238.540000</ele>
        <time>2009-08-26T09:32:22Z</time>
      </trkpt>
      <trkpt lat="50.683073" lon="6.477306">
        <ele>237.580000</ele>
        <time>2009-08-26T09:32:26Z</time>
      </trkpt>
      <trkpt lat="50.683128" lon="6.477123">
        <ele>235.660000</ele>
        <time>2009-08-26T09:32:34Z</time>
      </trkpt>
      <trkpt lat="50.683173" lon="6.477030">
        <ele>234.700000</ele>
        <time>2009-08-26T09:32:39Z</time>
      </trkpt>
      <trkpt lat="50.683195" lon="6.476978">
        <ele>233.740000</ele>
        <time>2009-08-26T09:32:42Z</time>
      </trkpt>
      <trkpt lat="50.683201" lon="6.476955">
        <ele>233.260000</ele>
        <time>2009-08-26T09:32:44Z</time>
      </trkpt>
      <trkpt lat="50.683203" lon="6.476902">
        <ele>232.780000</ele>
        <time>2009-08-26T09:32:47Z</time>
      </trkpt>
      <trkpt lat="50.683196" lon="6.476824">
        <ele>232.300000</ele>
        <time>2009-08-26T09:32:50Z</time>
      </trkpt>
      <trkpt lat="50.683188" lon="6.476582">
        <ele>229.890000</ele>
        <time>2009-08-26T09:33:01Z</time>
      </trkpt>
      <trkpt lat="50.683254" lon="6.476510">
        <ele>228.930000</ele>
        <time>2009-08-26T09:33:04Z</time>
      </trkpt>
      <trkpt lat="50.683369" lon="6.476349">
        <ele>227.490000</ele>
        <time>2009-08-26T09:33:14Z</time>
      </trkpt>
      <trkpt lat="50.683375" lon="6.476300">
        <ele>227.490000</ele>
        <time>2009-08-26T09:33:16Z</time>
      </trkpt>
      <trkpt lat="50.683416" lon="6.476202">
        <ele>225.570000</ele>
        <time>2009-08-26T09:33:22Z</time>
      </trkpt>
      <trkpt lat="50.683411" lon="6.476002">
        <ele>224.120000</ele>
        <time>2009-08-26T09:33:33Z</time>
      </trkpt>
      <trkpt lat="50.683461" lon="6.475809">
        <ele>221.720000</ele>
        <time>2009-08-26T09:33:45Z</time>
      </trkpt>
      <trkpt lat="50.683557" lon="6.475665">
        <ele>220.760000</ele>
        <time>2009-08-26T09:33:54Z</time>
      </trkpt>
      <trkpt lat="50.683650" lon="6.475547">
        <ele>219.320000</ele>
        <time>2009-08-26T09:34:00Z</time>
      </trkpt>
      <trkpt lat="50.683681" lon="6.475505">
        <ele>218.360000</ele>
        <time>2009-08-26T09:34:02Z</time>
      </trkpt>
      <trkpt lat="50.683823" lon="6.475443">
        <ele>216.910000</ele>
        <time>2009-08-26T09:34:09Z</time>
      </trkpt>
      <trkpt lat="50.683957" lon="6.475371">
        <ele>215.470000</ele>
        <time>2009-08-26T09:34:15Z</time>
      </trkpt>
      <trkpt lat="50.684048" lon="6.475274">
        <ele>214.510000</ele>
        <time>2009-08-26T09:34:19Z</time>
      </trkpt>
      <trkpt lat="50.684258" lon="6.475012">
        <ele>211.630000</ele>
        <time>2009-08-26T09:34:38Z</time>
      </trkpt>
      <trkpt lat="50.684359" lon="6.474944">
        <ele>211.150000</ele>
        <time>2009-08-26T09:34:44Z</time>
      </trkpt>
      <trkpt lat="50.684432" lon="6.474891">
        <ele>210.190000</ele>
        <time>2009-08-26T09:34:48Z</time>
      </trkpt>
      <trkpt lat="50.684500" lon="6.474882">
        <ele>209.700000</ele>
        <time>2009-08-26T09:34:52Z</time>
      </trkpt>
      <trkpt lat="50.684482" lon="6.474844">
        <ele>208.740000</ele>
        <time>2009-08-26T09:35:07Z</time>
      </trkpt>
      <trkpt lat="50.684347" lon="6.474717">
        <ele>206.820000</ele>
        <time>2009-08-26T09:35:21Z</time>
      </trkpt>
      <trkpt lat="50.683997" lon="6.474400">
        <ele>206.820000</ele>
        <time>2009-08-26T09:35:46Z</time>
      </trkpt>
      <trkpt lat="50.683774" lon="6.474160">
        <ele>209.220000</ele>
        <time>2009-08-26T09:36:05Z</time>
      </trkpt>
      <trkpt lat="50.683480" lon="6.473927">
        <ele>210.670000</ele>
        <time>2009-08-26T09:36:26Z</time>
      </trkpt>
      <trkpt lat="50.683387" lon="6.473844">
        <ele>211.630000</ele>
        <time>2009-08-26T09:36:37Z</time>
      </trkpt>
      <trkpt lat="50.683080" lon="6.473558">
        <ele>211.630000</ele>
        <time>2009-08-26T09:36:56Z</time>
      </trkpt>
      <trkpt lat="50.682914" lon="6.473395">
        <ele>210.190000</ele>
        <time>2009-08-26T09:37:09Z</time>
      </trkpt>
      <trkpt lat="50.682891" lon="6.473368">
        <ele>210.190000</ele>
        <time>2009-08-26T09:37:11Z</time>
      </trkpt>
      <trkpt lat="50.682796" lon="6.473315">
        <ele>209.700000</ele>
        <time>2009-08-26T09:37:20Z</time>
      </trkpt>
      <trkpt lat="50.682747" lon="6.473257">
        <ele>209.220000</ele>
        <time>2009-08-26T09:37:24Z</time>
      </trkpt>
      <trkpt lat="50.682700" lon="6.473213">
        <ele>209.220000</ele>
        <time>2009-08-26T09:37:28Z</time>
      </trkpt>
      <trkpt lat="50.682531" lon="6.473024">
        <ele>208.260000</ele>
        <time>2009-08-26T09:37:41Z</time>
      </trkpt>
      <trkpt lat="50.682344" lon="6.472794">
        <ele>209.220000</ele>
        <time>2009-08-26T09:37:56Z</time>
      </trkpt>
      <trkpt lat="50.682297" lon="6.472677">
        <ele>209.220000</ele>
        <time>2009-08-26T09:38:13Z</time>
      </trkpt>
      <trkpt lat="50.682256" lon="6.472563">
        <ele>208.740000</ele>
        <time>2009-08-26T09:38:45Z</time>
      </trkpt>
      <trkpt lat="50.682142" lon="6.472676">
        <ele>208.740000</ele>
        <time>2009-08-26T09:39:37Z</time>
      </trkpt>
      <trkpt lat="50.681842" lon="6.472619">
        <ele>207.300000</ele>
        <time>2009-08-26T09:39:57Z</time>
      </trkpt>
      <trkpt lat="50.681689" lon="6.472603">
        <ele>208.260000</ele>
        <time>2009-08-26T09:40:14Z</time>
      </trkpt>
      <trkpt lat="50.681569" lon="6.472652">
        <ele>211.150000</ele>
        <time>2009-08-26T09:40:28Z</time>
      </trkpt>
      <trkpt lat="50.681537" lon="6.472887">
        <ele>214.510000</ele>
        <time>2009-08-26T09:40:47Z</time>
      </trkpt>
      <trkpt lat="50.681508" lon="6.473027">
        <ele>217.880000</ele>
        <time>2009-08-26T09:41:00Z</time>
      </trkpt>
      <trkpt lat="50.681494" lon="6.473220">
        <ele>220.760000</ele>
        <time>2009-08-26T09:41:13Z</time>
      </trkpt>
      <trkpt lat="50.681403" lon="6.473379">
        <ele>224.120000</ele>
        <time>2009-08-26T09:41:26Z</time>
      </trkpt>
      <trkpt lat="50.681360" lon="6.473605">
        <ele>227.010000</ele>
        <time>2009-08-26T09:41:41Z</time>
      </trkpt>
      <trkpt lat="50.681305" lon="6.473764">
        <ele>229.890000</ele>
        <time>2009-08-26T09:41:55Z</time>
      </trkpt>
      <trkpt lat="50.681300" lon="6.473779">
        <ele>229.890000</ele>
        <time>2009-08-26T09:41:56Z</time>
      </trkpt>
      <trkpt lat="50.681215" lon="6.474028">
        <ele>233.260000</ele>
        <time>2009-08-26T09:42:13Z</time>
      </trkpt>
      <trkpt lat="50.681099" lon="6.474245">
        <ele>236.140000</ele>
        <time>2009-08-26T09:42:31Z</time>
      </trkpt>
      <trkpt lat="50.681062" lon="6.474333">
        <ele>238.060000</ele>
        <time>2009-08-26T09:42:47Z</time>
      </trkpt>
      <trkpt lat="50.680991" lon="6.474576">
        <ele>240.950000</ele>
        <time>2009-08-26T09:43:03Z</time>
      </trkpt>
      <trkpt lat="50.680988" lon="6.474665">
        <ele>241.910000</ele>
        <time>2009-08-26T09:43:07Z</time>
      </trkpt>
      <trkpt lat="50.680978" lon="6.474913">
        <ele>245.270000</ele>
        <time>2009-08-26T09:43:23Z</time>
      </trkpt>
      <trkpt lat="50.681036" lon="6.475216">
        <ele>248.160000</ele>
        <time>2009-08-26T09:43:42Z</time>
      </trkpt>
      <trkpt lat="50.681019" lon="6.475554">
        <ele>250.080000</ele>
        <time>2009-08-26T09:43:58Z</time>
      </trkpt>
      <trkpt lat="50.680984" lon="6.475680">
        <ele>251.040000</ele>
        <time>2009-08-26T09:44:13Z</time>
      </trkpt>
      <trkpt lat="50.680978" lon="6.475931">
        <ele>253.930000</ele>
        <time>2009-08-26T09:44:30Z</time>
      </trkpt>
      <trkpt lat="50.681090" lon="6.476179">
        <ele>257.290000</ele>
        <time>2009-08-26T09:44:47Z</time>
      </trkpt>
      <trkpt lat="50.681167" lon="6.476508">
        <ele>260.170000</ele>
        <time>2009-08-26T09:45:03Z</time>
      </trkpt>
      <trkpt lat="50.681213" lon="6.476784">
        <ele>263.540000</ele>
        <time>2009-08-26T09:45:21Z</time>
      </trkpt>
      <trkpt lat="50.681176" lon="6.477038">
        <ele>266.420000</ele>
        <time>2009-08-26T09:45:40Z</time>
      </trkpt>
      <trkpt lat="50.681232" lon="6.477270">
        <ele>268.350000</ele>
        <time>2009-08-26T09:45:58Z</time>
      </trkpt>
      <trkpt lat="50.681317" lon="6.477575">
        <ele>271.230000</ele>
        <time>2009-08-26T09:46:14Z</time>
      </trkpt>
      <trkpt lat="50.681197" lon="6.477865">
        <ele>274.110000</ele>
        <time>2009-08-26T09:46:31Z</time>
      </trkpt>
      <trkpt lat="50.681104" lon="6.478078">
        <ele>276.520000</ele>
        <time>2009-08-26T09:46:46Z</time>
      </trkpt>
      <trkpt lat="50.680989" lon="6.478416">
        <ele>279.880000</ele>
        <time>2009-08-26T09:47:06Z</time>
      </trkpt>
      <trkpt lat="50.680888" lon="6.478474">
        <ele>280.840000</ele>
        <time>2009-08-26T09:47:12Z</time>
      </trkpt>
      <trkpt lat="50.680842" lon="6.478540">
        <ele>281.800000</ele>
        <time>2009-08-26T09:47:18Z</time>
      </trkpt>
      <trkpt lat="50.680695" lon="6.478781">
        <ele>284.210000</ele>
        <time>2009-08-26T09:47:36Z</time>
      </trkpt>
      <trkpt lat="50.680550" lon="6.478897">
        <ele>286.610000</ele>
        <time>2009-08-26T09:47:51Z</time>
      </trkpt>
      <trkpt lat="50.680511" lon="6.479131">
        <ele>289.490000</ele>
        <time>2009-08-26T09:48:09Z</time>
      </trkpt>
      <trkpt lat="50.680535" lon="6.479208">
        <ele>290.940000</ele>
        <time>2009-08-26T09:48:30Z</time>
      </trkpt>
      <trkpt lat="50.680596" lon="6.479391">
        <ele>292.380000</ele>
        <time>2009-08-26T09:48:41Z</time>
      </trkpt>
      <trkpt lat="50.680561" lon="6.479684">
        <ele>295.740000</ele>
        <time>2009-08-26T09:48:59Z</time>
      </trkpt>
      <trkpt lat="50.680458" lon="6.479852">
        <ele>298.630000</ele>
        <time>2009-08-26T09:49:18Z</time>
      </trkpt>
      <trkpt lat="50.680418" lon="6.479859">
        <ele>299.590000</ele>
        <time>2009-08-26T09:49:21Z</time>
      </trkpt>
      <trkpt lat="50.680283" lon="6.479931">
        <ele>302.950000</ele>
        <time>2009-08-26T09:49:41Z</time>
      </trkpt>
      <trkpt lat="50.680220" lon="6.480015">
        <ele>305.360000</ele>
        <time>2009-08-26T09:49:58Z</time>
      </trkpt>
      <trkpt lat="50.680095" lon="6.479841">
        <ele>307.280000</ele>
        <time>2009-08-26T09:50:14Z</time>
      </trkpt>
      <trkpt lat="50.680095" lon="6.479627">
        <ele>310.160000</ele>
        <time>2009-08-26T09:50:34Z</time>
      </trkpt>
      <trkpt lat="50.680042" lon="6.479600">
        <ele>310.640000</ele>
        <time>2009-08-26T09:51:15Z</time>
      </trkpt>
      <trkpt lat="50.680041" lon="6.479692">
        <ele>312.090000</ele>
        <time>2009-08-26T09:51:31Z</time>
      </trkpt>
      <trkpt lat="50.679916" lon="6.479720">
        <ele>314.490000</ele>
        <time>2009-08-26T09:51:47Z</time>
      </trkpt>
      <trkpt lat="50.679857" lon="6.479697">
        <ele>314.970000</ele>
        <time>2009-08-26T09:51:53Z</time>
      </trkpt>
      <trkpt lat="50.679723" lon="6.479594">
        <ele>317.370000</ele>
        <time>2009-08-26T09:52:15Z</time>
      </trkpt>
      <trkpt lat="50.679579" lon="6.479530">
        <ele>320.260000</ele>
        <time>2009-08-26T09:52:41Z</time>
      </trkpt>
      <trkpt lat="50.679403" lon="6.479651">
        <ele>323.620000</ele>
        <time>2009-08-26T09:52:56Z</time>
      </trkpt>
      <trkpt lat="50.679390" lon="6.479842">
        <ele>326.020000</ele>
        <time>2009-08-26T09:53:12Z</time>
      </trkpt>
      <trkpt lat="50.679463" lon="6.480260">
        <ele>327.950000</ele>
        <time>2009-08-26T09:53:36Z</time>
      </trkpt>
      <trkpt lat="50.679576" lon="6.480548">
        <ele>328.910000</ele>
        <time>2009-08-26T09:53:55Z</time>
      </trkpt>
      <trkpt lat="50.679569" lon="6.480639">
        <ele>328.910000</ele>
        <time>2009-08-26T09:54:28Z</time>
      </trkpt>
      <trkpt lat="50.679468" lon="6.480609">
        <ele>329.870000</ele>
        <time>2009-08-26T09:54:40Z</time>
      </trkpt>
      <trkpt lat="50.679350" lon="6.480484">
        <ele>329.870000</ele>
        <time>2009-08-26T09:55:14Z</time>
      </trkpt>
      <trkpt lat="50.679157" lon="6.480411">
        <ele>330.350000</ele>
        <time>2009-08-26T09:55:39Z</time>
      </trkpt>
      <trkpt lat="50.678994" lon="6.480321">
        <ele>330.830000</ele>
        <time>2009-08-26T09:56:06Z</time>
      </trkpt>
      <trkpt lat="50.678840" lon="6.480189">
        <ele>330.350000</ele>
        <time>2009-08-26T09:56:23Z</time>
      </trkpt>
      <trkpt lat="50.678712" lon="6.480032">
        <ele>330.830000</ele>
        <time>2009-08-26T09:56:47Z</time>
      </trkpt>
      <trkpt lat="50.678647" lon="6.479960">
        <ele>331.310000</ele>
        <time>2009-08-26T09:56:52Z</time>
      </trkpt>
      <trkpt lat="50.678392" lon="6.479737">
        <ele>330.830000</ele>
        <time>2009-08-26T09:57:12Z</time>
      </trkpt>
      <trkpt lat="50.678130" lon="6.479636">
        <ele>330.830000</ele>
        <time>2009-08-26T09:57:31Z</time>
      </trkpt>
      <trkpt lat="50.677925" lon="6.479662">
        <ele>330.350000</ele>
        <time>2009-08-26T09:57:47Z</time>
      </trkpt>
      <trkpt lat="50.677599" lon="6.479558">
        <ele>328.910000</ele>
        <time>2009-08-26T09:58:08Z</time>
      </trkpt>
      <trkpt lat="50.677335" lon="6.479500">
        <ele>329.870000</ele>
        <time>2009-08-26T09:58:28Z</time>
      </trkpt>
      <trkpt lat="50.677242" lon="6.479336">
        <ele>331.310000</ele>
        <time>2009-08-26T09:58:40Z</time>
      </trkpt>
      <trkpt lat="50.677184" lon="6.479099">
        <ele>332.270000</ele>
        <time>2009-08-26T09:58:49Z</time>
      </trkpt>
      <trkpt lat="50.677138" lon="6.478665">
        <ele>332.750000</ele>
        <time>2009-08-26T09:59:08Z</time>
      </trkpt>
      <trkpt lat="50.677139" lon="6.478590">
        <ele>333.230000</ele>
        <time>2009-08-26T09:59:12Z</time>
      </trkpt>
      <trkpt lat="50.677165" lon="6.478509">
        <ele>333.230000</ele>
        <time>2009-08-26T09:59:16Z</time>
      </trkpt>
      <trkpt lat="50.677212" lon="6.478416">
        <ele>333.710000</ele>
        <time>2009-08-26T09:59:20Z</time>
      </trkpt>
      <trkpt lat="50.677240" lon="6.478351">
        <ele>333.710000</ele>
        <time>2009-08-26T09:59:23Z</time>
      </trkpt>
      <trkpt lat="50.677254" lon="6.478311">
        <ele>333.710000</ele>
        <time>2009-08-26T09:59:25Z</time>
      </trkpt>
      <trkpt lat="50.677256" lon="6.478181">
        <ele>334.200000</ele>
        <time>2009-08-26T09:59:32Z</time>
      </trkpt>
      <trkpt lat="50.677071" lon="6.478012">
        <ele>333.230000</ele>
        <time>2009-08-26T09:59:51Z</time>
      </trkpt>
      <trkpt lat="50.676972" lon="6.477854">
        <ele>329.870000</ele>
        <time>2009-08-26T10:00:04Z</time>
      </trkpt>
      <trkpt lat="50.676844" lon="6.477738">
        <ele>327.470000</ele>
        <time>2009-08-26T10:00:27Z</time>
      </trkpt>
      <trkpt lat="50.676831" lon="6.477710">
        <ele>326.020000</ele>
        <time>2009-08-26T10:00:43Z</time>
      </trkpt>
      <trkpt lat="50.676827" lon="6.477730">
        <ele>325.060000</ele>
        <time>2009-08-26T10:01:03Z</time>
      </trkpt>
      <trkpt lat="50.676893" lon="6.477890">
        <ele>326.500000</ele>
        <time>2009-08-26T10:02:00Z</time>
      </trkpt>
      <trkpt lat="50.676939" lon="6.478055">
        <ele>327.950000</ele>
        <time>2009-08-26T10:02:13Z</time>
      </trkpt>
      <trkpt lat="50.676960" lon="6.478379">
        <ele>325.060000</ele>
        <time>2009-08-26T10:02:33Z</time>
      </trkpt>
      <trkpt lat="50.676936" lon="6.478397">
        <ele>323.620000</ele>
        <time>2009-08-26T10:02:37Z</time>
      </trkpt>
      <trkpt lat="50.676795" lon="6.478706">
        <ele>321.700000</ele>
        <time>2009-08-26T10:02:59Z</time>
      </trkpt>
      <trkpt lat="50.676780" lon="6.478873">
        <ele>320.260000</ele>
        <time>2009-08-26T10:03:13Z</time>
      </trkpt>
      <trkpt lat="50.676703" lon="6.479095">
        <ele>318.810000</ele>
        <time>2009-08-26T10:03:21Z</time>
      </trkpt>
      <trkpt lat="50.676692" lon="6.479171">
        <ele>317.850000</ele>
        <time>2009-08-26T10:03:25Z</time>
      </trkpt>
      <trkpt lat="50.676684" lon="6.479344">
        <ele>316.890000</ele>
        <time>2009-08-26T10:03:36Z</time>
      </trkpt>
      <trkpt lat="50.676710" lon="6.479498">
        <ele>315.450000</ele>
        <time>2009-08-26T10:03:41Z</time>
      </trkpt>
      <trkpt lat="50.676719" lon="6.479609">
        <ele>314.490000</ele>
        <time>2009-08-26T10:03:46Z</time>
      </trkpt>
      <trkpt lat="50.676803" lon="6.479765">
        <ele>311.600000</ele>
        <time>2009-08-26T10:03:57Z</time>
      </trkpt>
      <trkpt lat="50.676729" lon="6.479801">
        <ele>308.720000</ele>
        <time>2009-08-26T10:04:05Z</time>
      </trkpt>
      <trkpt lat="50.676671" lon="6.479721">
        <ele>306.800000</ele>
        <time>2009-08-26T10:04:10Z</time>
      </trkpt>
      <trkpt lat="50.676640" lon="6.479730">
        <ele>305.840000</ele>
        <time>2009-08-26T10:04:12Z</time>
      </trkpt>
      <trkpt lat="50.676554" lon="6.479765">
        <ele>303.430000</ele>
        <time>2009-08-26T10:04:18Z</time>
      </trkpt>
      <trkpt lat="50.676320" lon="6.479959">
        <ele>300.550000</ele>
        <time>2009-08-26T10:04:35Z</time>
      </trkpt>
      <trkpt lat="50.675993" lon="6.480069">
        <ele>297.180000</ele>
        <time>2009-08-26T10:04:54Z</time>
      </trkpt>
      <trkpt lat="50.675840" lon="6.480052">
        <ele>296.220000</ele>
        <time>2009-08-26T10:05:07Z</time>
      </trkpt>
      <trkpt lat="50.675533" lon="6.480090">
        <ele>295.740000</ele>
        <time>2009-08-26T10:05:29Z</time>
      </trkpt>
      <trkpt lat="50.675334" lon="6.480077">
        <ele>292.380000</ele>
        <time>2009-08-26T10:05:44Z</time>
      </trkpt>
      <trkpt lat="50.675098" lon="6.480007">
        <ele>289.490000</ele>
        <time>2009-08-26T10:06:01Z</time>
      </trkpt>
      <trkpt lat="50.674991" lon="6.480104">
        <ele>289.010000</ele>
        <time>2009-08-26T10:06:13Z</time>
      </trkpt>
      <trkpt lat="50.674842" lon="6.480306">
        <ele>285.650000</ele>
        <time>2009-08-26T10:06:26Z</time>
      </trkpt>
      <trkpt lat="50.674735" lon="6.480385">
        <ele>284.210000</ele>
        <time>2009-08-26T10:06:35Z</time>
      </trkpt>
      <trkpt lat="50.674614" lon="6.480562">
        <ele>282.280000</ele>
        <time>2009-08-26T10:06:48Z</time>
      </trkpt>
      <trkpt lat="50.674597" lon="6.480639">
        <ele>282.280000</ele>
        <time>2009-08-26T10:06:54Z</time>
      </trkpt>
      <trkpt lat="50.674566" lon="6.480677">
        <ele>282.280000</ele>
        <time>2009-08-26T10:06:57Z</time>
      </trkpt>
      <trkpt lat="50.674408" lon="6.480839">
        <ele>281.320000</ele>
        <time>2009-08-26T10:07:09Z</time>
      </trkpt>
      <trkpt lat="50.674178" lon="6.480859">
        <ele>278.920000</ele>
        <time>2009-08-26T10:07:26Z</time>
      </trkpt>
      <trkpt lat="50.673974" lon="6.480733">
        <ele>278.440000</ele>
        <time>2009-08-26T10:07:39Z</time>
      </trkpt>
      <trkpt lat="50.673962" lon="6.480716">
        <ele>277.960000</ele>
        <time>2009-08-26T10:07:40Z</time>
      </trkpt>
      <trkpt lat="50.673905" lon="6.480630">
        <ele>277.480000</ele>
        <time>2009-08-26T10:07:45Z</time>
      </trkpt>
      <trkpt lat="50.673868" lon="6.480552">
        <ele>276.520000</ele>
        <time>2009-08-26T10:07:49Z</time>
      </trkpt>
      <trkpt lat="50.673854" lon="6.480429">
        <ele>275.560000</ele>
        <time>2009-08-26T10:07:55Z</time>
      </trkpt>
      <trkpt lat="50.673890" lon="6.480358">
        <ele>275.070000</ele>
        <time>2009-08-26T10:07:59Z</time>
      </trkpt>
      <trkpt lat="50.673952" lon="6.480269">
        <ele>274.110000</ele>
        <time>2009-08-26T10:08:06Z</time>
      </trkpt>
      <trkpt lat="50.674123" lon="6.480109">
        <ele>272.190000</ele>
        <time>2009-08-26T10:08:19Z</time>
      </trkpt>
      <trkpt lat="50.674128" lon="6.480079">
        <ele>271.710000</ele>
        <time>2009-08-26T10:08:21Z</time>
      </trkpt>
      <trkpt lat="50.674233" lon="6.479834">
        <ele>270.750000</ele>
        <time>2009-08-26T10:08:35Z</time>
      </trkpt>
      <trkpt lat="50.674247" lon="6.479781">
        <ele>270.270000</ele>
        <time>2009-08-26T10:08:37Z</time>
      </trkpt>
      <trkpt lat="50.674273" lon="6.479728">
        <ele>269.790000</ele>
        <time>2009-08-26T10:08:41Z</time>
      </trkpt>
      <trkpt lat="50.674277" lon="6.479673">
        <ele>269.790000</ele>
        <time>2009-08-26T10:08:43Z</time>
      </trkpt>
      <trkpt lat="50.674378" lon="6.479410">
        <ele>266.900000</ele>
        <time>2009-08-26T10:08:57Z</time>
      </trkpt>
      <trkpt lat="50.674465" lon="6.479214">
        <ele>265.460000</ele>
        <time>2009-08-26T10:09:09Z</time>
      </trkpt>
      <trkpt lat="50.674635" lon="6.479098">
        <ele>263.540000</ele>
        <time>2009-08-26T10:09:24Z</time>
      </trkpt>
      <trkpt lat="50.674738" lon="6.478804">
        <ele>262.580000</ele>
        <time>2009-08-26T10:09:43Z</time>
      </trkpt>
      <trkpt lat="50.674947" lon="6.478891">
        <ele>261.140000</ele>
        <time>2009-08-26T10:10:01Z</time>
      </trkpt>
      <trkpt lat="50.675153" lon="6.478876">
        <ele>257.770000</ele>
        <time>2009-08-26T10:10:19Z</time>
      </trkpt>
      <trkpt lat="50.674894" lon="6.478626">
        <ele>254.890000</ele>
        <time>2009-08-26T10:10:42Z</time>
      </trkpt>
      <trkpt lat="50.674890" lon="6.478619">
        <ele>254.890000</ele>
        <time>2009-08-26T10:10:43Z</time>
      </trkpt>
      <trkpt lat="50.674693" lon="6.478486">
        <ele>253.930000</ele>
        <time>2009-08-26T10:10:57Z</time>
      </trkpt>
      <trkpt lat="50.674606" lon="6.478589">
        <ele>253.930000</ele>
        <time>2009-08-26T10:11:08Z</time>
      </trkpt>
      <trkpt lat="50.674581" lon="6.478673">
        <ele>253.440000</ele>
        <time>2009-08-26T10:11:13Z</time>
      </trkpt>
      <trkpt lat="50.674559" lon="6.478766">
        <ele>252.480000</ele>
        <time>2009-08-26T10:11:17Z</time>
      </trkpt>
      <trkpt lat="50.674469" lon="6.478963">
        <ele>251.040000</ele>
        <time>2009-08-26T10:11:27Z</time>
      </trkpt>
      <trkpt lat="50.674281" lon="6.479073">
        <ele>250.080000</ele>
        <time>2009-08-26T10:11:43Z</time>
      </trkpt>
      <trkpt lat="50.674184" lon="6.479190">
        <ele>247.680000</ele>
        <time>2009-08-26T10:11:56Z</time>
      </trkpt>
      <trkpt lat="50.674141" lon="6.479383">
        <ele>246.720000</ele>
        <time>2009-08-26T10:12:05Z</time>
      </trkpt>
      <trkpt lat="50.673990" lon="6.479434">
        <ele>244.790000</ele>
        <time>2009-08-26T10:12:15Z</time>
      </trkpt>
      <trkpt lat="50.673858" lon="6.479552">
        <ele>242.870000</ele>
        <time>2009-08-26T10:12:27Z</time>
      </trkpt>
      <trkpt lat="50.673806" lon="6.479574">
        <ele>241.910000</ele>
        <time>2009-08-26T10:12:31Z</time>
      </trkpt>
      <trkpt lat="50.673742" lon="6.479676">
        <ele>241.430000</ele>
        <time>2009-08-26T10:12:36Z</time>
      </trkpt>
      <trkpt lat="50.673707" lon="6.479757">
        <ele>240.470000</ele>
        <time>2009-08-26T10:12:41Z</time>
      </trkpt>
      <trkpt lat="50.673685" lon="6.479787">
        <ele>240.470000</ele>
        <time>2009-08-26T10:12:43Z</time>
      </trkpt>
      <trkpt lat="50.673664" lon="6.479842">
        <ele>240.470000</ele>
        <time>2009-08-26T10:12:46Z</time>
      </trkpt>
      <trkpt lat="50.673593" lon="6.479836">
        <ele>239.510000</ele>
        <time>2009-08-26T10:12:53Z</time>
      </trkpt>
      <trkpt lat="50.673497" lon="6.479895">
        <ele>238.540000</ele>
        <time>2009-08-26T10:13:01Z</time>
      </trkpt>
      <trkpt lat="50.673300" lon="6.479888">
        <ele>236.620000</ele>
        <time>2009-08-26T10:13:19Z</time>
      </trkpt>
      <trkpt lat="50.673178" lon="6.479920">
        <ele>235.660000</ele>
        <time>2009-08-26T10:13:31Z</time>
      </trkpt>
      <trkpt lat="50.673133" lon="6.479908">
        <ele>234.700000</ele>
        <time>2009-08-26T10:13:34Z</time>
      </trkpt>
      <trkpt lat="50.673048" lon="6.480058">
        <ele>233.740000</ele>
        <time>2009-08-26T10:13:43Z</time>
      </trkpt>
      <trkpt lat="50.672965" lon="6.480128">
        <ele>232.780000</ele>
        <time>2009-08-26T10:13:51Z</time>
      </trkpt>
      <trkpt lat="50.672894" lon="6.480241">
        <ele>232.300000</ele>
        <time>2009-08-26T10:14:02Z</time>
      </trkpt>
      <trkpt lat="50.672923" lon="6.480531">
        <ele>229.410000</ele>
        <time>2009-08-26T10:14:22Z</time>
      </trkpt>
      <trkpt lat="50.673055" lon="6.480790">
        <ele>227.970000</ele>
        <time>2009-08-26T10:14:35Z</time>
      </trkpt>
      <trkpt lat="50.673055" lon="6.480801">
        <ele>227.970000</ele>
        <time>2009-08-26T10:14:36Z</time>
      </trkpt>
      <trkpt lat="50.673105" lon="6.481090">
        <ele>226.050000</ele>
        <time>2009-08-26T10:14:48Z</time>
      </trkpt>
      <trkpt lat="50.673125" lon="6.481202">
        <ele>225.090000</ele>
        <time>2009-08-26T10:14:54Z</time>
      </trkpt>
      <trkpt lat="50.673164" lon="6.481475">
        <ele>224.120000</ele>
        <time>2009-08-26T10:15:08Z</time>
      </trkpt>
      <trkpt lat="50.673249" lon="6.481573">
        <ele>222.680000</ele>
        <time>2009-08-26T10:15:19Z</time>
      </trkpt>
      <trkpt lat="50.673396" lon="6.481895">
        <ele>219.800000</ele>
        <time>2009-08-26T10:15:39Z</time>
      </trkpt>
      <trkpt lat="50.673316" lon="6.481821">
        <ele>216.910000</ele>
        <time>2009-08-26T10:15:51Z</time>
      </trkpt>
      <trkpt lat="50.673178" lon="6.481826">
        <ele>213.550000</ele>
        <time>2009-08-26T10:16:01Z</time>
      </trkpt>
      <trkpt lat="50.673104" lon="6.481762">
        <ele>210.670000</ele>
        <time>2009-08-26T10:16:13Z</time>
      </trkpt>
      <trkpt lat="50.673126" lon="6.481975">
        <ele>207.300000</ele>
        <time>2009-08-26T10:16:25Z</time>
      </trkpt>
      <trkpt lat="50.673202" lon="6.482076">
        <ele>205.860000</ele>
        <time>2009-08-26T10:16:31Z</time>
      </trkpt>
      <trkpt lat="50.673258" lon="6.482312">
        <ele>202.490000</ele>
        <time>2009-08-26T10:16:48Z</time>
      </trkpt>
      <trkpt lat="50.673255" lon="6.482378">
        <ele>201.530000</ele>
        <time>2009-08-26T10:16:56Z</time>
      </trkpt>
      <trkpt lat="50.673098" lon="6.482305">
        <ele>201.050000</ele>
        <time>2009-08-26T10:17:07Z</time>
      </trkpt>
      <trkpt lat="50.673051" lon="6.482216">
        <ele>200.570000</ele>
        <time>2009-08-26T10:17:12Z</time>
      </trkpt>
      <trkpt lat="50.673006" lon="6.482172">
        <ele>200.570000</ele>
        <time>2009-08-26T10:17:16Z</time>
      </trkpt>
      <trkpt lat="50.672985" lon="6.482140">
        <ele>200.090000</ele>
        <time>2009-08-26T10:17:18Z</time>
      </trkpt>
      <trkpt lat="50.672909" lon="6.481956">
        <ele>199.130000</ele>
        <time>2009-08-26T10:17:28Z</time>
      </trkpt>
      <trkpt lat="50.672800" lon="6.481811">
        <ele>198.170000</ele>
        <time>2009-08-26T10:17:42Z</time>
      </trkpt>
      <trkpt lat="50.672708" lon="6.481660">
        <ele>197.690000</ele>
        <time>2009-08-26T10:17:52Z</time>
      </trkpt>
      <trkpt lat="50.672565" lon="6.481425">
        <ele>196.730000</ele>
        <time>2009-08-26T10:18:06Z</time>
      </trkpt>
      <trkpt lat="50.672432" lon="6.481285">
        <ele>195.770000</ele>
        <time>2009-08-26T10:18:17Z</time>
      </trkpt>
      <trkpt lat="50.672292" lon="6.481068">
        <ele>193.840000</ele>
        <time>2009-08-26T10:18:31Z</time>
      </trkpt>
      <trkpt lat="50.672233" lon="6.480990">
        <ele>193.360000</ele>
        <time>2009-08-26T10:18:38Z</time>
      </trkpt>
      <trkpt lat="50.672155" lon="6.480866">
        <ele>192.880000</ele>
        <time>2009-08-26T10:18:47Z</time>
      </trkpt>
      <trkpt lat="50.671960" lon="6.480640">
        <ele>192.400000</ele>
        <time>2009-08-26T10:19:02Z</time>
      </trkpt>
      <trkpt lat="50.671815" lon="6.480581">
        <ele>191.920000</ele>
        <time>2009-08-26T10:19:13Z</time>
      </trkpt>
      <trkpt lat="50.671626" lon="6.480432">
        <ele>191.440000</ele>
        <time>2009-08-26T10:19:30Z</time>
      </trkpt>
      <trkpt lat="50.671528" lon="6.480395">
        <ele>190.960000</ele>
        <time>2009-08-26T10:19:37Z</time>
      </trkpt>
      <trkpt lat="50.671497" lon="6.480348">
        <ele>190.960000</ele>
        <time>2009-08-26T10:19:41Z</time>
      </trkpt>
      <trkpt lat="50.671340" lon="6.480106">
        <ele>190.480000</ele>
        <time>2009-08-26T10:19:54Z</time>
      </trkpt>
      <trkpt lat="50.671323" lon="6.480085">
        <ele>190.480000</ele>
        <time>2009-08-26T10:19:55Z</time>
      </trkpt>
      <trkpt lat="50.671297" lon="6.480091">
        <ele>190.480000</ele>
        <time>2009-08-26T10:19:58Z</time>
      </trkpt>
      <trkpt lat="50.671216" lon="6.479999">
        <ele>190.000000</ele>
        <time>2009-08-26T10:20:05Z</time>
      </trkpt>
      <trkpt lat="50.671157" lon="6.479916">
        <ele>190.000000</ele>
        <time>2009-08-26T10:20:10Z</time>
      </trkpt>
      <trkpt lat="50.671098" lon="6.479871">
        <ele>189.520000</ele>
        <time>2009-08-26T10:20:14Z</time>
      </trkpt>
      <trkpt lat="50.671019" lon="6.479688">
        <ele>190.000000</ele>
        <time>2009-08-26T10:20:25Z</time>
      </trkpt>
      <trkpt lat="50.670845" lon="6.479483">
        <ele>189.520000</ele>
        <time>2009-08-26T10:20:40Z</time>
      </trkpt>
      <trkpt lat="50.670715" lon="6.479308">
        <ele>189.520000</ele>
        <time>2009-08-26T10:20:53Z</time>
      </trkpt>
      <trkpt lat="50.670550" lon="6.479153">
        <ele>190.000000</ele>
        <time>2009-08-26T10:21:06Z</time>
      </trkpt>
      <trkpt lat="50.670529" lon="6.479137">
        <ele>190.000000</ele>
        <time>2009-08-26T10:21:08Z</time>
      </trkpt>
      <trkpt lat="50.670441" lon="6.479013">
        <ele>189.520000</ele>
        <time>2009-08-26T10:21:16Z</time>
      </trkpt>
      <trkpt lat="50.670370" lon="6.478947">
        <ele>189.520000</ele>
        <time>2009-08-26T10:21:23Z</time>
      </trkpt>
      <trkpt lat="50.670433" lon="6.478817">
        <ele>188.560000</ele>
        <time>2009-08-26T10:21:36Z</time>
      </trkpt>
      <trkpt lat="50.670632" lon="6.478494">
        <ele>187.110000</ele>
        <time>2009-08-26T10:21:53Z</time>
      </trkpt>
      <trkpt lat="50.670703" lon="6.478392">
        <ele>187.110000</ele>
        <time>2009-08-26T10:21:59Z</time>
      </trkpt>
      <trkpt lat="50.670861" lon="6.478173">
        <ele>187.110000</ele>
        <time>2009-08-26T10:22:15Z</time>
      </trkpt>
      <trkpt lat="50.670907" lon="6.478119">
        <ele>187.110000</ele>
        <time>2009-08-26T10:22:19Z</time>
      </trkpt>
      <trkpt lat="50.670939" lon="6.477975">
        <ele>187.590000</ele>
        <time>2009-08-26T10:22:24Z</time>
      </trkpt>
      <trkpt lat="50.670983" lon="6.477917">
        <ele>187.590000</ele>
        <time>2009-08-26T10:22:30Z</time>
      </trkpt>
      <trkpt lat="50.670982" lon="6.477926">
        <ele>187.590000</ele>
        <time>2009-08-26T10:22:32Z</time>
      </trkpt>
      <trkpt lat="50.671043" lon="6.477621">
        <ele>187.590000</ele>
        <time>2009-08-26T10:22:48Z</time>
      </trkpt>
      <trkpt lat="50.671107" lon="6.477285">
        <ele>187.590000</ele>
        <time>2009-08-26T10:23:02Z</time>
      </trkpt>
      <trkpt lat="50.671227" lon="6.477085">
        <ele>187.110000</ele>
        <time>2009-08-26T10:23:16Z</time>
      </trkpt>
      <trkpt lat="50.671334" lon="6.476993">
        <ele>187.110000</ele>
        <time>2009-08-26T10:23:29Z</time>
      </trkpt>
      <trkpt lat="50.671371" lon="6.476960">
        <ele>186.150000</ele>
        <time>2009-08-26T10:23:35Z</time>
      </trkpt>
      <trkpt lat="50.671437" lon="6.476873">
        <ele>186.150000</ele>
        <time>2009-08-26T10:23:42Z</time>
      </trkpt>
      <trkpt lat="50.671499" lon="6.476573">
        <ele>187.110000</ele>
        <time>2009-08-26T10:23:58Z</time>
      </trkpt>
      <trkpt lat="50.671486" lon="6.476448">
        <ele>187.110000</ele>
        <time>2009-08-26T10:24:02Z</time>
      </trkpt>
      <trkpt lat="50.671306" lon="6.476378">
        <ele>187.110000</ele>
        <time>2009-08-26T10:24:16Z</time>
      </trkpt>
      <trkpt lat="50.671279" lon="6.476383">
        <ele>187.110000</ele>
        <time>2009-08-26T10:24:18Z</time>
      </trkpt>
      <trkpt lat="50.671208" lon="6.476362">
        <ele>187.590000</ele>
        <time>2009-08-26T10:24:24Z</time>
      </trkpt>
      <trkpt lat="50.671034" lon="6.476347">
        <ele>187.590000</ele>
        <time>2009-08-26T10:24:38Z</time>
      </trkpt>
      <trkpt lat="50.670933" lon="6.476296">
        <ele>187.110000</ele>
        <time>2009-08-26T10:24:46Z</time>
      </trkpt>
      <trkpt lat="50.670749" lon="6.476138">
        <ele>186.630000</ele>
        <time>2009-08-26T10:25:00Z</time>
      </trkpt>
      <trkpt lat="50.670578" lon="6.475983">
        <ele>186.630000</ele>
        <time>2009-08-26T10:25:15Z</time>
      </trkpt>
      <trkpt lat="50.670532" lon="6.475960">
        <ele>187.110000</ele>
        <time>2009-08-26T10:25:18Z</time>
      </trkpt>
      <trkpt lat="50.670356" lon="6.475794">
        <ele>186.630000</ele>
        <time>2009-08-26T10:25:34Z</time>
      </trkpt>
      <trkpt lat="50.670220" lon="6.475630">
        <ele>186.630000</ele>
        <time>2009-08-26T10:25:46Z</time>
      </trkpt>
      <trkpt lat="50.670154" lon="6.475547">
        <ele>186.630000</ele>
        <time>2009-08-26T10:25:52Z</time>
      </trkpt>
      <trkpt lat="50.670115" lon="6.475486">
        <ele>186.630000</ele>
        <time>2009-08-26T10:25:56Z</time>
      </trkpt>
      <trkpt lat="50.670052" lon="6.475400">
        <ele>186.630000</ele>
        <time>2009-08-26T10:26:11Z</time>
      </trkpt>
      <trkpt lat="50.669917" lon="6.475108">
        <ele>187.110000</ele>
        <time>2009-08-26T10:26:26Z</time>
      </trkpt>
      <trkpt lat="50.669816" lon="6.474847">
        <ele>187.590000</ele>
        <time>2009-08-26T10:26:39Z</time>
      </trkpt>
      <trkpt lat="50.669747" lon="6.474693">
        <ele>187.590000</ele>
        <time>2009-08-26T10:26:49Z</time>
      </trkpt>
      <trkpt lat="50.669612" lon="6.474413">
        <ele>187.590000</ele>
        <time>2009-08-26T10:27:04Z</time>
      </trkpt>
      <trkpt lat="50.669517" lon="6.474154">
        <ele>188.080000</ele>
        <time>2009-08-26T10:27:18Z</time>
      </trkpt>
      <trkpt lat="50.669451" lon="6.474026">
        <ele>188.080000</ele>
        <time>2009-08-26T10:27:25Z</time>
      </trkpt>
      <trkpt lat="50.669386" lon="6.473829">
        <ele>188.560000</ele>
        <time>2009-08-26T10:27:36Z</time>
      </trkpt>
      <trkpt lat="50.669294" lon="6.473544">
        <ele>189.040000</ele>
        <time>2009-08-26T10:27:51Z</time>
      </trkpt>
      <trkpt lat="50.669273" lon="6.473511">
        <ele>189.040000</ele>
        <time>2009-08-26T10:27:53Z</time>
      </trkpt>
      <trkpt lat="50.669245" lon="6.473463">
        <ele>188.560000</ele>
        <time>2009-08-26T10:27:57Z</time>
      </trkpt>
      <trkpt lat="50.669209" lon="6.473399">
        <ele>188.560000</ele>
        <time>2009-08-26T10:28:01Z</time>
      </trkpt>
      <trkpt lat="50.669159" lon="6.473186">
        <ele>188.560000</ele>
        <time>2009-08-26T10:28:11Z</time>
      </trkpt>
      <trkpt lat="50.669018" lon="6.472863">
        <ele>189.040000</ele>
        <time>2009-08-26T10:28:27Z</time>
      </trkpt>
      <trkpt lat="50.668965" lon="6.472760">
        <ele>188.560000</ele>
        <time>2009-08-26T10:28:33Z</time>
      </trkpt>
      <trkpt lat="50.668927" lon="6.472724">
        <ele>189.040000</ele>
        <time>2009-08-26T10:28:36Z</time>
      </trkpt>
      <trkpt lat="50.668855" lon="6.472598">
        <ele>188.560000</ele>
        <time>2009-08-26T10:28:44Z</time>
      </trkpt>
      <trkpt lat="50.668758" lon="6.472360">
        <ele>189.040000</ele>
        <time>2009-08-26T10:28:58Z</time>
      </trkpt>
      <trkpt lat="50.668647" lon="6.472143">
        <ele>189.040000</ele>
        <time>2009-08-26T10:29:10Z</time>
      </trkpt>
      <trkpt lat="50.668578" lon="6.471898">
        <ele>189.040000</ele>
        <time>2009-08-26T10:29:23Z</time>
      </trkpt>
      <trkpt lat="50.668577" lon="6.471881">
        <ele>189.040000</ele>
        <time>2009-08-26T10:29:24Z</time>
      </trkpt>
      <trkpt lat="50.668490" lon="6.471677">
        <ele>189.520000</ele>
        <time>2009-08-26T10:29:35Z</time>
      </trkpt>
      <trkpt lat="50.668441" lon="6.471515">
        <ele>189.520000</ele>
        <time>2009-08-26T10:29:44Z</time>
      </trkpt>
      <trkpt lat="50.668346" lon="6.471288">
        <ele>190.000000</ele>
        <time>2009-08-26T10:29:55Z</time>
      </trkpt>
      <trkpt lat="50.668266" lon="6.471097">
        <ele>190.960000</ele>
        <time>2009-08-26T10:30:06Z</time>
      </trkpt>
      <trkpt lat="50.668271" lon="6.471019">
        <ele>190.960000</ele>
        <time>2009-08-26T10:30:09Z</time>
      </trkpt>
      <trkpt lat="50.668235" lon="6.470954">
        <ele>190.960000</ele>
        <time>2009-08-26T10:30:13Z</time>
      </trkpt>
      <trkpt lat="50.668124" lon="6.470701">
        <ele>191.440000</ele>
        <time>2009-08-26T10:30:26Z</time>
      </trkpt>
      <trkpt lat="50.668118" lon="6.470671">
        <ele>191.920000</ele>
        <time>2009-08-26T10:30:28Z</time>
      </trkpt>
      <trkpt lat="50.668080" lon="6.470620">
        <ele>191.920000</ele>
        <time>2009-08-26T10:30:32Z</time>
      </trkpt>
      <trkpt lat="50.667990" lon="6.470495">
        <ele>191.920000</ele>
        <time>2009-08-26T10:30:41Z</time>
      </trkpt>
      <trkpt lat="50.667865" lon="6.470283">
        <ele>192.400000</ele>
        <time>2009-08-26T10:30:54Z</time>
      </trkpt>
      <trkpt lat="50.667837" lon="6.470195">
        <ele>192.400000</ele>
        <time>2009-08-26T10:30:58Z</time>
      </trkpt>
      <trkpt lat="50.667809" lon="6.470107">
        <ele>192.400000</ele>
        <time>2009-08-26T10:31:02Z</time>
      </trkpt>
      <trkpt lat="50.667790" lon="6.470021">
        <ele>192.400000</ele>
        <time>2009-08-26T10:31:06Z</time>
      </trkpt>
      <trkpt lat="50.667743" lon="6.469887">
        <ele>192.880000</ele>
        <time>2009-08-26T10:31:13Z</time>
      </trkpt>
      <trkpt lat="50.667694" lon="6.469792">
        <ele>192.880000</ele>
        <time>2009-08-26T10:31:18Z</time>
      </trkpt>
      <trkpt lat="50.667570" lon="6.469560">
        <ele>192.880000</ele>
        <time>2009-08-26T10:31:32Z</time>
      </trkpt>
      <trkpt lat="50.667561" lon="6.469546">
        <ele>193.360000</ele>
        <time>2009-08-26T10:31:33Z</time>
      </trkpt>
      <trkpt lat="50.667479" lon="6.469489">
        <ele>192.880000</ele>
        <time>2009-08-26T10:31:39Z</time>
      </trkpt>
      <trkpt lat="50.667426" lon="6.469362">
        <ele>193.360000</ele>
        <time>2009-08-26T10:31:45Z</time>
      </trkpt>
      <trkpt lat="50.667373" lon="6.469275">
        <ele>192.880000</ele>
        <time>2009-08-26T10:31:50Z</time>
      </trkpt>
      <trkpt lat="50.667334" lon="6.469179">
        <ele>192.880000</ele>
        <time>2009-08-26T10:31:57Z</time>
      </trkpt>
      <trkpt lat="50.667308" lon="6.469128">
        <ele>192.880000</ele>
        <time>2009-08-26T10:32:00Z</time>
      </trkpt>
      <trkpt lat="50.667153" lon="6.468928">
        <ele>192.880000</ele>
        <time>2009-08-26T10:32:15Z</time>
      </trkpt>
      <trkpt lat="50.667145" lon="6.468921">
        <ele>192.880000</ele>
        <time>2009-08-26T10:32:16Z</time>
      </trkpt>
      <trkpt lat="50.667074" lon="6.468823">
        <ele>192.880000</ele>
        <time>2009-08-26T10:32:23Z</time>
      </trkpt>
      <trkpt lat="50.667055" lon="6.468793">
        <ele>192.880000</ele>
        <time>2009-08-26T10:32:25Z</time>
      </trkpt>
      <trkpt lat="50.666957" lon="6.468532">
        <ele>194.800000</ele>
        <time>2009-08-26T10:32:41Z</time>
      </trkpt>
      <trkpt lat="50.666947" lon="6.468515">
        <ele>194.800000</ele>
        <time>2009-08-26T10:32:42Z</time>
      </trkpt>
      <trkpt lat="50.666930" lon="6.468491">
        <ele>195.280000</ele>
        <time>2009-08-26T10:32:44Z</time>
      </trkpt>
      <trkpt lat="50.666923" lon="6.468399">
        <ele>195.770000</ele>
        <time>2009-08-26T10:32:48Z</time>
      </trkpt>
      <trkpt lat="50.666891" lon="6.468367">
        <ele>196.250000</ele>
        <time>2009-08-26T10:32:51Z</time>
      </trkpt>
      <trkpt lat="50.666882" lon="6.468330">
        <ele>196.730000</ele>
        <time>2009-08-26T10:32:53Z</time>
      </trkpt>
      <trkpt lat="50.666795" lon="6.468173">
        <ele>198.170000</ele>
        <time>2009-08-26T10:33:06Z</time>
      </trkpt>
      <trkpt lat="50.666667" lon="6.467830">
        <ele>201.050000</ele>
        <time>2009-08-26T10:33:24Z</time>
      </trkpt>
      <trkpt lat="50.666588" lon="6.467732">
        <ele>202.490000</ele>
        <time>2009-08-26T10:33:35Z</time>
      </trkpt>
      <trkpt lat="50.666588" lon="6.467621">
        <ele>202.980000</ele>
        <time>2009-08-26T10:33:39Z</time>
      </trkpt>
      <trkpt lat="50.666585" lon="6.467520">
        <ele>203.940000</ele>
        <time>2009-08-26T10:33:44Z</time>
      </trkpt>
      <trkpt lat="50.666468" lon="6.467315">
        <ele>205.860000</ele>
        <time>2009-08-26T10:33:58Z</time>
      </trkpt>
      <trkpt lat="50.666394" lon="6.467098">
        <ele>208.260000</ele>
        <time>2009-08-26T10:34:14Z</time>
      </trkpt>
      <trkpt lat="50.666352" lon="6.466997">
        <ele>209.220000</ele>
        <time>2009-08-26T10:34:19Z</time>
      </trkpt>
      <trkpt lat="50.666294" lon="6.466978">
        <ele>209.700000</ele>
        <time>2009-08-26T10:34:23Z</time>
      </trkpt>
      <trkpt lat="50.666253" lon="6.466916">
        <ele>210.190000</ele>
        <time>2009-08-26T10:34:27Z</time>
      </trkpt>
      <trkpt lat="50.666243" lon="6.466887">
        <ele>210.190000</ele>
        <time>2009-08-26T10:34:29Z</time>
      </trkpt>
      <trkpt lat="50.666222" lon="6.466891">
        <ele>210.670000</ele>
        <time>2009-08-26T10:34:31Z</time>
      </trkpt>
      <trkpt lat="50.666212" lon="6.466821">
        <ele>211.150000</ele>
        <time>2009-08-26T10:34:34Z</time>
      </trkpt>
      <trkpt lat="50.666125" lon="6.466672">
        <ele>212.110000</ele>
        <time>2009-08-26T10:34:46Z</time>
      </trkpt>
      <trkpt lat="50.666091" lon="6.466608">
        <ele>212.590000</ele>
        <time>2009-08-26T10:34:50Z</time>
      </trkpt>
      <trkpt lat="50.666035" lon="6.466461">
        <ele>213.550000</ele>
        <time>2009-08-26T10:34:59Z</time>
      </trkpt>
      <trkpt lat="50.666012" lon="6.466444">
        <ele>214.030000</ele>
        <time>2009-08-26T10:35:01Z</time>
      </trkpt>
      <trkpt lat="50.665983" lon="6.466343">
        <ele>214.510000</ele>
        <time>2009-08-26T10:35:07Z</time>
      </trkpt>
      <trkpt lat="50.665963" lon="6.466298">
        <ele>214.990000</ele>
        <time>2009-08-26T10:35:10Z</time>
      </trkpt>
      <trkpt lat="50.665926" lon="6.466014">
        <ele>216.910000</ele>
        <time>2009-08-26T10:35:26Z</time>
      </trkpt>
      <trkpt lat="50.665822" lon="6.465610">
        <ele>218.360000</ele>
        <time>2009-08-26T10:35:46Z</time>
      </trkpt>
      <trkpt lat="50.665661" lon="6.465332">
        <ele>220.760000</ele>
        <time>2009-08-26T10:36:04Z</time>
      </trkpt>
      <trkpt lat="50.665476" lon="6.465126">
        <ele>221.720000</ele>
        <time>2009-08-26T10:36:22Z</time>
      </trkpt>
      <trkpt lat="50.665297" lon="6.465009">
        <ele>222.680000</ele>
        <time>2009-08-26T10:36:40Z</time>
      </trkpt>
      <trkpt lat="50.665144" lon="6.464975">
        <ele>224.120000</ele>
        <time>2009-08-26T10:36:52Z</time>
      </trkpt>
      <trkpt lat="50.664963" lon="6.464773">
        <ele>225.570000</ele>
        <time>2009-08-26T10:37:05Z</time>
      </trkpt>
      <trkpt lat="50.664821" lon="6.464748">
        <ele>226.530000</ele>
        <time>2009-08-26T10:37:18Z</time>
      </trkpt>
      <trkpt lat="50.664795" lon="6.464760">
        <ele>226.530000</ele>
        <time>2009-08-26T10:37:19Z</time>
      </trkpt>
      <trkpt lat="50.664635" lon="6.464692">
        <ele>227.490000</ele>
        <time>2009-08-26T10:37:33Z</time>
      </trkpt>
      <trkpt lat="50.664389" lon="6.464554">
        <ele>228.450000</ele>
        <time>2009-08-26T10:37:51Z</time>
      </trkpt>
      <trkpt lat="50.664189" lon="6.464399">
        <ele>228.450000</ele>
        <time>2009-08-26T10:38:08Z</time>
      </trkpt>
      <trkpt lat="50.664149" lon="6.464323">
        <ele>228.450000</ele>
        <time>2009-08-26T10:38:12Z</time>
      </trkpt>
      <trkpt lat="50.664015" lon="6.464222">
        <ele>228.930000</ele>
        <time>2009-08-26T10:38:23Z</time>
      </trkpt>
      <trkpt lat="50.663850" lon="6.464172">
        <ele>228.930000</ele>
        <time>2009-08-26T10:38:35Z</time>
      </trkpt>
      <trkpt lat="50.663760" lon="6.464102">
        <ele>228.930000</ele>
        <time>2009-08-26T10:38:42Z</time>
      </trkpt>
      <trkpt lat="50.663694" lon="6.464109">
        <ele>229.410000</ele>
        <time>2009-08-26T10:38:46Z</time>
      </trkpt>
      <trkpt lat="50.663561" lon="6.463953">
        <ele>229.410000</ele>
        <time>2009-08-26T10:38:59Z</time>
      </trkpt>
      <trkpt lat="50.663516" lon="6.463819">
        <ele>229.410000</ele>
        <time>2009-08-26T10:39:04Z</time>
      </trkpt>
      <trkpt lat="50.663395" lon="6.463506">
        <ele>229.890000</ele>
        <time>2009-08-26T10:39:20Z</time>
      </trkpt>
      <trkpt lat="50.663390" lon="6.463498">
        <ele>229.890000</ele>
        <time>2009-08-26T10:39:21Z</time>
      </trkpt>
      <trkpt lat="50.663366" lon="6.463398">
        <ele>230.370000</ele>
        <time>2009-08-26T10:39:26Z</time>
      </trkpt>
      <trkpt lat="50.663245" lon="6.463172">
        <ele>231.330000</ele>
        <time>2009-08-26T10:39:41Z</time>
      </trkpt>
      <trkpt lat="50.663167" lon="6.462947">
        <ele>231.810000</ele>
        <time>2009-08-26T10:39:52Z</time>
      </trkpt>
      <trkpt lat="50.663071" lon="6.462796">
        <ele>232.780000</ele>
        <time>2009-08-26T10:40:03Z</time>
      </trkpt>
      <trkpt lat="50.663073" lon="6.462752">
        <ele>232.780000</ele>
        <time>2009-08-26T10:40:05Z</time>
      </trkpt>
      <trkpt lat="50.663016" lon="6.462650">
        <ele>233.260000</ele>
        <time>2009-08-26T10:40:13Z</time>
      </trkpt>
      <trkpt lat="50.663005" lon="6.462585">
        <ele>233.260000</ele>
        <time>2009-08-26T10:40:16Z</time>
      </trkpt>
      <trkpt lat="50.662878" lon="6.462327">
        <ele>234.220000</ele>
        <time>2009-08-26T10:40:33Z</time>
      </trkpt>
      <trkpt lat="50.662755" lon="6.462136">
        <ele>234.700000</ele>
        <time>2009-08-26T10:40:46Z</time>
      </trkpt>
      <trkpt lat="50.662667" lon="6.461979">
        <ele>234.700000</ele>
        <time>2009-08-26T10:41:03Z</time>
      </trkpt>
      <trkpt lat="50.662465" lon="6.461799">
        <ele>234.700000</ele>
        <time>2009-08-26T10:41:23Z</time>
      </trkpt>
      <trkpt lat="50.662395" lon="6.462020">
        <ele>233.740000</ele>
        <time>2009-08-26T10:41:41Z</time>
      </trkpt>
      <trkpt lat="50.662380" lon="6.462429">
        <ele>233.260000</ele>
        <time>2009-08-26T10:42:06Z</time>
      </trkpt>
      <trkpt lat="50.662440" lon="6.462622">
        <ele>229.890000</ele>
        <time>2009-08-26T10:42:18Z</time>
      </trkpt>
      <trkpt lat="50.662470" lon="6.462725">
        <ele>230.370000</ele>
        <time>2009-08-26T10:42:42Z</time>
      </trkpt>
      <trkpt lat="50.662466" lon="6.462703">
        <ele>227.490000</ele>
        <time>2009-08-26T10:42:50Z</time>
      </trkpt>
      <trkpt lat="50.662538" lon="6.462843">
        <ele>224.120000</ele>
        <time>2009-08-26T10:43:02Z</time>
      </trkpt>
      <trkpt lat="50.662586" lon="6.463097">
        <ele>221.240000</ele>
        <time>2009-08-26T10:43:14Z</time>
      </trkpt>
      <trkpt lat="50.662617" lon="6.463495">
        <ele>217.880000</ele>
        <time>2009-08-26T10:43:31Z</time>
      </trkpt>
      <trkpt lat="50.662669" lon="6.463577">
        <ele>217.880000</ele>
        <time>2009-08-26T10:43:36Z</time>
      </trkpt>
      <trkpt lat="50.662690" lon="6.463639">
        <ele>216.430000</ele>
        <time>2009-08-26T10:43:39Z</time>
      </trkpt>
      <trkpt lat="50.662774" lon="6.464031">
        <ele>213.550000</ele>
        <time>2009-08-26T10:43:58Z</time>
      </trkpt>
      <trkpt lat="50.662859" lon="6.464208">
        <ele>210.190000</ele>
        <time>2009-08-26T10:44:11Z</time>
      </trkpt>
      <trkpt lat="50.662890" lon="6.464266">
        <ele>207.300000</ele>
        <time>2009-08-26T10:44:21Z</time>
      </trkpt>
      <trkpt lat="50.663033" lon="6.464359">
        <ele>203.940000</ele>
        <time>2009-08-26T10:44:31Z</time>
      </trkpt>
      <trkpt lat="50.663071" lon="6.464449">
        <ele>201.050000</ele>
        <time>2009-08-26T10:44:42Z</time>
      </trkpt>
      <trkpt lat="50.663120" lon="6.464647">
        <ele>198.170000</ele>
        <time>2009-08-26T10:44:57Z</time>
      </trkpt>
      <trkpt lat="50.663109" lon="6.464827">
        <ele>194.800000</ele>
        <time>2009-08-26T10:45:10Z</time>
      </trkpt>
      <trkpt lat="50.663033" lon="6.464880">
        <ele>194.320000</ele>
        <time>2009-08-26T10:45:11Z</time>
      </trkpt>
      <trkpt lat="50.662868" lon="6.465009">
        <ele>192.880000</ele>
        <time>2009-08-26T10:45:21Z</time>
      </trkpt>
      <trkpt lat="50.662692" lon="6.465037">
        <ele>192.880000</ele>
        <time>2009-08-26T10:45:35Z</time>
      </trkpt>
      <trkpt lat="50.662498" lon="6.465042">
        <ele>192.880000</ele>
        <time>2009-08-26T10:45:46Z</time>
      </trkpt>
      <trkpt lat="50.662492" lon="6.465048">
        <ele>192.880000</ele>
        <time>2009-08-26T10:45:47Z</time>
      </trkpt>
      <trkpt lat="50.662368" lon="6.465080">
        <ele>193.360000</ele>
        <time>2009-08-26T10:45:55Z</time>
      </trkpt>
      <trkpt lat="50.662312" lon="6.465120">
        <ele>192.880000</ele>
        <time>2009-08-26T10:45:59Z</time>
      </trkpt>
      <trkpt lat="50.662237" lon="6.465167">
        <ele>193.360000</ele>
        <time>2009-08-26T10:46:05Z</time>
      </trkpt>
      <trkpt lat="50.662051" lon="6.465103">
        <ele>193.360000</ele>
        <time>2009-08-26T10:46:18Z</time>
      </trkpt>
      <trkpt lat="50.662005" lon="6.465100">
        <ele>193.360000</ele>
        <time>2009-08-26T10:46:22Z</time>
      </trkpt>
      <trkpt lat="50.661898" lon="6.465094">
        <ele>193.360000</ele>
        <time>2009-08-26T10:46:29Z</time>
      </trkpt>
      <trkpt lat="50.661782" lon="6.465054">
        <ele>193.360000</ele>
        <time>2009-08-26T10:46:40Z</time>
      </trkpt>
      <trkpt lat="50.661592" lon="6.465103">
        <ele>193.360000</ele>
        <time>2009-08-26T10:46:54Z</time>
      </trkpt>
      <trkpt lat="50.661471" lon="6.464939">
        <ele>194.320000</ele>
        <time>2009-08-26T10:47:06Z</time>
      </trkpt>
      <trkpt lat="50.661415" lon="6.464908">
        <ele>194.320000</ele>
        <time>2009-08-26T10:47:12Z</time>
      </trkpt>
      <trkpt lat="50.661225" lon="6.464982">
        <ele>193.840000</ele>
        <time>2009-08-26T10:47:34Z</time>
      </trkpt>
      <trkpt lat="50.661087" lon="6.465070">
        <ele>193.840000</ele>
        <time>2009-08-26T10:47:44Z</time>
      </trkpt>
      <trkpt lat="50.660767" lon="6.465277">
        <ele>193.840000</ele>
        <time>2009-08-26T10:48:05Z</time>
      </trkpt>
      <trkpt lat="50.660494" lon="6.465311">
        <ele>193.840000</ele>
        <time>2009-08-26T10:48:26Z</time>
      </trkpt>
      <trkpt lat="50.660274" lon="6.465456">
        <ele>193.840000</ele>
        <time>2009-08-26T10:48:47Z</time>
      </trkpt>
      <trkpt lat="50.660171" lon="6.465557">
        <ele>193.840000</ele>
        <time>2009-08-26T10:49:03Z</time>
      </trkpt>
      <trkpt lat="50.660020" lon="6.465669">
        <ele>193.360000</ele>
        <time>2009-08-26T10:49:19Z</time>
      </trkpt>
      <trkpt lat="50.659999" lon="6.465685">
        <ele>193.360000</ele>
        <time>2009-08-26T10:49:21Z</time>
      </trkpt>
      <trkpt lat="50.659854" lon="6.465784">
        <ele>193.360000</ele>
        <time>2009-08-26T10:49:40Z</time>
      </trkpt>
      <trkpt lat="50.659729" lon="6.465900">
        <ele>192.880000</ele>
        <time>2009-08-26T10:50:01Z</time>
      </trkpt>
      <trkpt lat="50.659523" lon="6.466157">
        <ele>192.880000</ele>
        <time>2009-08-26T10:50:16Z</time>
      </trkpt>
      <trkpt lat="50.659135" lon="6.466662">
        <ele>193.360000</ele>
        <time>2009-08-26T10:50:31Z</time>
      </trkpt>
      <trkpt lat="50.658958" lon="6.467259">
        <ele>192.880000</ele>
        <time>2009-08-26T10:50:56Z</time>
      </trkpt>
      <trkpt lat="50.658925" lon="6.467622">
        <ele>192.880000</ele>
        <time>2009-08-26T10:51:15Z</time>
      </trkpt>
      <trkpt lat="50.658888" lon="6.468048">
        <ele>193.360000</ele>
        <time>2009-08-26T10:51:36Z</time>
      </trkpt>
      <trkpt lat="50.658821" lon="6.468220">
        <ele>192.880000</ele>
        <time>2009-08-26T10:51:43Z</time>
      </trkpt>
      <trkpt lat="50.658799" lon="6.468447">
        <ele>192.880000</ele>
        <time>2009-08-26T10:51:52Z</time>
      </trkpt>
      <trkpt lat="50.658752" lon="6.468712">
        <ele>192.400000</ele>
        <time>2009-08-26T10:52:05Z</time>
      </trkpt>
      <trkpt lat="50.658757" lon="6.468740">
        <ele>192.880000</ele>
        <time>2009-08-26T10:52:07Z</time>
      </trkpt>
      <trkpt lat="50.658689" lon="6.468880">
        <ele>192.400000</ele>
        <time>2009-08-26T10:52:15Z</time>
      </trkpt>
      <trkpt lat="50.658709" lon="6.468978">
        <ele>192.400000</ele>
        <time>2009-08-26T10:52:21Z</time>
      </trkpt>
      <trkpt lat="50.658704" lon="6.469000">
        <ele>192.400000</ele>
        <time>2009-08-26T10:52:23Z</time>
      </trkpt>
      <trkpt lat="50.658588" lon="6.469230">
        <ele>192.400000</ele>
        <time>2009-08-26T10:52:35Z</time>
      </trkpt>
      <trkpt lat="50.658466" lon="6.469556">
        <ele>192.880000</ele>
        <time>2009-08-26T10:52:48Z</time>
      </trkpt>
      <trkpt lat="50.658455" lon="6.469652">
        <ele>192.880000</ele>
        <time>2009-08-26T10:52:52Z</time>
      </trkpt>
      <trkpt lat="50.658364" lon="6.469913">
        <ele>192.880000</ele>
        <time>2009-08-26T10:53:06Z</time>
      </trkpt>
      <trkpt lat="50.658361" lon="6.470191">
        <ele>192.400000</ele>
        <time>2009-08-26T10:53:20Z</time>
      </trkpt>
      <trkpt lat="50.658390" lon="6.470240">
        <ele>192.400000</ele>
        <time>2009-08-26T10:53:22Z</time>
      </trkpt>
      <trkpt lat="50.658367" lon="6.470530">
        <ele>193.360000</ele>
        <time>2009-08-26T10:53:37Z</time>
      </trkpt>
      <trkpt lat="50.658310" lon="6.470853">
        <ele>194.320000</ele>
        <time>2009-08-26T10:53:52Z</time>
      </trkpt>
      <trkpt lat="50.658284" lon="6.471126">
        <ele>195.770000</ele>
        <time>2009-08-26T10:54:07Z</time>
      </trkpt>
      <trkpt lat="50.658269" lon="6.471417">
        <ele>197.210000</ele>
        <time>2009-08-26T10:54:21Z</time>
      </trkpt>
      <trkpt lat="50.658310" lon="6.471717">
        <ele>197.210000</ele>
        <time>2009-08-26T10:54:36Z</time>
      </trkpt>
      <trkpt lat="50.658353" lon="6.471939">
        <ele>197.210000</ele>
        <time>2009-08-26T10:54:49Z</time>
      </trkpt>
      <trkpt lat="50.658335" lon="6.472084">
        <ele>197.690000</ele>
        <time>2009-08-26T10:55:13Z</time>
      </trkpt>
      <trkpt lat="50.658326" lon="6.472178">
        <ele>197.690000</ele>
        <time>2009-08-26T10:55:41Z</time>
      </trkpt>
      <trkpt lat="50.658305" lon="6.472260">
        <ele>197.690000</ele>
        <time>2009-08-26T10:55:47Z</time>
      </trkpt>
      <trkpt lat="50.658279" lon="6.472403">
        <ele>198.170000</ele>
        <time>2009-08-26T10:56:04Z</time>
      </trkpt>
      <trkpt lat="50.658261" lon="6.472460">
        <ele>198.170000</ele>
        <time>2009-08-26T10:56:08Z</time>
      </trkpt>
      <trkpt lat="50.658190" lon="6.472765">
        <ele>198.650000</ele>
        <time>2009-08-26T10:56:23Z</time>
      </trkpt>
      <trkpt lat="50.658143" lon="6.473019">
        <ele>199.130000</ele>
        <time>2009-08-26T10:56:35Z</time>
      </trkpt>
      <trkpt lat="50.658121" lon="6.473145">
        <ele>199.130000</ele>
        <time>2009-08-26T10:56:41Z</time>
      </trkpt>
      <trkpt lat="50.658056" lon="6.473453">
        <ele>199.610000</ele>
        <time>2009-08-26T10:56:56Z</time>
      </trkpt>
      <trkpt lat="50.658007" lon="6.473755">
        <ele>200.090000</ele>
        <time>2009-08-26T10:57:10Z</time>
      </trkpt>
      <trkpt lat="50.657952" lon="6.474064">
        <ele>200.570000</ele>
        <time>2009-08-26T10:57:25Z</time>
      </trkpt>
      <trkpt lat="50.657868" lon="6.474429">
        <ele>201.530000</ele>
        <time>2009-08-26T10:57:42Z</time>
      </trkpt>
      <trkpt lat="50.657813" lon="6.474746">
        <ele>202.490000</ele>
        <time>2009-08-26T10:57:57Z</time>
      </trkpt>
      <trkpt lat="50.657747" lon="6.475072">
        <ele>202.980000</ele>
        <time>2009-08-26T10:58:13Z</time>
      </trkpt>
      <trkpt lat="50.657679" lon="6.475427">
        <ele>203.460000</ele>
        <time>2009-08-26T10:58:30Z</time>
      </trkpt>
      <trkpt lat="50.657615" lon="6.475781">
        <ele>203.940000</ele>
        <time>2009-08-26T10:58:47Z</time>
      </trkpt>
      <trkpt lat="50.657618" lon="6.475898">
        <ele>204.420000</ele>
        <time>2009-08-26T10:58:52Z</time>
      </trkpt>
      <trkpt lat="50.657586" lon="6.476045">
        <ele>203.940000</ele>
        <time>2009-08-26T10:58:59Z</time>
      </trkpt>
      <trkpt lat="50.657552" lon="6.476372">
        <ele>204.420000</ele>
        <time>2009-08-26T10:59:15Z</time>
      </trkpt>
      <trkpt lat="50.657467" lon="6.476575">
        <ele>205.380000</ele>
        <time>2009-08-26T10:59:29Z</time>
      </trkpt>
      <trkpt lat="50.657374" lon="6.476786">
        <ele>204.900000</ele>
        <time>2009-08-26T10:59:43Z</time>
      </trkpt>
      <trkpt lat="50.657352" lon="6.476789">
        <ele>204.900000</ele>
        <time>2009-08-26T10:59:50Z</time>
      </trkpt>
      <trkpt lat="50.657197" lon="6.476540">
        <ele>205.380000</ele>
        <time>2009-08-26T11:00:06Z</time>
      </trkpt>
      <trkpt lat="50.657067" lon="6.476326">
        <ele>205.860000</ele>
        <time>2009-08-26T11:00:20Z</time>
      </trkpt>
      <trkpt lat="50.656918" lon="6.476109">
        <ele>206.820000</ele>
        <time>2009-08-26T11:00:34Z</time>
      </trkpt>
      <trkpt lat="50.656734" lon="6.475913">
        <ele>207.780000</ele>
        <time>2009-08-26T11:00:51Z</time>
      </trkpt>
      <trkpt lat="50.656596" lon="6.475868">
        <ele>208.740000</ele>
        <time>2009-08-26T11:01:04Z</time>
      </trkpt>
      <trkpt lat="50.656438" lon="6.475884">
        <ele>210.670000</ele>
        <time>2009-08-26T11:01:19Z</time>
      </trkpt>
      <trkpt lat="50.656298" lon="6.476141">
        <ele>212.110000</ele>
        <time>2009-08-26T11:01:34Z</time>
      </trkpt>
      <trkpt lat="50.656216" lon="6.476329">
        <ele>214.510000</ele>
        <time>2009-08-26T11:01:48Z</time>
      </trkpt>
      <trkpt lat="50.656112" lon="6.476489">
        <ele>216.910000</ele>
        <time>2009-08-26T11:02:03Z</time>
      </trkpt>
      <trkpt lat="50.656009" lon="6.476654">
        <ele>220.280000</ele>
        <time>2009-08-26T11:02:18Z</time>
      </trkpt>
      <trkpt lat="50.655853" lon="6.476932">
        <ele>223.160000</ele>
        <time>2009-08-26T11:02:37Z</time>
      </trkpt>
      <trkpt lat="50.655782" lon="6.477006">
        <ele>225.090000</ele>
        <time>2009-08-26T11:02:50Z</time>
      </trkpt>
      <trkpt lat="50.655675" lon="6.477076">
        <ele>226.050000</ele>
        <time>2009-08-26T11:03:08Z</time>
      </trkpt>
      <trkpt lat="50.655561" lon="6.477321">
        <ele>227.490000</ele>
        <time>2009-08-26T11:03:23Z</time>
      </trkpt>
      <trkpt lat="50.655542" lon="6.477382">
        <ele>227.490000</ele>
        <time>2009-08-26T11:03:26Z</time>
      </trkpt>
      <trkpt lat="50.655506" lon="6.477483">
        <ele>227.490000</ele>
        <time>2009-08-26T11:03:39Z</time>
      </trkpt>
      <trkpt lat="50.655535" lon="6.477729">
        <ele>228.450000</ele>
        <time>2009-08-26T11:03:54Z</time>
      </trkpt>
      <trkpt lat="50.655506" lon="6.477831">
        <ele>228.930000</ele>
        <time>2009-08-26T11:03:59Z</time>
      </trkpt>
      <trkpt lat="50.655392" lon="6.478170">
        <ele>229.410000</ele>
        <time>2009-08-26T11:04:13Z</time>
      </trkpt>
      <trkpt lat="50.655397" lon="6.478271">
        <ele>229.410000</ele>
        <time>2009-08-26T11:04:17Z</time>
      </trkpt>
      <trkpt lat="50.655434" lon="6.478414">
        <ele>229.410000</ele>
        <time>2009-08-26T11:04:25Z</time>
      </trkpt>
      <trkpt lat="50.655377" lon="6.478541">
        <ele>229.890000</ele>
        <time>2009-08-26T11:04:33Z</time>
      </trkpt>
      <trkpt lat="50.655339" lon="6.478660">
        <ele>230.370000</ele>
        <time>2009-08-26T11:04:40Z</time>
      </trkpt>
      <trkpt lat="50.655197" lon="6.479011">
        <ele>232.780000</ele>
        <time>2009-08-26T11:05:00Z</time>
      </trkpt>
      <trkpt lat="50.655038" lon="6.479287">
        <ele>234.220000</ele>
        <time>2009-08-26T11:05:21Z</time>
      </trkpt>
      <trkpt lat="50.654999" lon="6.479379">
        <ele>234.220000</ele>
        <time>2009-08-26T11:05:48Z</time>
      </trkpt>
      <trkpt lat="50.654890" lon="6.479553">
        <ele>235.180000</ele>
        <time>2009-08-26T11:06:04Z</time>
      </trkpt>
      <trkpt lat="50.654678" lon="6.479512">
        <ele>238.060000</ele>
        <time>2009-08-26T11:06:25Z</time>
      </trkpt>
      <trkpt lat="50.654458" lon="6.479640">
        <ele>238.060000</ele>
        <time>2009-08-26T11:06:43Z</time>
      </trkpt>
      <trkpt lat="50.654277" lon="6.479445">
        <ele>238.540000</ele>
        <time>2009-08-26T11:06:59Z</time>
      </trkpt>
      <trkpt lat="50.654144" lon="6.479254">
        <ele>239.510000</ele>
        <time>2009-08-26T11:07:12Z</time>
      </trkpt>
      <trkpt lat="50.653952" lon="6.479085">
        <ele>239.510000</ele>
        <time>2009-08-26T11:07:28Z</time>
      </trkpt>
      <trkpt lat="50.653750" lon="6.478916">
        <ele>240.470000</ele>
        <time>2009-08-26T11:07:45Z</time>
      </trkpt>
      <trkpt lat="50.653627" lon="6.478796">
        <ele>240.950000</ele>
        <time>2009-08-26T11:07:57Z</time>
      </trkpt>
      <trkpt lat="50.653493" lon="6.478662">
        <ele>241.430000</ele>
        <time>2009-08-26T11:08:11Z</time>
      </trkpt>
      <trkpt lat="50.653409" lon="6.478482">
        <ele>242.390000</ele>
        <time>2009-08-26T11:08:24Z</time>
      </trkpt>
      <trkpt lat="50.653404" lon="6.478382">
        <ele>241.910000</ele>
        <time>2009-08-26T11:08:28Z</time>
      </trkpt>
      <trkpt lat="50.653307" lon="6.478027">
        <ele>240.470000</ele>
        <time>2009-08-26T11:08:45Z</time>
      </trkpt>
      <trkpt lat="50.653249" lon="6.477819">
        <ele>239.020000</ele>
        <time>2009-08-26T11:08:56Z</time>
      </trkpt>
      <trkpt lat="50.653212" lon="6.477760">
        <ele>238.540000</ele>
        <time>2009-08-26T11:09:16Z</time>
      </trkpt>
      <trkpt lat="50.653166" lon="6.477596">
        <ele>237.100000</ele>
        <time>2009-08-26T11:11:26Z</time>
      </trkpt>
      <trkpt lat="50.653067" lon="6.477267">
        <ele>234.220000</ele>
        <time>2009-08-26T11:11:44Z</time>
      </trkpt>
      <trkpt lat="50.653045" lon="6.477220">
        <ele>233.740000</ele>
        <time>2009-08-26T11:11:47Z</time>
      </trkpt>
      <trkpt lat="50.652992" lon="6.477129">
        <ele>233.260000</ele>
        <time>2009-08-26T11:11:51Z</time>
      </trkpt>
      <trkpt lat="50.652970" lon="6.476997">
        <ele>231.810000</ele>
        <time>2009-08-26T11:11:59Z</time>
      </trkpt>
      <trkpt lat="50.652895" lon="6.476692">
        <ele>228.930000</ele>
        <time>2009-08-26T11:12:16Z</time>
      </trkpt>
      <trkpt lat="50.652871" lon="6.476547">
        <ele>227.490000</ele>
        <time>2009-08-26T11:12:25Z</time>
      </trkpt>
      <trkpt lat="50.652826" lon="6.476179">
        <ele>224.120000</ele>
        <time>2009-08-26T11:12:41Z</time>
      </trkpt>
      <trkpt lat="50.652712" lon="6.476061">
        <ele>220.760000</ele>
        <time>2009-08-26T11:12:54Z</time>
      </trkpt>
      <trkpt lat="50.652601" lon="6.476113">
        <ele>218.840000</ele>
        <time>2009-08-26T11:13:10Z</time>
      </trkpt>
      <trkpt lat="50.652377" lon="6.475875">
        <ele>218.360000</ele>
        <time>2009-08-26T11:13:30Z</time>
      </trkpt>
      <trkpt lat="50.652258" lon="6.475543">
        <ele>217.880000</ele>
        <time>2009-08-26T11:13:44Z</time>
      </trkpt>
      <trkpt lat="50.652223" lon="6.475515">
        <ele>217.880000</ele>
        <time>2009-08-26T11:13:49Z</time>
      </trkpt>
      <trkpt lat="50.652016" lon="6.475301">
        <ele>221.240000</ele>
        <time>2009-08-26T11:14:12Z</time>
      </trkpt>
      <trkpt lat="50.651901" lon="6.475137">
        <ele>218.840000</ele>
        <time>2009-08-26T11:14:32Z</time>
      </trkpt>
      <trkpt lat="50.651833" lon="6.475114">
        <ele>218.360000</ele>
        <time>2009-08-26T11:14:57Z</time>
      </trkpt>
      <trkpt lat="50.651863" lon="6.475060">
        <ele>217.880000</ele>
        <time>2009-08-26T11:15:23Z</time>
      </trkpt>
      <trkpt lat="50.651956" lon="6.475081">
        <ele>216.910000</ele>
        <time>2009-08-26T11:15:58Z</time>
      </trkpt>
      <trkpt lat="50.652066" lon="6.475341">
        <ele>214.030000</ele>
        <time>2009-08-26T11:16:17Z</time>
      </trkpt>
      <trkpt lat="50.652139" lon="6.475558">
        <ele>211.150000</ele>
        <time>2009-08-26T11:16:32Z</time>
      </trkpt>
      <trkpt lat="50.652180" lon="6.475814">
        <ele>207.780000</ele>
        <time>2009-08-26T11:16:49Z</time>
      </trkpt>
      <trkpt lat="50.652207" lon="6.475936">
        <ele>206.820000</ele>
        <time>2009-08-26T11:16:55Z</time>
      </trkpt>
      <trkpt lat="50.652328" lon="6.476213">
        <ele>203.460000</ele>
        <time>2009-08-26T11:17:11Z</time>
      </trkpt>
      <trkpt lat="50.652404" lon="6.476525">
        <ele>202.010000</ele>
        <time>2009-08-26T11:17:33Z</time>
      </trkpt>
      <trkpt lat="50.652405" lon="6.476557">
        <ele>202.010000</ele>
        <time>2009-08-26T11:17:34Z</time>
      </trkpt>
      <trkpt lat="50.652506" lon="6.476890">
        <ele>202.980000</ele>
        <time>2009-08-26T11:17:54Z</time>
      </trkpt>
      <trkpt lat="50.652617" lon="6.477219">
        <ele>202.010000</ele>
        <time>2009-08-26T11:18:14Z</time>
      </trkpt>
      <trkpt lat="50.652702" lon="6.477647">
        <ele>201.530000</ele>
        <time>2009-08-26T11:18:36Z</time>
      </trkpt>
      <trkpt lat="50.652726" lon="6.478137">
        <ele>201.050000</ele>
        <time>2009-08-26T11:18:57Z</time>
      </trkpt>
      <trkpt lat="50.652736" lon="6.478613">
        <ele>201.050000</ele>
        <time>2009-08-26T11:19:22Z</time>
      </trkpt>
      <trkpt lat="50.652723" lon="6.478739">
        <ele>201.050000</ele>
        <time>2009-08-26T11:19:27Z</time>
      </trkpt>
      <trkpt lat="50.652744" lon="6.479051">
        <ele>201.050000</ele>
        <time>2009-08-26T11:19:37Z</time>
      </trkpt>
      <trkpt lat="50.652736" lon="6.479154">
        <ele>201.050000</ele>
        <time>2009-08-26T11:19:42Z</time>
      </trkpt>
      <trkpt lat="50.652739" lon="6.479368">
        <ele>200.570000</ele>
        <time>2009-08-26T11:19:55Z</time>
      </trkpt>
      <trkpt lat="50.652716" lon="6.479647">
        <ele>200.090000</ele>
        <time>2009-08-26T11:20:10Z</time>
      </trkpt>
      <trkpt lat="50.652710" lon="6.479692">
        <ele>200.090000</ele>
        <time>2009-08-26T11:20:12Z</time>
      </trkpt>
      <trkpt lat="50.652675" lon="6.480065">
        <ele>199.610000</ele>
        <time>2009-08-26T11:20:26Z</time>
      </trkpt>
      <trkpt lat="50.652662" lon="6.480159">
        <ele>199.610000</ele>
        <time>2009-08-26T11:20:30Z</time>
      </trkpt>
      <trkpt lat="50.652662" lon="6.480266">
        <ele>199.610000</ele>
        <time>2009-08-26T11:20:35Z</time>
      </trkpt>
      <trkpt lat="50.652632" lon="6.480417">
        <ele>199.610000</ele>
        <time>2009-08-26T11:20:41Z</time>
      </trkpt>
      <trkpt lat="50.652637" lon="6.480595">
        <ele>199.130000</ele>
        <time>2009-08-26T11:20:48Z</time>
      </trkpt>
      <trkpt lat="50.652629" lon="6.480681">
        <ele>199.130000</ele>
        <time>2009-08-26T11:20:53Z</time>
      </trkpt>
      <trkpt lat="50.652603" lon="6.480991">
        <ele>199.130000</ele>
        <time>2009-08-26T11:21:06Z</time>
      </trkpt>
      <trkpt lat="50.652601" lon="6.481011">
        <ele>199.130000</ele>
        <time>2009-08-26T11:21:07Z</time>
      </trkpt>
      <trkpt lat="50.652599" lon="6.481361">
        <ele>199.130000</ele>
        <time>2009-08-26T11:21:21Z</time>
      </trkpt>
      <trkpt lat="50.652610" lon="6.481415">
        <ele>198.650000</ele>
        <time>2009-08-26T11:21:24Z</time>
      </trkpt>
      <trkpt lat="50.652600" lon="6.481445">
        <ele>198.650000</ele>
        <time>2009-08-26T11:21:26Z</time>
      </trkpt>
      <trkpt lat="50.652613" lon="6.481542">
        <ele>198.650000</ele>
        <time>2009-08-26T11:21:31Z</time>
      </trkpt>
      <trkpt lat="50.652615" lon="6.481638">
        <ele>198.650000</ele>
        <time>2009-08-26T11:21:35Z</time>
      </trkpt>
      <trkpt lat="50.652637" lon="6.481951">
        <ele>198.650000</ele>
        <time>2009-08-26T11:21:50Z</time>
      </trkpt>
      <trkpt lat="50.652674" lon="6.482244">
        <ele>198.650000</ele>
        <time>2009-08-26T11:22:05Z</time>
      </trkpt>
      <trkpt lat="50.652681" lon="6.482588">
        <ele>198.650000</ele>
        <time>2009-08-26T11:22:19Z</time>
      </trkpt>
      <trkpt lat="50.652680" lon="6.482620">
        <ele>198.650000</ele>
        <time>2009-08-26T11:22:21Z</time>
      </trkpt>
      <trkpt lat="50.652745" lon="6.482860">
        <ele>198.650000</ele>
        <time>2009-08-26T11:22:34Z</time>
      </trkpt>
      <trkpt lat="50.652798" lon="6.483186">
        <ele>198.170000</ele>
        <time>2009-08-26T11:22:49Z</time>
      </trkpt>
      <trkpt lat="50.652820" lon="6.483489">
        <ele>198.170000</ele>
        <time>2009-08-26T11:23:02Z</time>
      </trkpt>
      <trkpt lat="50.652844" lon="6.483691">
        <ele>198.170000</ele>
        <time>2009-08-26T11:23:11Z</time>
      </trkpt>
      <trkpt lat="50.652843" lon="6.483966">
        <ele>198.170000</ele>
        <time>2009-08-26T11:23:23Z</time>
      </trkpt>
      <trkpt lat="50.652879" lon="6.484294">
        <ele>198.170000</ele>
        <time>2009-08-26T11:23:39Z</time>
      </trkpt>
      <trkpt lat="50.652866" lon="6.484600">
        <ele>198.170000</ele>
        <time>2009-08-26T11:23:53Z</time>
      </trkpt>
      <trkpt lat="50.652869" lon="6.484641">
        <ele>198.170000</ele>
        <time>2009-08-26T11:23:55Z</time>
      </trkpt>
      <trkpt lat="50.652870" lon="6.484869">
        <ele>198.170000</ele>
        <time>2009-08-26T11:24:06Z</time>
      </trkpt>
      <trkpt lat="50.652852" lon="6.485008">
        <ele>198.170000</ele>
        <time>2009-08-26T11:24:11Z</time>
      </trkpt>
      <trkpt lat="50.652868" lon="6.485315">
        <ele>197.690000</ele>
        <time>2009-08-26T11:24:25Z</time>
      </trkpt>
      <trkpt lat="50.652935" lon="6.485642">
        <ele>198.170000</ele>
        <time>2009-08-26T11:24:41Z</time>
      </trkpt>
      <trkpt lat="50.652966" lon="6.485818">
        <ele>198.170000</ele>
        <time>2009-08-26T11:24:50Z</time>
      </trkpt>
      <trkpt lat="50.652977" lon="6.485955">
        <ele>198.170000</ele>
        <time>2009-08-26T11:24:56Z</time>
      </trkpt>
      <trkpt lat="50.652991" lon="6.486031">
        <ele>198.170000</ele>
        <time>2009-08-26T11:24:59Z</time>
      </trkpt>
      <trkpt lat="50.653028" lon="6.486098">
        <ele>198.650000</ele>
        <time>2009-08-26T11:25:03Z</time>
      </trkpt>
      <trkpt lat="50.653125" lon="6.486490">
        <ele>198.170000</ele>
        <time>2009-08-26T11:25:21Z</time>
      </trkpt>
      <trkpt lat="50.653132" lon="6.486512">
        <ele>198.170000</ele>
        <time>2009-08-26T11:25:22Z</time>
      </trkpt>
      <trkpt lat="50.653166" lon="6.486582">
        <ele>198.170000</ele>
        <time>2009-08-26T11:25:26Z</time>
      </trkpt>
      <trkpt lat="50.653187" lon="6.486627">
        <ele>198.170000</ele>
        <time>2009-08-26T11:25:29Z</time>
      </trkpt>
      <trkpt lat="50.653199" lon="6.486668">
        <ele>197.690000</ele>
        <time>2009-08-26T11:25:32Z</time>
      </trkpt>
      <trkpt lat="50.653276" lon="6.486934">
        <ele>197.690000</ele>
        <time>2009-08-26T11:25:46Z</time>
      </trkpt>
      <trkpt lat="50.653367" lon="6.487250">
        <ele>197.690000</ele>
        <time>2009-08-26T11:26:02Z</time>
      </trkpt>
      <trkpt lat="50.653434" lon="6.487459">
        <ele>197.690000</ele>
        <time>2009-08-26T11:26:15Z</time>
      </trkpt>
      <trkpt lat="50.653550" lon="6.487781">
        <ele>198.170000</ele>
        <time>2009-08-26T11:26:30Z</time>
      </trkpt>
      <trkpt lat="50.653646" lon="6.488012">
        <ele>198.650000</ele>
        <time>2009-08-26T11:26:41Z</time>
      </trkpt>
      <trkpt lat="50.653727" lon="6.488309">
        <ele>198.650000</ele>
        <time>2009-08-26T11:26:56Z</time>
      </trkpt>
      <trkpt lat="50.653848" lon="6.488569">
        <ele>198.170000</ele>
        <time>2009-08-26T11:27:10Z</time>
      </trkpt>
      <trkpt lat="50.653862" lon="6.488598">
        <ele>198.170000</ele>
        <time>2009-08-26T11:27:12Z</time>
      </trkpt>
      <trkpt lat="50.653907" lon="6.488735">
        <ele>197.690000</ele>
        <time>2009-08-26T11:27:19Z</time>
      </trkpt>
      <trkpt lat="50.653936" lon="6.488798">
        <ele>197.210000</ele>
        <time>2009-08-26T11:27:23Z</time>
      </trkpt>
      <trkpt lat="50.653953" lon="6.488880">
        <ele>197.690000</ele>
        <time>2009-08-26T11:27:27Z</time>
      </trkpt>
      <trkpt lat="50.654001" lon="6.489024">
        <ele>197.690000</ele>
        <time>2009-08-26T11:27:36Z</time>
      </trkpt>
      <trkpt lat="50.654089" lon="6.489227">
        <ele>198.170000</ele>
        <time>2009-08-26T11:27:48Z</time>
      </trkpt>
      <trkpt lat="50.654203" lon="6.489506">
        <ele>198.170000</ele>
        <time>2009-08-26T11:28:01Z</time>
      </trkpt>
      <trkpt lat="50.654228" lon="6.489592">
        <ele>198.170000</ele>
        <time>2009-08-26T11:28:06Z</time>
      </trkpt>
      <trkpt lat="50.654281" lon="6.489853">
        <ele>197.690000</ele>
        <time>2009-08-26T11:28:20Z</time>
      </trkpt>
      <trkpt lat="50.654336" lon="6.490046">
        <ele>197.690000</ele>
        <time>2009-08-26T11:28:29Z</time>
      </trkpt>
      <trkpt lat="50.654334" lon="6.490236">
        <ele>198.170000</ele>
        <time>2009-08-26T11:28:39Z</time>
      </trkpt>
      <trkpt lat="50.654400" lon="6.490549">
        <ele>198.650000</ele>
        <time>2009-08-26T11:28:56Z</time>
      </trkpt>
      <trkpt lat="50.654405" lon="6.490572">
        <ele>198.170000</ele>
        <time>2009-08-26T11:28:57Z</time>
      </trkpt>
      <trkpt lat="50.654401" lon="6.490719">
        <ele>198.170000</ele>
        <time>2009-08-26T11:29:04Z</time>
      </trkpt>
      <trkpt lat="50.654366" lon="6.491005">
        <ele>197.210000</ele>
        <time>2009-08-26T11:29:17Z</time>
      </trkpt>
      <trkpt lat="50.654379" lon="6.491098">
        <ele>197.210000</ele>
        <time>2009-08-26T11:29:32Z</time>
      </trkpt>
      <trkpt lat="50.654339" lon="6.491153">
        <ele>197.210000</ele>
        <time>2009-08-26T11:29:36Z</time>
      </trkpt>
      <trkpt lat="50.654260" lon="6.491298">
        <ele>197.210000</ele>
        <time>2009-08-26T11:29:43Z</time>
      </trkpt>
      <trkpt lat="50.654167" lon="6.491553">
        <ele>196.730000</ele>
        <time>2009-08-26T11:29:55Z</time>
      </trkpt>
      <trkpt lat="50.654142" lon="6.491628">
        <ele>196.250000</ele>
        <time>2009-08-26T11:29:59Z</time>
      </trkpt>
      <trkpt lat="50.654141" lon="6.491754">
        <ele>196.730000</ele>
        <time>2009-08-26T11:30:07Z</time>
      </trkpt>
      <trkpt lat="50.654085" lon="6.491953">
        <ele>196.730000</ele>
        <time>2009-08-26T11:30:17Z</time>
      </trkpt>
      <trkpt lat="50.653989" lon="6.492139">
        <ele>196.730000</ele>
        <time>2009-08-26T11:30:30Z</time>
      </trkpt>
      <trkpt lat="50.653770" lon="6.492152">
        <ele>198.170000</ele>
        <time>2009-08-26T11:30:44Z</time>
      </trkpt>
      <trkpt lat="50.653649" lon="6.492182">
        <ele>198.170000</ele>
        <time>2009-08-26T11:30:57Z</time>
      </trkpt>
      <trkpt lat="50.653567" lon="6.492217">
        <ele>197.690000</ele>
        <time>2009-08-26T11:31:15Z</time>
      </trkpt>
      <trkpt lat="50.653430" lon="6.492257">
        <ele>197.210000</ele>
        <time>2009-08-26T11:31:28Z</time>
      </trkpt>
      <trkpt lat="50.653372" lon="6.492279">
        <ele>197.210000</ele>
        <time>2009-08-26T11:31:36Z</time>
      </trkpt>
      <trkpt lat="50.653183" lon="6.492388">
        <ele>197.210000</ele>
        <time>2009-08-26T11:31:52Z</time>
      </trkpt>
      <trkpt lat="50.652926" lon="6.492572">
        <ele>198.170000</ele>
        <time>2009-08-26T11:32:12Z</time>
      </trkpt>
      <trkpt lat="50.652921" lon="6.492556">
        <ele>198.650000</ele>
        <time>2009-08-26T11:32:13Z</time>
      </trkpt>
      <trkpt lat="50.652805" lon="6.492550">
        <ele>199.130000</ele>
        <time>2009-08-26T11:32:32Z</time>
      </trkpt>
      <trkpt lat="50.652800" lon="6.492636">
        <ele>199.130000</ele>
        <time>2009-08-26T11:32:49Z</time>
      </trkpt>
      <trkpt lat="50.652787" lon="6.492814">
        <ele>199.610000</ele>
        <time>2009-08-26T11:33:04Z</time>
      </trkpt>
      <trkpt lat="50.652719" lon="6.493034">
        <ele>199.610000</ele>
        <time>2009-08-26T11:33:21Z</time>
      </trkpt>
      <trkpt lat="50.652689" lon="6.493091">
        <ele>200.090000</ele>
        <time>2009-08-26T11:33:25Z</time>
      </trkpt>
      <trkpt lat="50.652519" lon="6.493197">
        <ele>202.490000</ele>
        <time>2009-08-26T11:33:39Z</time>
      </trkpt>
      <trkpt lat="50.652435" lon="6.493256">
        <ele>202.980000</ele>
        <time>2009-08-26T11:33:47Z</time>
      </trkpt>
      <trkpt lat="50.652387" lon="6.493366">
        <ele>202.980000</ele>
        <time>2009-08-26T11:33:52Z</time>
      </trkpt>
      <trkpt lat="50.652402" lon="6.493436">
        <ele>203.460000</ele>
        <time>2009-08-26T11:33:58Z</time>
      </trkpt>
      <trkpt lat="50.652447" lon="6.493653">
        <ele>204.420000</ele>
        <time>2009-08-26T11:34:10Z</time>
      </trkpt>
      <trkpt lat="50.652452" lon="6.493951">
        <ele>205.380000</ele>
        <time>2009-08-26T11:34:23Z</time>
      </trkpt>
      <trkpt lat="50.652339" lon="6.494108">
        <ele>206.820000</ele>
        <time>2009-08-26T11:34:35Z</time>
      </trkpt>
      <trkpt lat="50.652177" lon="6.494212">
        <ele>208.260000</ele>
        <time>2009-08-26T11:34:51Z</time>
      </trkpt>
      <trkpt lat="50.652030" lon="6.494218">
        <ele>209.220000</ele>
        <time>2009-08-26T11:34:57Z</time>
      </trkpt>
      <trkpt lat="50.651859" lon="6.494235">
        <ele>211.150000</ele>
        <time>2009-08-26T11:35:11Z</time>
      </trkpt>
      <trkpt lat="50.651708" lon="6.494279">
        <ele>212.590000</ele>
        <time>2009-08-26T11:35:24Z</time>
      </trkpt>
      <trkpt lat="50.651586" lon="6.494298">
        <ele>214.030000</ele>
        <time>2009-08-26T11:35:36Z</time>
      </trkpt>
      <trkpt lat="50.651483" lon="6.494232">
        <ele>214.990000</ele>
        <time>2009-08-26T11:35:48Z</time>
      </trkpt>
      <trkpt lat="50.651469" lon="6.494073">
        <ele>215.470000</ele>
        <time>2009-08-26T11:35:54Z</time>
      </trkpt>
      <trkpt lat="50.651463" lon="6.493937">
        <ele>215.470000</ele>
        <time>2009-08-26T11:36:07Z</time>
      </trkpt>
      <trkpt lat="50.651516" lon="6.493669">
        <ele>216.430000</ele>
        <time>2009-08-26T11:36:20Z</time>
      </trkpt>
      <trkpt lat="50.651481" lon="6.493539">
        <ele>216.910000</ele>
        <time>2009-08-26T11:36:29Z</time>
      </trkpt>
      <trkpt lat="50.651373" lon="6.493416">
        <ele>217.880000</ele>
        <time>2009-08-26T11:36:42Z</time>
      </trkpt>
      <trkpt lat="50.651383" lon="6.493401">
        <ele>217.880000</ele>
        <time>2009-08-26T11:36:43Z</time>
      </trkpt>
      <trkpt lat="50.651420" lon="6.493327">
        <ele>217.880000</ele>
        <time>2009-08-26T11:37:02Z</time>
      </trkpt>
      <trkpt lat="50.651386" lon="6.493353">
        <ele>217.880000</ele>
        <time>2009-08-26T11:38:43Z</time>
      </trkpt>
      <trkpt lat="50.651284" lon="6.493555">
        <ele>218.840000</ele>
        <time>2009-08-26T11:38:56Z</time>
      </trkpt>
      <trkpt lat="50.651283" lon="6.493598">
        <ele>219.320000</ele>
        <time>2009-08-26T11:38:59Z</time>
      </trkpt>
      <trkpt lat="50.651138" lon="6.493681">
        <ele>221.240000</ele>
        <time>2009-08-26T11:39:10Z</time>
      </trkpt>
      <trkpt lat="50.651026" lon="6.493738">
        <ele>222.680000</ele>
        <time>2009-08-26T11:39:20Z</time>
      </trkpt>
      <trkpt lat="50.650802" lon="6.493784">
        <ele>225.090000</ele>
        <time>2009-08-26T11:39:38Z</time>
      </trkpt>
      <trkpt lat="50.650715" lon="6.493814">
        <ele>226.050000</ele>
        <time>2009-08-26T11:39:46Z</time>
      </trkpt>
      <trkpt lat="50.650606" lon="6.493882">
        <ele>227.490000</ele>
        <time>2009-08-26T11:39:59Z</time>
      </trkpt>
      <trkpt lat="50.650464" lon="6.493866">
        <ele>229.890000</ele>
        <time>2009-08-26T11:40:14Z</time>
      </trkpt>
      <trkpt lat="50.650388" lon="6.493851">
        <ele>230.850000</ele>
        <time>2009-08-26T11:40:31Z</time>
      </trkpt>
      <trkpt lat="50.650410" lon="6.493837">
        <ele>231.330000</ele>
        <time>2009-08-26T11:40:33Z</time>
      </trkpt>
      <trkpt lat="50.650505" lon="6.493780">
        <ele>231.810000</ele>
        <time>2009-08-26T11:40:40Z</time>
      </trkpt>
      <trkpt lat="50.650493" lon="6.493689">
        <ele>233.260000</ele>
        <time>2009-08-26T11:40:50Z</time>
      </trkpt>
      <trkpt lat="50.650480" lon="6.493543">
        <ele>233.260000</ele>
        <time>2009-08-26T11:41:02Z</time>
      </trkpt>
      <trkpt lat="50.650458" lon="6.493413">
        <ele>234.700000</ele>
        <time>2009-08-26T11:41:10Z</time>
      </trkpt>
      <trkpt lat="50.650434" lon="6.493203">
        <ele>237.100000</ele>
        <time>2009-08-26T11:41:25Z</time>
      </trkpt>
      <trkpt lat="50.650404" lon="6.493055">
        <ele>240.470000</ele>
        <time>2009-08-26T11:41:39Z</time>
      </trkpt>
      <trkpt lat="50.650517" lon="6.492907">
        <ele>243.350000</ele>
        <time>2009-08-26T11:41:55Z</time>
      </trkpt>
      <trkpt lat="50.650575" lon="6.492582">
        <ele>243.830000</ele>
        <time>2009-08-26T11:42:14Z</time>
      </trkpt>
      <trkpt lat="50.650516" lon="6.492279">
        <ele>244.310000</ele>
        <time>2009-08-26T11:42:29Z</time>
      </trkpt>
      <trkpt lat="50.650449" lon="6.492060">
        <ele>244.310000</ele>
        <time>2009-08-26T11:42:41Z</time>
      </trkpt>
      <trkpt lat="50.650425" lon="6.492003">
        <ele>244.790000</ele>
        <time>2009-08-26T11:42:43Z</time>
      </trkpt>
      <trkpt lat="50.650371" lon="6.491884">
        <ele>244.790000</ele>
        <time>2009-08-26T11:42:50Z</time>
      </trkpt>
      <trkpt lat="50.650274" lon="6.491661">
        <ele>244.790000</ele>
        <time>2009-08-26T11:43:01Z</time>
      </trkpt>
      <trkpt lat="50.650279" lon="6.491588">
        <ele>244.790000</ele>
        <time>2009-08-26T11:43:04Z</time>
      </trkpt>
      <trkpt lat="50.650213" lon="6.491424">
        <ele>245.270000</ele>
        <time>2009-08-26T11:43:14Z</time>
      </trkpt>
      <trkpt lat="50.650158" lon="6.491190">
        <ele>244.790000</ele>
        <time>2009-08-26T11:43:26Z</time>
      </trkpt>
      <trkpt lat="50.650153" lon="6.491108">
        <ele>244.790000</ele>
        <time>2009-08-26T11:43:30Z</time>
      </trkpt>
      <trkpt lat="50.650128" lon="6.491031">
        <ele>244.790000</ele>
        <time>2009-08-26T11:43:34Z</time>
      </trkpt>
      <trkpt lat="50.650046" lon="6.490766">
        <ele>243.830000</ele>
        <time>2009-08-26T11:43:49Z</time>
      </trkpt>
      <trkpt lat="50.649957" lon="6.490543">
        <ele>243.350000</ele>
        <time>2009-08-26T11:44:04Z</time>
      </trkpt>
      <trkpt lat="50.649950" lon="6.490532">
        <ele>243.350000</ele>
        <time>2009-08-26T11:44:05Z</time>
      </trkpt>
      <trkpt lat="50.649882" lon="6.490303">
        <ele>242.390000</ele>
        <time>2009-08-26T11:44:18Z</time>
      </trkpt>
      <trkpt lat="50.649888" lon="6.490259">
        <ele>242.390000</ele>
        <time>2009-08-26T11:44:20Z</time>
      </trkpt>
      <trkpt lat="50.649836" lon="6.490077">
        <ele>241.910000</ele>
        <time>2009-08-26T11:44:29Z</time>
      </trkpt>
      <trkpt lat="50.649782" lon="6.489918">
        <ele>240.950000</ele>
        <time>2009-08-26T11:44:37Z</time>
      </trkpt>
      <trkpt lat="50.649726" lon="6.489644">
        <ele>239.510000</ele>
        <time>2009-08-26T11:44:50Z</time>
      </trkpt>
      <trkpt lat="50.649740" lon="6.489460">
        <ele>238.540000</ele>
        <time>2009-08-26T11:44:58Z</time>
      </trkpt>
      <trkpt lat="50.649754" lon="6.489382">
        <ele>238.060000</ele>
        <time>2009-08-26T11:45:02Z</time>
      </trkpt>
      <trkpt lat="50.649730" lon="6.489099">
        <ele>236.140000</ele>
        <time>2009-08-26T11:45:17Z</time>
      </trkpt>
      <trkpt lat="50.649704" lon="6.488855">
        <ele>234.700000</ele>
        <time>2009-08-26T11:45:29Z</time>
      </trkpt>
      <trkpt lat="50.649698" lon="6.488803">
        <ele>234.220000</ele>
        <time>2009-08-26T11:45:32Z</time>
      </trkpt>
      <trkpt lat="50.649692" lon="6.488685">
        <ele>233.740000</ele>
        <time>2009-08-26T11:45:39Z</time>
      </trkpt>
      <trkpt lat="50.649620" lon="6.488533">
        <ele>233.740000</ele>
        <time>2009-08-26T11:45:50Z</time>
      </trkpt>
      <trkpt lat="50.649619" lon="6.488472">
        <ele>234.700000</ele>
        <time>2009-08-26T11:45:54Z</time>
      </trkpt>
      <trkpt lat="50.649547" lon="6.488221">
        <ele>235.660000</ele>
        <time>2009-08-26T11:46:08Z</time>
      </trkpt>
      <trkpt lat="50.649548" lon="6.488151">
        <ele>235.180000</ele>
        <time>2009-08-26T11:46:12Z</time>
      </trkpt>
      <trkpt lat="50.649550" lon="6.488116">
        <ele>235.180000</ele>
        <time>2009-08-26T11:46:14Z</time>
      </trkpt>
      <trkpt lat="50.649452" lon="6.488040">
        <ele>235.180000</ele>
        <time>2009-08-26T11:46:24Z</time>
      </trkpt>
      <trkpt lat="50.649441" lon="6.487722">
        <ele>234.700000</ele>
        <time>2009-08-26T11:46:39Z</time>
      </trkpt>
      <trkpt lat="50.649476" lon="6.487506">
        <ele>234.220000</ele>
        <time>2009-08-26T11:46:50Z</time>
      </trkpt>
      <trkpt lat="50.649450" lon="6.487435">
        <ele>234.220000</ele>
        <time>2009-08-26T11:46:55Z</time>
      </trkpt>
      <trkpt lat="50.649470" lon="6.487171">
        <ele>233.740000</ele>
        <time>2009-08-26T11:47:08Z</time>
      </trkpt>
      <trkpt lat="50.649539" lon="6.486978">
        <ele>233.260000</ele>
        <time>2009-08-26T11:47:21Z</time>
      </trkpt>
      <trkpt lat="50.649415" lon="6.486671">
        <ele>232.780000</ele>
        <time>2009-08-26T11:47:33Z</time>
      </trkpt>
      <trkpt lat="50.649445" lon="6.486459">
        <ele>232.300000</ele>
        <time>2009-08-26T11:47:42Z</time>
      </trkpt>
      <trkpt lat="50.649422" lon="6.486161">
        <ele>231.810000</ele>
        <time>2009-08-26T11:47:56Z</time>
      </trkpt>
      <trkpt lat="50.649477" lon="6.485975">
        <ele>231.810000</ele>
        <time>2009-08-26T11:48:07Z</time>
      </trkpt>
      <trkpt lat="50.649463" lon="6.485821">
        <ele>232.300000</ele>
        <time>2009-08-26T11:48:17Z</time>
      </trkpt>
      <trkpt lat="50.649444" lon="6.485660">
        <ele>233.260000</ele>
        <time>2009-08-26T11:48:28Z</time>
      </trkpt>
      <trkpt lat="50.649438" lon="6.485202">
        <ele>235.180000</ele>
        <time>2009-08-26T11:48:49Z</time>
      </trkpt>
      <trkpt lat="50.649416" lon="6.484871">
        <ele>236.620000</ele>
        <time>2009-08-26T11:49:07Z</time>
      </trkpt>
      <trkpt lat="50.649448" lon="6.484457">
        <ele>238.060000</ele>
        <time>2009-08-26T11:49:26Z</time>
      </trkpt>
      <trkpt lat="50.649451" lon="6.484393">
        <ele>238.060000</ele>
        <time>2009-08-26T11:49:29Z</time>
      </trkpt>
      <trkpt lat="50.649415" lon="6.484295">
        <ele>238.540000</ele>
        <time>2009-08-26T11:49:34Z</time>
      </trkpt>
      <trkpt lat="50.649334" lon="6.484124">
        <ele>239.990000</ele>
        <time>2009-08-26T11:49:47Z</time>
      </trkpt>
      <trkpt lat="50.649232" lon="6.483782">
        <ele>241.910000</ele>
        <time>2009-08-26T11:50:08Z</time>
      </trkpt>
      <trkpt lat="50.649069" lon="6.483504">
        <ele>242.390000</ele>
        <time>2009-08-26T11:50:26Z</time>
      </trkpt>
      <trkpt lat="50.648912" lon="6.483240">
        <ele>242.390000</ele>
        <time>2009-08-26T11:50:45Z</time>
      </trkpt>
      <trkpt lat="50.648789" lon="6.483178">
        <ele>241.910000</ele>
        <time>2009-08-26T11:50:56Z</time>
      </trkpt>
      <trkpt lat="50.648689" lon="6.483130">
        <ele>241.430000</ele>
        <time>2009-08-26T11:51:15Z</time>
      </trkpt>
      <trkpt lat="50.648462" lon="6.482939">
        <ele>243.350000</ele>
        <time>2009-08-26T11:53:05Z</time>
      </trkpt>
      <trkpt lat="50.648333" lon="6.482709">
        <ele>244.310000</ele>
        <time>2009-08-26T11:53:18Z</time>
      </trkpt>
      <trkpt lat="50.648244" lon="6.482505">
        <ele>245.750000</ele>
        <time>2009-08-26T11:53:32Z</time>
      </trkpt>
      <trkpt lat="50.648148" lon="6.482266">
        <ele>248.160000</ele>
        <time>2009-08-26T11:53:51Z</time>
      </trkpt>
      <trkpt lat="50.648023" lon="6.482122">
        <ele>249.120000</ele>
        <time>2009-08-26T11:54:08Z</time>
      </trkpt>
      <trkpt lat="50.647985" lon="6.482116">
        <ele>249.600000</ele>
        <time>2009-08-26T11:54:11Z</time>
      </trkpt>
      <trkpt lat="50.647890" lon="6.482101">
        <ele>250.080000</ele>
        <time>2009-08-26T11:54:18Z</time>
      </trkpt>
      <trkpt lat="50.647754" lon="6.482043">
        <ele>251.040000</ele>
        <time>2009-08-26T11:54:30Z</time>
      </trkpt>
      <trkpt lat="50.647707" lon="6.481984">
        <ele>252.000000</ele>
        <time>2009-08-26T11:54:34Z</time>
      </trkpt>
      <trkpt lat="50.647596" lon="6.481827">
        <ele>253.440000</ele>
        <time>2009-08-26T11:54:49Z</time>
      </trkpt>
      <trkpt lat="50.647464" lon="6.481695">
        <ele>254.410000</ele>
        <time>2009-08-26T11:55:01Z</time>
      </trkpt>
      <trkpt lat="50.647383" lon="6.481541">
        <ele>255.370000</ele>
        <time>2009-08-26T11:55:12Z</time>
      </trkpt>
      <trkpt lat="50.647244" lon="6.481368">
        <ele>255.850000</ele>
        <time>2009-08-26T11:55:28Z</time>
      </trkpt>
      <trkpt lat="50.647238" lon="6.481358">
        <ele>255.850000</ele>
        <time>2009-08-26T11:55:29Z</time>
      </trkpt>
      <trkpt lat="50.647206" lon="6.481301">
        <ele>255.850000</ele>
        <time>2009-08-26T11:55:34Z</time>
      </trkpt>
      <trkpt lat="50.647050" lon="6.481057">
        <ele>256.810000</ele>
        <time>2009-08-26T11:55:51Z</time>
      </trkpt>
      <trkpt lat="50.646866" lon="6.480943">
        <ele>257.770000</ele>
        <time>2009-08-26T11:56:05Z</time>
      </trkpt>
      <trkpt lat="50.646772" lon="6.480878">
        <ele>258.250000</ele>
        <time>2009-08-26T11:56:14Z</time>
      </trkpt>
      <trkpt lat="50.646600" lon="6.480785">
        <ele>259.690000</ele>
        <time>2009-08-26T11:56:27Z</time>
      </trkpt>
      <trkpt lat="50.646488" lon="6.480661">
        <ele>261.140000</ele>
        <time>2009-08-26T11:56:40Z</time>
      </trkpt>
      <trkpt lat="50.646340" lon="6.480645">
        <ele>262.580000</ele>
        <time>2009-08-26T11:56:55Z</time>
      </trkpt>
      <trkpt lat="50.646207" lon="6.480577">
        <ele>264.020000</ele>
        <time>2009-08-26T11:57:10Z</time>
      </trkpt>
      <trkpt lat="50.646203" lon="6.480585">
        <ele>264.020000</ele>
        <time>2009-08-26T11:57:11Z</time>
      </trkpt>
      <trkpt lat="50.646081" lon="6.480655">
        <ele>265.460000</ele>
        <time>2009-08-26T11:57:26Z</time>
      </trkpt>
      <trkpt lat="50.646069" lon="6.480715">
        <ele>265.940000</ele>
        <time>2009-08-26T11:57:32Z</time>
      </trkpt>
      <trkpt lat="50.646052" lon="6.481049">
        <ele>267.860000</ele>
        <time>2009-08-26T11:57:48Z</time>
      </trkpt>
      <trkpt lat="50.646110" lon="6.481283">
        <ele>269.790000</ele>
        <time>2009-08-26T11:58:03Z</time>
      </trkpt>
      <trkpt lat="50.646141" lon="6.481447">
        <ele>271.710000</ele>
        <time>2009-08-26T11:58:20Z</time>
      </trkpt>
      <trkpt lat="50.646200" lon="6.481436">
        <ele>271.710000</ele>
        <time>2009-08-26T11:58:46Z</time>
      </trkpt>
      <trkpt lat="50.646198" lon="6.481620">
        <ele>273.150000</ele>
        <time>2009-08-26T11:59:06Z</time>
      </trkpt>
      <trkpt lat="50.646182" lon="6.481725">
        <ele>273.630000</ele>
        <time>2009-08-26T11:59:10Z</time>
      </trkpt>
      <trkpt lat="50.646169" lon="6.481816">
        <ele>274.110000</ele>
        <time>2009-08-26T11:59:14Z</time>
      </trkpt>
      <trkpt lat="50.646176" lon="6.481893">
        <ele>274.590000</ele>
        <time>2009-08-26T11:59:17Z</time>
      </trkpt>
      <trkpt lat="50.646197" lon="6.481946">
        <ele>275.070000</ele>
        <time>2009-08-26T11:59:34Z</time>
      </trkpt>
      <trkpt lat="50.646161" lon="6.481980">
        <ele>275.560000</ele>
        <time>2009-08-26T11:59:40Z</time>
      </trkpt>
      <trkpt lat="50.646090" lon="6.482113">
        <ele>276.520000</ele>
        <time>2009-08-26T11:59:49Z</time>
      </trkpt>
      <trkpt lat="50.645956" lon="6.482256">
        <ele>277.000000</ele>
        <time>2009-08-26T12:00:02Z</time>
      </trkpt>
      <trkpt lat="50.645836" lon="6.482444">
        <ele>277.960000</ele>
        <time>2009-08-26T12:00:14Z</time>
      </trkpt>
      <trkpt lat="50.645720" lon="6.482583">
        <ele>278.920000</ele>
        <time>2009-08-26T12:00:25Z</time>
      </trkpt>
      <trkpt lat="50.645665" lon="6.482771">
        <ele>279.880000</ele>
        <time>2009-08-26T12:00:37Z</time>
      </trkpt>
      <trkpt lat="50.645654" lon="6.482855">
        <ele>280.360000</ele>
        <time>2009-08-26T12:00:41Z</time>
      </trkpt>
      <trkpt lat="50.645635" lon="6.483128">
        <ele>281.320000</ele>
        <time>2009-08-26T12:00:54Z</time>
      </trkpt>
      <trkpt lat="50.645627" lon="6.483339">
        <ele>282.770000</ele>
        <time>2009-08-26T12:01:06Z</time>
      </trkpt>
      <trkpt lat="50.645672" lon="6.483484">
        <ele>283.730000</ele>
        <time>2009-08-26T12:01:14Z</time>
      </trkpt>
      <trkpt lat="50.645715" lon="6.483573">
        <ele>284.210000</ele>
        <time>2009-08-26T12:01:20Z</time>
      </trkpt>
      <trkpt lat="50.645730" lon="6.483641">
        <ele>284.690000</ele>
        <time>2009-08-26T12:01:24Z</time>
      </trkpt>
      <trkpt lat="50.645734" lon="6.483780">
        <ele>285.650000</ele>
        <time>2009-08-26T12:01:36Z</time>
      </trkpt>
      <trkpt lat="50.645848" lon="6.484074">
        <ele>288.050000</ele>
        <time>2009-08-26T12:01:55Z</time>
      </trkpt>
      <trkpt lat="50.645867" lon="6.484226">
        <ele>289.490000</ele>
        <time>2009-08-26T12:02:06Z</time>
      </trkpt>
      <trkpt lat="50.645988" lon="6.484533">
        <ele>290.940000</ele>
        <time>2009-08-26T12:02:24Z</time>
      </trkpt>
      <trkpt lat="50.646047" lon="6.484677">
        <ele>291.900000</ele>
        <time>2009-08-26T12:02:35Z</time>
      </trkpt>
      <trkpt lat="50.645997" lon="6.484800">
        <ele>292.380000</ele>
        <time>2009-08-26T12:02:42Z</time>
      </trkpt>
      <trkpt lat="50.645975" lon="6.485246">
        <ele>294.300000</ele>
        <time>2009-08-26T12:03:06Z</time>
      </trkpt>
      <trkpt lat="50.645955" lon="6.485679">
        <ele>296.220000</ele>
        <time>2009-08-26T12:03:26Z</time>
      </trkpt>
      <trkpt lat="50.645900" lon="6.486126">
        <ele>297.180000</ele>
        <time>2009-08-26T12:03:47Z</time>
      </trkpt>
      <trkpt lat="50.645826" lon="6.486501">
        <ele>299.590000</ele>
        <time>2009-08-26T12:04:08Z</time>
      </trkpt>
      <trkpt lat="50.645790" lon="6.486864">
        <ele>301.990000</ele>
        <time>2009-08-26T12:04:28Z</time>
      </trkpt>
      <trkpt lat="50.645621" lon="6.486682">
        <ele>304.390000</ele>
        <time>2009-08-26T12:04:47Z</time>
      </trkpt>
      <trkpt lat="50.645475" lon="6.486446">
        <ele>307.280000</ele>
        <time>2009-08-26T12:05:09Z</time>
      </trkpt>
      <trkpt lat="50.645409" lon="6.486385">
        <ele>307.760000</ele>
        <time>2009-08-26T12:05:14Z</time>
      </trkpt>
      <trkpt lat="50.645206" lon="6.486156">
        <ele>310.160000</ele>
        <time>2009-08-26T12:05:34Z</time>
      </trkpt>
      <trkpt lat="50.645050" lon="6.485954">
        <ele>312.570000</ele>
        <time>2009-08-26T12:05:53Z</time>
      </trkpt>
      <trkpt lat="50.644939" lon="6.485768">
        <ele>314.010000</ele>
        <time>2009-08-26T12:06:08Z</time>
      </trkpt>
      <trkpt lat="50.644822" lon="6.485667">
        <ele>314.970000</ele>
        <time>2009-08-26T12:06:19Z</time>
      </trkpt>
      <trkpt lat="50.644718" lon="6.485512">
        <ele>316.890000</ele>
        <time>2009-08-26T12:06:34Z</time>
      </trkpt>
      <trkpt lat="50.644583" lon="6.485409">
        <ele>319.300000</ele>
        <time>2009-08-26T12:06:53Z</time>
      </trkpt>
      <trkpt lat="50.644488" lon="6.485432">
        <ele>319.780000</ele>
        <time>2009-08-26T12:07:00Z</time>
      </trkpt>
      <trkpt lat="50.644251" lon="6.485552">
        <ele>322.660000</ele>
        <time>2009-08-26T12:07:20Z</time>
      </trkpt>
      <trkpt lat="50.644107" lon="6.485652">
        <ele>323.620000</ele>
        <time>2009-08-26T12:07:34Z</time>
      </trkpt>
      <trkpt lat="50.643894" lon="6.485791">
        <ele>326.990000</ele>
        <time>2009-08-26T12:07:54Z</time>
      </trkpt>
      <trkpt lat="50.643814" lon="6.485691">
        <ele>326.990000</ele>
        <time>2009-08-26T12:08:03Z</time>
      </trkpt>
      <trkpt lat="50.643773" lon="6.485396">
        <ele>327.950000</ele>
        <time>2009-08-26T12:08:17Z</time>
      </trkpt>
      <trkpt lat="50.643785" lon="6.485175">
        <ele>327.950000</ele>
        <time>2009-08-26T12:08:29Z</time>
      </trkpt>
      <trkpt lat="50.643677" lon="6.484812">
        <ele>327.950000</ele>
        <time>2009-08-26T12:08:52Z</time>
      </trkpt>
      <trkpt lat="50.643492" lon="6.484686">
        <ele>328.910000</ele>
        <time>2009-08-26T12:09:10Z</time>
      </trkpt>
      <trkpt lat="50.643225" lon="6.484565">
        <ele>331.310000</ele>
        <time>2009-08-26T12:09:30Z</time>
      </trkpt>
      <trkpt lat="50.643087" lon="6.484431">
        <ele>333.710000</ele>
        <time>2009-08-26T12:09:50Z</time>
      </trkpt>
      <trkpt lat="50.642948" lon="6.484300">
        <ele>336.600000</ele>
        <time>2009-08-26T12:10:10Z</time>
      </trkpt>
      <trkpt lat="50.642879" lon="6.484489">
        <ele>338.520000</ele>
        <time>2009-08-26T12:10:29Z</time>
      </trkpt>
      <trkpt lat="50.643052" lon="6.484785">
        <ele>339.960000</ele>
        <time>2009-08-26T12:10:49Z</time>
      </trkpt>
      <trkpt lat="50.643235" lon="6.485098">
        <ele>342.850000</ele>
        <time>2009-08-26T12:11:10Z</time>
      </trkpt>
      <trkpt lat="50.643429" lon="6.485330">
        <ele>345.250000</ele>
        <time>2009-08-26T12:11:30Z</time>
      </trkpt>
      <trkpt lat="50.643425" lon="6.485454">
        <ele>345.730000</ele>
        <time>2009-08-26T12:11:37Z</time>
      </trkpt>
      <trkpt lat="50.643402" lon="6.485581">
        <ele>346.210000</ele>
        <time>2009-08-26T12:11:43Z</time>
      </trkpt>
      <trkpt lat="50.643285" lon="6.485801">
        <ele>347.650000</ele>
        <time>2009-08-26T12:11:57Z</time>
      </trkpt>
      <trkpt lat="50.643347" lon="6.486194">
        <ele>349.100000</ele>
        <time>2009-08-26T12:12:16Z</time>
      </trkpt>
      <trkpt lat="50.643368" lon="6.486242">
        <ele>349.100000</ele>
        <time>2009-08-26T12:12:19Z</time>
      </trkpt>
      <trkpt lat="50.643426" lon="6.486402">
        <ele>349.580000</ele>
        <time>2009-08-26T12:12:26Z</time>
      </trkpt>
      <trkpt lat="50.643447" lon="6.486435">
        <ele>349.580000</ele>
        <time>2009-08-26T12:12:28Z</time>
      </trkpt>
      <trkpt lat="50.643485" lon="6.486511">
        <ele>349.580000</ele>
        <time>2009-08-26T12:12:32Z</time>
      </trkpt>
      <trkpt lat="50.643513" lon="6.486536">
        <ele>350.060000</ele>
        <time>2009-08-26T12:12:34Z</time>
      </trkpt>
      <trkpt lat="50.643544" lon="6.486539">
        <ele>350.060000</ele>
        <time>2009-08-26T12:12:36Z</time>
      </trkpt>
      <trkpt lat="50.643596" lon="6.486565">
        <ele>350.540000</ele>
        <time>2009-08-26T12:12:41Z</time>
      </trkpt>
      <trkpt lat="50.643775" lon="6.486698">
        <ele>351.980000</ele>
        <time>2009-08-26T12:12:55Z</time>
      </trkpt>
      <trkpt lat="50.643895" lon="6.486882">
        <ele>353.420000</ele>
        <time>2009-08-26T12:13:09Z</time>
      </trkpt>
      <trkpt lat="50.643841" lon="6.487211">
        <ele>353.900000</ele>
        <time>2009-08-26T12:13:21Z</time>
      </trkpt>
      <trkpt lat="50.643839" lon="6.487242">
        <ele>353.900000</ele>
        <time>2009-08-26T12:13:22Z</time>
      </trkpt>
      <trkpt lat="50.643796" lon="6.487515">
        <ele>354.860000</ele>
        <time>2009-08-26T12:13:36Z</time>
      </trkpt>
      <trkpt lat="50.643789" lon="6.487627">
        <ele>355.340000</ele>
        <time>2009-08-26T12:13:44Z</time>
      </trkpt>
      <trkpt lat="50.643668" lon="6.487952">
        <ele>356.790000</ele>
        <time>2009-08-26T12:13:59Z</time>
      </trkpt>
      <trkpt lat="50.643617" lon="6.488261">
        <ele>357.750000</ele>
        <time>2009-08-26T12:14:14Z</time>
      </trkpt>
      <trkpt lat="50.643583" lon="6.488403">
        <ele>358.230000</ele>
        <time>2009-08-26T12:14:24Z</time>
      </trkpt>
      <trkpt lat="50.643548" lon="6.488435">
        <ele>358.230000</ele>
        <time>2009-08-26T12:14:26Z</time>
      </trkpt>
      <trkpt lat="50.643475" lon="6.488527">
        <ele>358.230000</ele>
        <time>2009-08-26T12:14:33Z</time>
      </trkpt>
      <trkpt lat="50.643418" lon="6.488668">
        <ele>358.710000</ele>
        <time>2009-08-26T12:14:41Z</time>
      </trkpt>
      <trkpt lat="50.643450" lon="6.488837">
        <ele>359.190000</ele>
        <time>2009-08-26T12:14:48Z</time>
      </trkpt>
      <trkpt lat="50.643348" lon="6.488989">
        <ele>360.150000</ele>
        <time>2009-08-26T12:15:00Z</time>
      </trkpt>
      <trkpt lat="50.643309" lon="6.489039">
        <ele>360.630000</ele>
        <time>2009-08-26T12:15:04Z</time>
      </trkpt>
      <trkpt lat="50.643280" lon="6.489181">
        <ele>361.590000</ele>
        <time>2009-08-26T12:15:12Z</time>
      </trkpt>
      <trkpt lat="50.643311" lon="6.489310">
        <ele>362.070000</ele>
        <time>2009-08-26T12:15:17Z</time>
      </trkpt>
      <trkpt lat="50.643348" lon="6.489469">
        <ele>362.070000</ele>
        <time>2009-08-26T12:15:24Z</time>
      </trkpt>
      <trkpt lat="50.643359" lon="6.489558">
        <ele>363.040000</ele>
        <time>2009-08-26T12:15:29Z</time>
      </trkpt>
      <trkpt lat="50.643428" lon="6.489673">
        <ele>364.000000</ele>
        <time>2009-08-26T12:15:39Z</time>
      </trkpt>
      <trkpt lat="50.643414" lon="6.489906">
        <ele>365.440000</ele>
        <time>2009-08-26T12:15:52Z</time>
      </trkpt>
      <trkpt lat="50.643433" lon="6.490110">
        <ele>367.840000</ele>
        <time>2009-08-26T12:16:05Z</time>
      </trkpt>
      <trkpt lat="50.643390" lon="6.490257">
        <ele>368.800000</ele>
        <time>2009-08-26T12:16:15Z</time>
      </trkpt>
      <trkpt lat="50.643414" lon="6.490717">
        <ele>370.730000</ele>
        <time>2009-08-26T12:16:41Z</time>
      </trkpt>
      <trkpt lat="50.643346" lon="6.491099">
        <ele>374.090000</ele>
        <time>2009-08-26T12:17:03Z</time>
      </trkpt>
      <trkpt lat="50.643369" lon="6.491161">
        <ele>374.090000</ele>
        <time>2009-08-26T12:17:05Z</time>
      </trkpt>
      <trkpt lat="50.643439" lon="6.491470">
        <ele>377.450000</ele>
        <time>2009-08-26T12:17:24Z</time>
      </trkpt>
      <trkpt lat="50.643436" lon="6.491572">
        <ele>377.940000</ele>
        <time>2009-08-26T12:17:30Z</time>
      </trkpt>
      <trkpt lat="50.643381" lon="6.491889">
        <ele>378.900000</ele>
        <time>2009-08-26T12:17:52Z</time>
      </trkpt>
      <trkpt lat="50.643314" lon="6.491923">
        <ele>378.900000</ele>
        <time>2009-08-26T12:18:01Z</time>
      </trkpt>
      <trkpt lat="50.643065" lon="6.492039">
        <ele>378.420000</ele>
        <time>2009-08-26T12:18:21Z</time>
      </trkpt>
      <trkpt lat="50.642820" lon="6.492144">
        <ele>376.970000</ele>
        <time>2009-08-26T12:18:41Z</time>
      </trkpt>
      <trkpt lat="50.642509" lon="6.492257">
        <ele>377.450000</ele>
        <time>2009-08-26T12:19:05Z</time>
      </trkpt>
      <trkpt lat="50.642230" lon="6.492350">
        <ele>377.940000</ele>
        <time>2009-08-26T12:19:28Z</time>
      </trkpt>
      <trkpt lat="50.642022" lon="6.492408">
        <ele>377.940000</ele>
        <time>2009-08-26T12:19:47Z</time>
      </trkpt>
      <trkpt lat="50.641813" lon="6.492485">
        <ele>377.940000</ele>
        <time>2009-08-26T12:20:09Z</time>
      </trkpt>
      <trkpt lat="50.641616" lon="6.492635">
        <ele>378.420000</ele>
        <time>2009-08-26T12:20:25Z</time>
      </trkpt>
      <trkpt lat="50.641364" lon="6.492640">
        <ele>378.900000</ele>
        <time>2009-08-26T12:20:40Z</time>
      </trkpt>
      <trkpt lat="50.641089" lon="6.492696">
        <ele>380.820000</ele>
        <time>2009-08-26T12:21:05Z</time>
      </trkpt>
      <trkpt lat="50.640908" lon="6.492726">
        <ele>381.780000</ele>
        <time>2009-08-26T12:21:24Z</time>
      </trkpt>
      <trkpt lat="50.640632" lon="6.492785">
        <ele>381.780000</ele>
        <time>2009-08-26T12:21:50Z</time>
      </trkpt>
      <trkpt lat="50.640349" lon="6.492851">
        <ele>381.780000</ele>
        <time>2009-08-26T12:22:11Z</time>
      </trkpt>
      <trkpt lat="50.640028" lon="6.492915">
        <ele>381.300000</ele>
        <time>2009-08-26T12:22:32Z</time>
      </trkpt>
      <trkpt lat="50.639869" lon="6.492914">
        <ele>381.780000</ele>
        <time>2009-08-26T12:22:45Z</time>
      </trkpt>
      <trkpt lat="50.639637" lon="6.492902">
        <ele>381.780000</ele>
        <time>2009-08-26T12:23:07Z</time>
      </trkpt>
      <trkpt lat="50.639364" lon="6.492821">
        <ele>381.300000</ele>
        <time>2009-08-26T12:23:28Z</time>
      </trkpt>
      <trkpt lat="50.639021" lon="6.492818">
        <ele>379.860000</ele>
        <time>2009-08-26T12:23:47Z</time>
      </trkpt>
      <trkpt lat="50.638936" lon="6.492910">
        <ele>378.900000</ele>
        <time>2009-08-26T12:23:58Z</time>
      </trkpt>
      <trkpt lat="50.638929" lon="6.492911">
        <ele>378.900000</ele>
        <time>2009-08-26T12:23:59Z</time>
      </trkpt>
      <trkpt lat="50.638684" lon="6.492947">
        <ele>377.450000</ele>
        <time>2009-08-26T12:24:14Z</time>
      </trkpt>
      <trkpt lat="50.638574" lon="6.493008">
        <ele>376.010000</ele>
        <time>2009-08-26T12:24:29Z</time>
      </trkpt>
      <trkpt lat="50.638298" lon="6.493069">
        <ele>373.610000</ele>
        <time>2009-08-26T12:24:50Z</time>
      </trkpt>
      <trkpt lat="50.638083" lon="6.493149">
        <ele>371.690000</ele>
        <time>2009-08-26T12:25:04Z</time>
      </trkpt>
      <trkpt lat="50.637920" lon="6.493145">
        <ele>371.210000</ele>
        <time>2009-08-26T12:25:17Z</time>
      </trkpt>
      <trkpt lat="50.637746" lon="6.493216">
        <ele>370.730000</ele>
        <time>2009-08-26T12:25:31Z</time>
      </trkpt>
      <trkpt lat="50.637621" lon="6.493215">
        <ele>369.760000</ele>
        <time>2009-08-26T12:25:44Z</time>
      </trkpt>
      <trkpt lat="50.637371" lon="6.492949">
        <ele>369.280000</ele>
        <time>2009-08-26T12:26:06Z</time>
      </trkpt>
      <trkpt lat="50.637256" lon="6.492656">
        <ele>368.320000</ele>
        <time>2009-08-26T12:26:19Z</time>
      </trkpt>
      <trkpt lat="50.637159" lon="6.492395">
        <ele>367.360000</ele>
        <time>2009-08-26T12:26:33Z</time>
      </trkpt>
      <trkpt lat="50.637155" lon="6.492213">
        <ele>367.360000</ele>
        <time>2009-08-26T12:26:40Z</time>
      </trkpt>
      <trkpt lat="50.637153" lon="6.492119">
        <ele>366.880000</ele>
        <time>2009-08-26T12:26:44Z</time>
      </trkpt>
      <trkpt lat="50.637182" lon="6.492049">
        <ele>366.880000</ele>
        <time>2009-08-26T12:26:47Z</time>
      </trkpt>
      <trkpt lat="50.637114" lon="6.491947">
        <ele>366.400000</ele>
        <time>2009-08-26T12:26:54Z</time>
      </trkpt>
      <trkpt lat="50.637090" lon="6.491841">
        <ele>366.400000</ele>
        <time>2009-08-26T12:26:58Z</time>
      </trkpt>
      <trkpt lat="50.637089" lon="6.491744">
        <ele>366.400000</ele>
        <time>2009-08-26T12:27:04Z</time>
      </trkpt>
      <trkpt lat="50.637098" lon="6.491579">
        <ele>365.920000</ele>
        <time>2009-08-26T12:27:10Z</time>
      </trkpt>
      <trkpt lat="50.637096" lon="6.491462">
        <ele>365.920000</ele>
        <time>2009-08-26T12:27:15Z</time>
      </trkpt>
      <trkpt lat="50.637168" lon="6.491302">
        <ele>365.920000</ele>
        <time>2009-08-26T12:27:29Z</time>
      </trkpt>
      <trkpt lat="50.637168" lon="6.491164">
        <ele>364.960000</ele>
        <time>2009-08-26T12:27:41Z</time>
      </trkpt>
      <trkpt lat="50.637177" lon="6.491106">
        <ele>364.480000</ele>
        <time>2009-08-26T12:27:45Z</time>
      </trkpt>
      <trkpt lat="50.637208" lon="6.490919">
        <ele>364.480000</ele>
        <time>2009-08-26T12:28:00Z</time>
      </trkpt>
      <trkpt lat="50.637067" lon="6.491139">
        <ele>365.920000</ele>
        <time>2009-08-26T12:29:07Z</time>
      </trkpt>
      <trkpt lat="50.637137" lon="6.491566">
        <ele>366.400000</ele>
        <time>2009-08-26T12:29:25Z</time>
      </trkpt>
      <trkpt lat="50.637196" lon="6.492029">
        <ele>366.880000</ele>
        <time>2009-08-26T12:29:45Z</time>
      </trkpt>
      <trkpt lat="50.637260" lon="6.492360">
        <ele>368.320000</ele>
        <time>2009-08-26T12:30:06Z</time>
      </trkpt>
      <trkpt lat="50.637296" lon="6.492582">
        <ele>369.280000</ele>
        <time>2009-08-26T12:30:22Z</time>
      </trkpt>
      <trkpt lat="50.637504" lon="6.492949">
        <ele>370.730000</ele>
        <time>2009-08-26T12:30:42Z</time>
      </trkpt>
      <trkpt lat="50.637634" lon="6.493049">
        <ele>371.210000</ele>
        <time>2009-08-26T12:30:59Z</time>
      </trkpt>
      <trkpt lat="50.637701" lon="6.492927">
        <ele>370.240000</ele>
        <time>2009-08-26T12:31:27Z</time>
      </trkpt>
      <trkpt lat="50.637765" lon="6.493092">
        <ele>370.730000</ele>
        <time>2009-08-26T12:31:47Z</time>
      </trkpt>
      <trkpt lat="50.637802" lon="6.493108">
        <ele>371.210000</ele>
        <time>2009-08-26T12:32:28Z</time>
      </trkpt>
      <trkpt lat="50.637734" lon="6.493093">
        <ele>370.730000</ele>
        <time>2009-08-26T12:32:51Z</time>
      </trkpt>
      <trkpt lat="50.637515" lon="6.493118">
        <ele>370.240000</ele>
        <time>2009-08-26T12:33:13Z</time>
      </trkpt>
      <trkpt lat="50.637428" lon="6.493007">
        <ele>369.760000</ele>
        <time>2009-08-26T12:33:31Z</time>
      </trkpt>
      <trkpt lat="50.637388" lon="6.493151">
        <ele>370.240000</ele>
        <time>2009-08-26T12:33:47Z</time>
      </trkpt>
      <trkpt lat="50.637380" lon="6.493171">
        <ele>370.240000</ele>
        <time>2009-08-26T12:33:51Z</time>
      </trkpt>
      <trkpt lat="50.637167" lon="6.493381">
        <ele>370.730000</ele>
        <time>2009-08-26T12:34:12Z</time>
      </trkpt>
      <trkpt lat="50.636951" lon="6.493315">
        <ele>372.650000</ele>
        <time>2009-08-26T12:34:34Z</time>
      </trkpt>
      <trkpt lat="50.636735" lon="6.493198">
        <ele>371.690000</ele>
        <time>2009-08-26T12:34:53Z</time>
      </trkpt>
      <trkpt lat="50.636708" lon="6.493186">
        <ele>371.210000</ele>
        <time>2009-08-26T12:34:55Z</time>
      </trkpt>
      <trkpt lat="50.636597" lon="6.493173">
        <ele>370.730000</ele>
        <time>2009-08-26T12:34:59Z</time>
      </trkpt>
      <trkpt lat="50.636330" lon="6.493073">
        <ele>370.240000</ele>
        <time>2009-08-26T12:35:22Z</time>
      </trkpt>
      <trkpt lat="50.636091" lon="6.492879">
        <ele>368.800000</ele>
        <time>2009-08-26T12:35:43Z</time>
      </trkpt>
      <trkpt lat="50.635902" lon="6.492602">
        <ele>367.840000</ele>
        <time>2009-08-26T12:36:04Z</time>
      </trkpt>
      <trkpt lat="50.635894" lon="6.492542">
        <ele>367.360000</ele>
        <time>2009-08-26T12:36:07Z</time>
      </trkpt>
      <trkpt lat="50.635729" lon="6.492161">
        <ele>364.000000</ele>
        <time>2009-08-26T12:36:29Z</time>
      </trkpt>
      <trkpt lat="50.635665" lon="6.491914">
        <ele>361.110000</ele>
        <time>2009-08-26T12:36:41Z</time>
      </trkpt>
      <trkpt lat="50.635649" lon="6.491856">
        <ele>360.630000</ele>
        <time>2009-08-26T12:36:44Z</time>
      </trkpt>
      <trkpt lat="50.635541" lon="6.491693">
        <ele>357.750000</ele>
        <time>2009-08-26T12:36:58Z</time>
      </trkpt>
      <trkpt lat="50.635414" lon="6.491384">
        <ele>354.860000</ele>
        <time>2009-08-26T12:37:16Z</time>
      </trkpt>
      <trkpt lat="50.635297" lon="6.491311">
        <ele>353.420000</ele>
        <time>2009-08-26T12:37:26Z</time>
      </trkpt>
      <trkpt lat="50.635048" lon="6.491107">
        <ele>350.540000</ele>
        <time>2009-08-26T12:37:48Z</time>
      </trkpt>
      <trkpt lat="50.635024" lon="6.491112">
        <ele>350.540000</ele>
        <time>2009-08-26T12:37:49Z</time>
      </trkpt>
      <trkpt lat="50.634818" lon="6.491095">
        <ele>350.060000</ele>
        <time>2009-08-26T12:38:04Z</time>
      </trkpt>
      <trkpt lat="50.634594" lon="6.491057">
        <ele>347.170000</ele>
        <time>2009-08-26T12:38:18Z</time>
      </trkpt>
      <trkpt lat="50.634528" lon="6.491028">
        <ele>344.290000</ele>
        <time>2009-08-26T12:38:30Z</time>
      </trkpt>
      <trkpt lat="50.634388" lon="6.491011">
        <ele>340.920000</ele>
        <time>2009-08-26T12:38:43Z</time>
      </trkpt>
      <trkpt lat="50.634257" lon="6.491020">
        <ele>338.040000</ele>
        <time>2009-08-26T12:38:56Z</time>
      </trkpt>
      <trkpt lat="50.634111" lon="6.490991">
        <ele>334.680000</ele>
        <time>2009-08-26T12:39:08Z</time>
      </trkpt>
      <trkpt lat="50.633948" lon="6.490986">
        <ele>331.790000</ele>
        <time>2009-08-26T12:39:21Z</time>
      </trkpt>
      <trkpt lat="50.633778" lon="6.490881">
        <ele>328.430000</ele>
        <time>2009-08-26T12:39:31Z</time>
      </trkpt>
      <trkpt lat="50.633684" lon="6.490776">
        <ele>325.540000</ele>
        <time>2009-08-26T12:39:44Z</time>
      </trkpt>
      <trkpt lat="50.633586" lon="6.490660">
        <ele>322.180000</ele>
        <time>2009-08-26T12:39:56Z</time>
      </trkpt>
      <trkpt lat="50.633501" lon="6.490514">
        <ele>318.810000</ele>
        <time>2009-08-26T12:40:08Z</time>
      </trkpt>
      <trkpt lat="50.633452" lon="6.490396">
        <ele>317.370000</ele>
        <time>2009-08-26T12:40:14Z</time>
      </trkpt>
      <trkpt lat="50.633353" lon="6.490266">
        <ele>314.010000</ele>
        <time>2009-08-26T12:40:26Z</time>
      </trkpt>
      <trkpt lat="50.633287" lon="6.490131">
        <ele>310.640000</ele>
        <time>2009-08-26T12:40:37Z</time>
      </trkpt>
      <trkpt lat="50.633239" lon="6.490046">
        <ele>307.760000</ele>
        <time>2009-08-26T12:40:48Z</time>
      </trkpt>
      <trkpt lat="50.633178" lon="6.489939">
        <ele>305.360000</ele>
        <time>2009-08-26T12:40:57Z</time>
      </trkpt>
      <trkpt lat="50.633022" lon="6.489858">
        <ele>301.990000</ele>
        <time>2009-08-26T12:41:10Z</time>
      </trkpt>
      <trkpt lat="50.632934" lon="6.489744">
        <ele>298.630000</ele>
        <time>2009-08-26T12:41:21Z</time>
      </trkpt>
      <trkpt lat="50.632841" lon="6.489642">
        <ele>295.740000</ele>
        <time>2009-08-26T12:41:34Z</time>
      </trkpt>
      <trkpt lat="50.632782" lon="6.489509">
        <ele>292.380000</ele>
        <time>2009-08-26T12:41:51Z</time>
      </trkpt>
      <trkpt lat="50.632775" lon="6.489439">
        <ele>289.490000</ele>
        <time>2009-08-26T12:42:00Z</time>
      </trkpt>
      <trkpt lat="50.632714" lon="6.489251">
        <ele>286.610000</ele>
        <time>2009-08-26T12:42:12Z</time>
      </trkpt>
      <trkpt lat="50.632702" lon="6.489149">
        <ele>283.250000</ele>
        <time>2009-08-26T12:42:23Z</time>
      </trkpt>
      <trkpt lat="50.632659" lon="6.488935">
        <ele>280.360000</ele>
        <time>2009-08-26T12:42:37Z</time>
      </trkpt>
      <trkpt lat="50.632608" lon="6.488760">
        <ele>277.000000</ele>
        <time>2009-08-26T12:42:50Z</time>
      </trkpt>
      <trkpt lat="50.632538" lon="6.488710">
        <ele>273.630000</ele>
        <time>2009-08-26T12:43:01Z</time>
      </trkpt>
      <trkpt lat="50.632404" lon="6.488593">
        <ele>270.750000</ele>
        <time>2009-08-26T12:43:13Z</time>
      </trkpt>
      <trkpt lat="50.632329" lon="6.488563">
        <ele>267.380000</ele>
        <time>2009-08-26T12:43:26Z</time>
      </trkpt>
      <trkpt lat="50.632250" lon="6.488584">
        <ele>264.500000</ele>
        <time>2009-08-26T12:43:41Z</time>
      </trkpt>
      <trkpt lat="50.632191" lon="6.488586">
        <ele>262.580000</ele>
        <time>2009-08-26T12:43:48Z</time>
      </trkpt>
      <trkpt lat="50.632042" lon="6.488552">
        <ele>259.210000</ele>
        <time>2009-08-26T12:44:03Z</time>
      </trkpt>
      <trkpt lat="50.631995" lon="6.488615">
        <ele>256.330000</ele>
        <time>2009-08-26T12:44:17Z</time>
      </trkpt>
      <trkpt lat="50.631988" lon="6.488632">
        <ele>255.850000</ele>
        <time>2009-08-26T12:44:18Z</time>
      </trkpt>
      <trkpt lat="50.631933" lon="6.488850">
        <ele>252.480000</ele>
        <time>2009-08-26T12:44:34Z</time>
      </trkpt>
      <trkpt lat="50.631881" lon="6.488901">
        <ele>249.600000</ele>
        <time>2009-08-26T12:44:49Z</time>
      </trkpt>
      <trkpt lat="50.631810" lon="6.488723">
        <ele>246.230000</ele>
        <time>2009-08-26T12:45:07Z</time>
      </trkpt>
      <trkpt lat="50.631699" lon="6.488800">
        <ele>243.830000</ele>
        <time>2009-08-26T12:45:24Z</time>
      </trkpt>
      <trkpt lat="50.631698" lon="6.489002">
        <ele>242.870000</ele>
        <time>2009-08-26T12:45:45Z</time>
      </trkpt>
      <trkpt lat="50.631685" lon="6.488901">
        <ele>242.390000</ele>
        <time>2009-08-26T12:45:58Z</time>
      </trkpt>
      <trkpt lat="50.631678" lon="6.488848">
        <ele>241.910000</ele>
        <time>2009-08-26T12:46:16Z</time>
      </trkpt>
      <trkpt lat="50.631630" lon="6.488400">
        <ele>240.950000</ele>
        <time>2009-08-26T12:46:30Z</time>
      </trkpt>
      <trkpt lat="50.631650" lon="6.488170">
        <ele>240.470000</ele>
        <time>2009-08-26T12:46:42Z</time>
      </trkpt>
      <trkpt lat="50.631660" lon="6.487896">
        <ele>239.510000</ele>
        <time>2009-08-26T12:46:53Z</time>
      </trkpt>
      <trkpt lat="50.631799" lon="6.487624">
        <ele>238.540000</ele>
        <time>2009-08-26T12:47:08Z</time>
      </trkpt>
      <trkpt lat="50.631897" lon="6.487512">
        <ele>238.060000</ele>
        <time>2009-08-26T12:47:18Z</time>
      </trkpt>
      <trkpt lat="50.632081" lon="6.487224">
        <ele>237.100000</ele>
        <time>2009-08-26T12:47:34Z</time>
      </trkpt>
      <trkpt lat="50.632249" lon="6.487109">
        <ele>237.100000</ele>
        <time>2009-08-26T12:47:46Z</time>
      </trkpt>
      <trkpt lat="50.632452" lon="6.486931">
        <ele>236.140000</ele>
        <time>2009-08-26T12:48:00Z</time>
      </trkpt>
      <trkpt lat="50.632544" lon="6.486629">
        <ele>235.180000</ele>
        <time>2009-08-26T12:48:15Z</time>
      </trkpt>
      <trkpt lat="50.632645" lon="6.486380">
        <ele>234.700000</ele>
        <time>2009-08-26T12:48:30Z</time>
      </trkpt>
      <trkpt lat="50.632790" lon="6.486201">
        <ele>234.220000</ele>
        <time>2009-08-26T12:48:43Z</time>
      </trkpt>
      <trkpt lat="50.632801" lon="6.486096">
        <ele>234.220000</ele>
        <time>2009-08-26T12:48:47Z</time>
      </trkpt>
      <trkpt lat="50.632848" lon="6.485996">
        <ele>234.220000</ele>
        <time>2009-08-26T12:48:53Z</time>
      </trkpt>
      <trkpt lat="50.632871" lon="6.485900">
        <ele>233.740000</ele>
        <time>2009-08-26T12:48:58Z</time>
      </trkpt>
      <trkpt lat="50.632889" lon="6.485762">
        <ele>233.260000</ele>
        <time>2009-08-26T12:49:06Z</time>
      </trkpt>
      <trkpt lat="50.632888" lon="6.485722">
        <ele>233.260000</ele>
        <time>2009-08-26T12:49:08Z</time>
      </trkpt>
      <trkpt lat="50.632914" lon="6.485616">
        <ele>232.780000</ele>
        <time>2009-08-26T12:49:12Z</time>
      </trkpt>
      <trkpt lat="50.632950" lon="6.485257">
        <ele>231.810000</ele>
        <time>2009-08-26T12:49:29Z</time>
      </trkpt>
      <trkpt lat="50.632972" lon="6.484966">
        <ele>230.850000</ele>
        <time>2009-08-26T12:49:42Z</time>
      </trkpt>
      <trkpt lat="50.632949" lon="6.484694">
        <ele>229.890000</ele>
        <time>2009-08-26T12:49:55Z</time>
      </trkpt>
      <trkpt lat="50.632918" lon="6.484394">
        <ele>229.890000</ele>
        <time>2009-08-26T12:50:09Z</time>
      </trkpt>
      <trkpt lat="50.632874" lon="6.484171">
        <ele>228.930000</ele>
        <time>2009-08-26T12:50:19Z</time>
      </trkpt>
      <trkpt lat="50.632897" lon="6.483997">
        <ele>228.930000</ele>
        <time>2009-08-26T12:50:26Z</time>
      </trkpt>
      <trkpt lat="50.632859" lon="6.483636">
        <ele>227.490000</ele>
        <time>2009-08-26T12:50:42Z</time>
      </trkpt>
      <trkpt lat="50.632869" lon="6.483390">
        <ele>227.010000</ele>
        <time>2009-08-26T12:50:53Z</time>
      </trkpt>
      <trkpt lat="50.632893" lon="6.483072">
        <ele>227.010000</ele>
        <time>2009-08-26T12:51:07Z</time>
      </trkpt>
      <trkpt lat="50.632935" lon="6.482775">
        <ele>225.570000</ele>
        <time>2009-08-26T12:51:20Z</time>
      </trkpt>
      <trkpt lat="50.632939" lon="6.482759">
        <ele>225.570000</ele>
        <time>2009-08-26T12:51:21Z</time>
      </trkpt>
      <trkpt lat="50.632984" lon="6.482461">
        <ele>224.610000</ele>
        <time>2009-08-26T12:51:35Z</time>
      </trkpt>
      <trkpt lat="50.633017" lon="6.482114">
        <ele>224.610000</ele>
        <time>2009-08-26T12:51:50Z</time>
      </trkpt>
      <trkpt lat="50.633075" lon="6.481857">
        <ele>223.160000</ele>
        <time>2009-08-26T12:52:03Z</time>
      </trkpt>
      <trkpt lat="50.633213" lon="6.481609">
        <ele>222.680000</ele>
        <time>2009-08-26T12:52:17Z</time>
      </trkpt>
      <trkpt lat="50.633238" lon="6.481515">
        <ele>222.680000</ele>
        <time>2009-08-26T12:52:21Z</time>
      </trkpt>
      <trkpt lat="50.633324" lon="6.481208">
        <ele>221.720000</ele>
        <time>2009-08-26T12:52:35Z</time>
      </trkpt>
      <trkpt lat="50.633426" lon="6.480968">
        <ele>221.720000</ele>
        <time>2009-08-26T12:52:49Z</time>
      </trkpt>
      <trkpt lat="50.633428" lon="6.480683">
        <ele>220.760000</ele>
        <time>2009-08-26T12:53:02Z</time>
      </trkpt>
      <trkpt lat="50.633443" lon="6.480547">
        <ele>220.280000</ele>
        <time>2009-08-26T12:53:08Z</time>
      </trkpt>
      <trkpt lat="50.633527" lon="6.480277">
        <ele>219.800000</ele>
        <time>2009-08-26T12:53:21Z</time>
      </trkpt>
      <trkpt lat="50.633584" lon="6.480174">
        <ele>219.320000</ele>
        <time>2009-08-26T12:53:27Z</time>
      </trkpt>
      <trkpt lat="50.633686" lon="6.479870">
        <ele>218.360000</ele>
        <time>2009-08-26T12:53:42Z</time>
      </trkpt>
      <trkpt lat="50.633738" lon="6.479776">
        <ele>218.360000</ele>
        <time>2009-08-26T12:53:48Z</time>
      </trkpt>
      <trkpt lat="50.633781" lon="6.479723">
        <ele>218.360000</ele>
        <time>2009-08-26T12:53:51Z</time>
      </trkpt>
      <trkpt lat="50.633797" lon="6.479576">
        <ele>218.360000</ele>
        <time>2009-08-26T12:53:58Z</time>
      </trkpt>
      <trkpt lat="50.633802" lon="6.479502">
        <ele>217.880000</ele>
        <time>2009-08-26T12:54:03Z</time>
      </trkpt>
      <trkpt lat="50.633813" lon="6.479333">
        <ele>217.400000</ele>
        <time>2009-08-26T12:54:10Z</time>
      </trkpt>
      <trkpt lat="50.633848" lon="6.479004">
        <ele>216.910000</ele>
        <time>2009-08-26T12:54:23Z</time>
      </trkpt>
      <trkpt lat="50.633793" lon="6.478733">
        <ele>216.430000</ele>
        <time>2009-08-26T12:54:36Z</time>
      </trkpt>
      <trkpt lat="50.633777" lon="6.478646">
        <ele>215.950000</ele>
        <time>2009-08-26T12:54:39Z</time>
      </trkpt>
      <trkpt lat="50.633800" lon="6.478568">
        <ele>215.950000</ele>
        <time>2009-08-26T12:54:42Z</time>
      </trkpt>
      <trkpt lat="50.633819" lon="6.478410">
        <ele>215.470000</ele>
        <time>2009-08-26T12:54:49Z</time>
      </trkpt>
      <trkpt lat="50.633826" lon="6.478293">
        <ele>215.470000</ele>
        <time>2009-08-26T12:54:55Z</time>
      </trkpt>
      <trkpt lat="50.633839" lon="6.478147">
        <ele>215.950000</ele>
        <time>2009-08-26T12:55:03Z</time>
      </trkpt>
      <trkpt lat="50.633807" lon="6.477822">
        <ele>214.510000</ele>
        <time>2009-08-26T12:55:19Z</time>
      </trkpt>
      <trkpt lat="50.633787" lon="6.477702">
        <ele>214.030000</ele>
        <time>2009-08-26T12:55:26Z</time>
      </trkpt>
      <trkpt lat="50.633784" lon="6.477649">
        <ele>214.030000</ele>
        <time>2009-08-26T12:55:29Z</time>
      </trkpt>
      <trkpt lat="50.633714" lon="6.477479">
        <ele>214.030000</ele>
        <time>2009-08-26T12:55:38Z</time>
      </trkpt>
      <trkpt lat="50.633701" lon="6.477444">
        <ele>214.510000</ele>
        <time>2009-08-26T12:55:59Z</time>
      </trkpt>
      <trkpt lat="50.633593" lon="6.477507">
        <ele>214.030000</ele>
        <time>2009-08-26T12:56:45Z</time>
      </trkpt>
      <trkpt lat="50.633611" lon="6.477398">
        <ele>213.550000</ele>
        <time>2009-08-26T12:57:00Z</time>
      </trkpt>
      <trkpt lat="50.633585" lon="6.477317">
        <ele>213.070000</ele>
        <time>2009-08-26T12:57:03Z</time>
      </trkpt>
      <trkpt lat="50.633557" lon="6.477275">
        <ele>213.070000</ele>
        <time>2009-08-26T12:57:07Z</time>
      </trkpt>
      <trkpt lat="50.633543" lon="6.477254">
        <ele>213.070000</ele>
        <time>2009-08-26T12:57:09Z</time>
      </trkpt>
      <trkpt lat="50.633482" lon="6.477167">
        <ele>212.590000</ele>
        <time>2009-08-26T12:57:15Z</time>
      </trkpt>
      <trkpt lat="50.633507" lon="6.476906">
        <ele>212.590000</ele>
        <time>2009-08-26T12:57:24Z</time>
      </trkpt>
      <trkpt lat="50.633547" lon="6.476624">
        <ele>212.110000</ele>
        <time>2009-08-26T12:57:38Z</time>
      </trkpt>
      <trkpt lat="50.633599" lon="6.476342">
        <ele>212.590000</ele>
        <time>2009-08-26T12:57:51Z</time>
      </trkpt>
      <trkpt lat="50.633620" lon="6.476325">
        <ele>212.110000</ele>
        <time>2009-08-26T12:57:53Z</time>
      </trkpt>
      <trkpt lat="50.633634" lon="6.476240">
        <ele>212.110000</ele>
        <time>2009-08-26T12:57:57Z</time>
      </trkpt>
      <trkpt lat="50.633698" lon="6.475982">
        <ele>212.590000</ele>
        <time>2009-08-26T12:58:13Z</time>
      </trkpt>
      <trkpt lat="50.633741" lon="6.475522">
        <ele>212.590000</ele>
        <time>2009-08-26T12:58:33Z</time>
      </trkpt>
      <trkpt lat="50.633744" lon="6.475494">
        <ele>212.590000</ele>
        <time>2009-08-26T12:58:35Z</time>
      </trkpt>
      <trkpt lat="50.633793" lon="6.475405">
        <ele>212.590000</ele>
        <time>2009-08-26T12:58:40Z</time>
      </trkpt>
      <trkpt lat="50.633846" lon="6.475221">
        <ele>212.590000</ele>
        <time>2009-08-26T12:58:48Z</time>
      </trkpt>
      <trkpt lat="50.633860" lon="6.475195">
        <ele>212.590000</ele>
        <time>2009-08-26T12:58:50Z</time>
      </trkpt>
      <trkpt lat="50.633962" lon="6.475003">
        <ele>212.110000</ele>
        <time>2009-08-26T12:59:01Z</time>
      </trkpt>
      <trkpt lat="50.633982" lon="6.474968">
        <ele>212.110000</ele>
        <time>2009-08-26T12:59:04Z</time>
      </trkpt>
      <trkpt lat="50.634098" lon="6.474655">
        <ele>211.630000</ele>
        <time>2009-08-26T12:59:18Z</time>
      </trkpt>
      <trkpt lat="50.634090" lon="6.474614">
        <ele>211.630000</ele>
        <time>2009-08-26T12:59:33Z</time>
      </trkpt>
      <trkpt lat="50.634168" lon="6.474582">
        <ele>212.110000</ele>
        <time>2009-08-26T12:59:45Z</time>
      </trkpt>
      <trkpt lat="50.634391" lon="6.474449">
        <ele>212.110000</ele>
        <time>2009-08-26T13:00:01Z</time>
      </trkpt>
      <trkpt lat="50.634575" lon="6.474444">
        <ele>212.110000</ele>
        <time>2009-08-26T13:00:14Z</time>
      </trkpt>
      <trkpt lat="50.634723" lon="6.474331">
        <ele>213.070000</ele>
        <time>2009-08-26T13:00:29Z</time>
      </trkpt>
      <trkpt lat="50.634986" lon="6.474320">
        <ele>213.070000</ele>
        <time>2009-08-26T13:00:44Z</time>
      </trkpt>
      <trkpt lat="50.634998" lon="6.474318">
        <ele>213.070000</ele>
        <time>2009-08-26T13:00:45Z</time>
      </trkpt>
      <trkpt lat="50.635091" lon="6.474191">
        <ele>213.070000</ele>
        <time>2009-08-26T13:00:58Z</time>
      </trkpt>
      <trkpt lat="50.635333" lon="6.473922">
        <ele>213.070000</ele>
        <time>2009-08-26T13:01:17Z</time>
      </trkpt>
      <trkpt lat="50.635342" lon="6.473904">
        <ele>213.070000</ele>
        <time>2009-08-26T13:01:18Z</time>
      </trkpt>
      <trkpt lat="50.635468" lon="6.473690">
        <ele>213.550000</ele>
        <time>2009-08-26T13:01:31Z</time>
      </trkpt>
      <trkpt lat="50.635506" lon="6.473625">
        <ele>213.550000</ele>
        <time>2009-08-26T13:01:37Z</time>
      </trkpt>
      <trkpt lat="50.635790" lon="6.473630">
        <ele>214.030000</ele>
        <time>2009-08-26T13:01:53Z</time>
      </trkpt>
      <trkpt lat="50.635813" lon="6.473786">
        <ele>215.470000</ele>
        <time>2009-08-26T13:02:07Z</time>
      </trkpt>
      <trkpt lat="50.635980" lon="6.473775">
        <ele>215.470000</ele>
        <time>2009-08-26T13:02:25Z</time>
      </trkpt>
      <trkpt lat="50.636067" lon="6.473610">
        <ele>215.470000</ele>
        <time>2009-08-26T13:02:40Z</time>
      </trkpt>
      <trkpt lat="50.636356" lon="6.473598">
        <ele>214.990000</ele>
        <time>2009-08-26T13:03:01Z</time>
      </trkpt>
      <trkpt lat="50.636359" lon="6.473509">
        <ele>214.990000</ele>
        <time>2009-08-26T13:03:28Z</time>
      </trkpt>
      <trkpt lat="50.636411" lon="6.473456">
        <ele>214.990000</ele>
        <time>2009-08-26T13:04:13Z</time>
      </trkpt>
      <trkpt lat="50.636434" lon="6.473456">
        <ele>214.510000</ele>
        <time>2009-08-26T13:07:13Z</time>
      </trkpt>
    </trkseg>
  </trk>

</gpx>
